GFSGBSN_925_thetae_000.txt.gz
Theta_e
317 316 314 312 312 312 312 311 311 311 311 311 311 311 311 311 311 310 312 313 313 313 313 314 314 314 313 314 314 314 318 318 315 331 333 327 324 324 326 324 325 325 325 323 322 321 318
316 316 315 313 311 312 312 311 311 311 311 311 311 312 311 311 311 311 311 312 312 313 313 313 313 312 314 314 311 313 316 318 322 331 332 327 324 323 325 326 326 324 321 320 319 319 319
317 316 315 314 311 311 311 312 312 311 311 311 311 310 308 310 311 311 311 311 311 312 312 313 313 313 314 312 311 311 313 320 325 330 331 326 323 325 324 327 323 321 322 320 319 320 321
317 316 315 314 312 311 311 312 311 311 311 309 311 308 309 311 310 311 311 311 311 310 311 312 313 313 313 311 311 313 315 316 324 329 330 327 324 325 326 323 318 320 320 322 319 320 319
314 315 315 314 312 311 312 312 311 311 312 311 310 310 310 309 308 308 310 311 311 311 312 312 311 312 312 312 315 310 314 318 319 326 330 328 325 325 324 324 321 319 321 320 319 317 320
313 313 314 315 314 311 311 311 310 307 311 311 310 310 312 311 311 310 308 309 310 311 311 312 312 313 313 316 315 316 312 316 324 326 330 330 329 327 322 321 328 322 321 319 318 318 318
315 313 313 314 314 310 311 311 310 311 311 307 309 309 311 312 313 311 310 309 311 310 313 313 313 314 314 315 318 318 320 320 325 328 333 331 334 333 329 322 319 318 319 318 316 316 319
316 314 313 312 313 311 309 311 310 311 311 307 308 308 310 312 313 313 309 314 312 311 314 311 312 313 317 316 318 320 323 326 327 330 330 332 334 330 326 320 318 318 318 317 317 319 320
316 316 313 313 311 311 306 307 310 311 311 310 307 309 311 312 313 313 313 313 313 311 312 314 314 313 317 317 322 323 324 326 326 329 331 333 332 328 324 319 321 318 317 318 321 320 319
315 315 313 312 309 310 306 305 306 307 309 308 309 310 312 312 312 315 316 313 312 314 318 315 316 316 318 321 324 321 321 326 327 328 330 329 321 326 325 321 317 319 317 320 322 320 322
314 314 315 312 310 308 307 305 304 305 307 309 309 310 313 312 315 314 315 314 313 313 324 315 317 317 319 322 323 321 319 324 329 327 324 329 322 324 322 320 316 319 320 320 319 318 318
314 314 315 315 312 308 308 306 305 305 307 309 311 310 314 314 315 314 314 315 314 322 324 320 320 323 317 322 321 320 323 322 325 323 320 320 316 317 318 318 318 318 318 316 315 316 321
316 315 314 315 315 311 309 306 305 305 307 308 310 312 311 315 316 315 315 316 321 328 319 324 323 321 321 323 323 324 325 327 328 325 324 320 314 312 315 315 314 315 317 322 324 323 324
315 316 314 314 315 315 310 307 306 306 307 307 310 312 312 312 315 316 315 322 330 324 324 322 322 321 324 322 322 323 324 324 320 316 318 321 320 313 312 316 316 315 317 322 329 326 325
315 316 316 314 315 315 313 309 307 307 307 307 310 314 312 312 315 316 319 329 328 325 322 323 322 324 326 324 322 322 323 321 319 317 321 319 319 314 314 313 315 316 319 318 322 320 322
315 315 316 315 315 315 315 311 309 309 308 308 312 314 317 317 316 316 326 329 327 323 320 323 326 324 328 322 321 322 321 323 327 321 321 319 319 317 314 314 313 316 314 320 318 326 325
314 314 316 316 314 314 315 314 310 310 308 312 314 316 316 314 316 322 329 328 327 320 323 328 327 326 322 322 320 323 326 325 326 324 322 319 319 321 316 317 317 315 315 314 315 317 322
313 314 315 316 315 314 315 315 313 310 308 312 312 318 315 315 320 319 326 327 324 326 324 326 321 321 325 328 326 327 327 326 322 324 326 324 319 321 322 317 315 315 316 314 317 319 315
313 313 314 316 315 314 315 315 314 311 309 310 313 317 316 317 325 321 321 322 323 325 324 327 328 326 325 327 328 325 324 322 321 324 324 323 323 324 326 321 319 321 318 315 315 315 320
312 312 313 314 314 314 315 315 316 312 308 311 312 318 314 311 312 319 321 322 323 321 322 321 323 324 324 324 322 324 324 322 319 320 319 319 319 322 326 323 319 322 322 317 316 318 317
312 312 312 313 314 313 315 315 316 313 308 312 309 313 314 318 315 315 316 319 320 321 320 319 322 322 324 324 322 323 321 320 319 318 317 316 319 318 317 317 316 319 319 319 319 317 318
312 311 311 312 313 313 315 315 316 311 310 311 312 312 310 312 313 314 313 316 317 316 318 321 319 316 317 319 319 323 321 320 322 318 318 315 317 314 312 312 313 313 312 312 314 317 317
311 311 310 311 312 313 315 315 316 312 312 308 309 309 307 311 311 313 314 314 315 315 314 312 316 314 312 311 310 311 313 314 316 317 316 314 312 311 311 313 314 317 315 312 310 309 310
311 310 310 310 311 312 314 315 316 314 310 311 311 309 308 313 312 313 314 312 313 312 314 310 311 312 311 307 307 308 307 310 310 310 311 312 311 311 313 315 321 317 313 313 313 314 312
310 309 309 310 311 312 313 314 315 315 309 309 311 308 307 310 310 311 310 309 308 307 308 308 306 305 304 308 310 314 314 315 313 312 311 308 310 313 316 317 316 317 316 317 318 317 314
309 309 309 310 311 311 313 314 314 316 313 311 310 312 307 309 310 310 309 308 308 307 307 306 305 304 308 310 315 319 319 318 316 316 310 308 308 312 308 315 320 316 315 313 313 314 314
308 308 309 309 310 311 312 313 313 315 314 314 311 312 312 310 309 310 309 310 306 306 307 306 306 307 307 312 317 316 320 313 318 317 314 311 310 313 314 315 314 312 312 313 317 312 312
308 308 308 308 309 309 311 311 313 315 315 315 313 312 314 310 311 310 310 309 308 308 313 307 311 310 309 315 316 313 315 312 313 312 313 313 312 312 312 314 314 312 314 318 311 310 309
307 307 307 308 308 308 309 311 312 314 315 315 314 311 314 311 312 312 312 311 309 310 306 305 312 308 309 311 310 308 312 308 310 316 310 316 314 315 313 312 311 309 310 309 308 308 308

GFSGBSN_925_thetae_003.txt.gz
Theta_e
318 317 316 314 313 312 312 312 311 311 311 311 312 312 312 312 311 310 312 313 313 314 314 314 314 314 313 314 313 315 316 318 317 321 326 330 322 322 325 323 324 325 324 324 322 322 320
319 317 316 315 314 312 312 312 312 312 311 311 311 311 311 312 311 312 311 311 311 313 313 313 312 313 312 312 311 311 312 316 320 320 329 330 322 321 324 324 325 324 324 323 319 318 318
318 317 316 316 314 312 311 311 312 312 312 312 311 311 310 309 311 312 311 311 312 312 310 311 313 311 312 312 311 312 311 313 319 320 330 331 325 324 323 327 323 322 323 320 319 320 319
317 316 316 315 314 313 311 312 312 312 312 312 310 311 310 309 311 311 311 311 311 310 310 310 313 311 312 311 311 311 314 314 319 323 329 330 326 324 325 323 317 319 319 322 319 319 318
315 314 315 314 314 314 312 312 312 312 310 312 312 311 310 311 311 309 308 309 311 311 310 310 311 311 313 311 311 310 312 316 318 322 328 328 324 325 325 325 324 320 321 320 318 316 318
316 314 313 314 314 315 313 311 311 311 312 311 306 308 310 311 313 312 310 310 310 310 309 309 310 311 311 312 312 312 311 314 322 321 328 329 328 327 324 327 337 324 322 319 318 317 318
316 316 315 314 313 313 313 311 310 311 311 310 308 308 308 310 313 313 311 309 309 311 310 312 313 313 312 312 313 313 312 314 321 324 331 331 332 333 329 326 325 320 319 319 315 314 316
315 315 316 314 313 313 312 310 311 311 312 311 309 307 308 311 313 312 312 310 311 310 313 311 311 312 312 315 318 315 314 318 323 325 328 332 333 329 327 323 319 319 319 319 317 317 316
314 315 315 314 313 313 312 308 308 310 311 311 309 309 310 312 313 312 309 309 310 311 314 312 311 313 313 315 317 319 318 321 321 325 330 331 329 330 329 328 323 319 320 319 318 318 317
314 314 315 315 314 311 309 309 308 307 309 308 309 309 312 313 312 313 313 311 310 312 313 313 315 314 313 314 318 319 319 322 322 323 328 331 326 331 329 326 328 331 317 318 318 320 322
315 315 315 315 315 314 309 308 308 305 306 308 309 311 312 313 315 314 313 312 312 313 312 314 315 314 316 316 319 320 320 324 323 323 328 328 327 330 333 329 319 325 316 317 318 318 317
316 315 315 314 315 315 314 309 308 306 305 307 308 311 312 314 314 313 314 313 312 318 323 318 316 316 318 318 320 321 323 321 321 325 321 321 322 328 328 322 315 317 316 315 315 315 320
316 316 316 316 314 315 315 313 308 307 306 307 308 310 312 314 315 314 313 315 319 325 315 321 317 317 318 321 323 325 327 328 326 328 328 317 317 315 314 315 315 315 317 322 323 323 323
316 316 316 316 315 315 315 315 311 308 309 309 310 311 312 313 316 314 314 316 323 321 320 319 320 318 319 322 324 327 327 328 324 322 324 321 325 312 311 315 315 314 318 321 326 325 321
315 315 316 316 316 315 315 315 314 310 310 310 310 313 313 313 313 314 316 319 327 324 322 321 319 320 324 323 325 326 325 325 322 320 324 319 319 313 312 312 314 314 318 316 321 319 321
315 315 315 315 317 316 314 315 315 313 311 309 311 312 314 315 313 315 320 327 326 321 320 319 323 323 326 323 325 324 324 322 320 315 316 316 316 315 313 312 311 314 313 320 317 326 325
314 314 314 315 317 316 314 315 315 314 310 311 312 315 314 314 315 319 328 326 322 320 322 323 322 324 322 322 322 324 324 322 323 322 320 315 315 319 314 316 315 312 313 312 315 316 320
314 314 314 314 316 316 314 315 315 314 309 310 310 318 314 315 322 321 326 327 320 321 324 326 322 319 319 318 320 324 324 323 322 322 325 321 316 318 318 316 313 313 313 312 316 317 313
314 313 313 314 315 315 314 315 315 315 310 309 311 317 314 314 325 323 324 325 324 326 325 325 320 319 323 321 327 323 323 321 322 322 324 321 320 323 324 320 317 319 315 312 312 313 315
314 313 313 313 314 314 314 314 315 315 310 310 311 318 314 316 313 321 321 325 325 322 322 321 324 323 323 323 321 323 324 320 319 320 319 318 318 319 322 322 318 320 318 314 315 316 315
313 313 313 312 313 313 314 314 315 315 309 311 307 312 313 315 315 317 317 321 324 324 321 320 324 325 324 324 322 322 321 319 318 317 316 315 319 317 315 315 317 319 320 315 315 314 316
313 313 312 312 312 313 313 314 315 315 310 311 311 312 309 311 312 314 314 316 317 315 322 323 324 320 322 323 320 323 320 321 322 317 317 312 316 313 311 311 311 313 313 317 317 317 315
313 312 312 311 311 312 313 314 314 314 310 307 308 308 308 311 311 313 314 315 315 313 312 315 316 315 317 312 309 311 311 311 313 316 314 311 310 310 312 312 314 314 312 310 309 309 310
313 312 311 311 310 311 312 313 314 314 309 311 311 308 308 312 311 312 313 312 314 312 313 310 310 312 309 306 306 310 310 311 311 310 309 310 309 309 311 314 318 314 313 312 312 313 310
312 312 311 310 310 311 312 313 314 314 309 309 310 307 306 310 309 310 310 308 307 306 307 307 306 304 305 307 312 314 315 313 313 311 309 308 310 313 318 316 315 317 315 313 316 317 313
312 312 310 310 310 311 312 313 313 314 312 310 310 311 304 309 310 309 309 308 308 307 307 306 304 303 306 310 314 316 317 315 316 315 309 309 308 314 311 318 322 316 314 312 311 318 312
312 311 310 310 310 311 311 313 313 313 313 314 311 312 309 308 308 308 308 309 305 306 306 305 306 307 307 312 316 313 318 313 317 316 313 311 311 314 316 317 315 312 312 312 317 312 310
313 310 309 309 310 310 311 312 313 313 314 315 312 312 312 308 309 310 310 308 307 307 312 306 310 309 308 315 316 315 315 312 313 311 311 312 311 313 312 316 318 311 313 316 310 308 307
312 310 309 309 309 309 310 311 311 313 315 315 313 311 313 309 310 311 311 309 308 309 304 303 311 307 308 310 309 308 312 308 311 317 309 317 313 314 312 312 310 309 309 307 306 307 307

GFSGBSN_925_thetae_006.txt.gz
Theta_e
319 319 317 316 316 314 312 312 312 312 312 311 311 312 312 312 312 312 312 312 313 314 314 312 313 312 313 313 312 315 314 314 318 319 322 327 323 321 325 323 323 324 324 323 321 321 321
317 318 318 316 316 315 313 312 312 312 312 312 312 312 311 311 312 312 312 311 310 312 311 311 313 312 312 314 310 310 311 311 317 318 321 325 325 320 322 323 324 323 324 323 322 321 318
317 316 316 316 316 315 314 311 312 312 312 312 312 312 312 311 311 311 312 311 311 313 312 310 310 311 312 311 310 311 312 311 312 319 320 324 328 323 322 326 322 324 325 322 319 319 320
317 316 314 313 315 315 314 312 312 312 313 312 313 311 310 311 310 310 311 312 312 312 310 310 310 311 310 310 309 310 311 313 311 318 319 327 328 323 324 321 317 321 319 323 321 318 318
316 316 316 313 313 315 315 314 312 312 312 312 312 309 311 311 311 312 311 308 311 310 311 309 310 310 311 310 310 310 310 311 317 319 322 325 325 326 325 325 323 319 324 319 319 316 317
315 316 317 316 314 314 314 314 313 312 312 312 312 310 309 309 311 311 312 310 309 309 309 309 309 309 308 311 311 310 309 310 317 319 321 328 328 328 326 326 335 327 323 320 319 318 316
314 315 315 316 313 314 311 314 313 312 312 312 310 309 308 309 310 313 313 311 308 308 309 310 309 310 311 309 312 311 311 311 316 319 326 328 332 333 328 329 325 322 320 323 317 315 315
314 314 314 315 315 313 312 313 312 311 312 312 310 311 309 310 312 313 312 309 307 309 310 309 311 309 310 311 315 313 312 316 320 316 324 332 332 328 325 325 327 320 321 319 318 316 315
314 314 314 315 315 315 312 312 311 311 311 311 309 309 309 311 313 313 310 308 309 310 312 311 310 312 312 312 314 314 314 317 319 314 324 329 330 327 328 324 326 321 322 322 322 316 316
315 314 315 315 315 315 314 312 310 311 310 310 307 308 310 313 313 313 311 310 310 308 313 313 311 312 313 312 315 314 314 318 319 315 323 330 327 330 329 329 327 331 319 320 319 319 321
316 316 316 316 315 315 315 315 312 310 310 309 308 308 310 313 313 314 313 310 309 310 314 311 312 311 313 314 315 317 314 317 320 319 325 329 329 331 331 330 326 330 319 320 319 317 316
315 316 316 316 316 315 315 315 315 312 309 308 308 307 310 312 313 313 313 311 311 316 317 314 315 314 315 314 317 317 319 320 319 321 323 323 323 327 330 326 323 320 318 316 314 314 320
315 316 316 316 316 316 315 315 315 314 310 309 309 309 310 311 315 313 312 311 315 319 313 317 315 315 316 317 318 319 318 320 323 325 326 319 327 320 323 320 316 318 320 326 324 322 323
315 316 315 315 315 316 316 315 315 315 313 310 310 311 311 311 314 311 312 312 320 318 315 316 316 315 317 317 320 319 322 326 323 319 324 326 328 316 314 324 323 320 319 321 327 324 321
315 316 315 315 315 315 317 315 314 315 315 312 311 311 311 312 314 311 311 317 320 320 318 320 317 316 318 319 322 323 323 324 323 318 322 325 325 311 312 312 321 315 320 316 319 317 321
316 315 314 314 314 315 317 316 314 315 315 312 310 310 312 312 314 312 314 318 321 321 318 317 318 318 324 321 324 322 324 325 324 318 315 316 315 314 311 311 310 314 313 320 317 327 326
316 315 314 314 314 314 316 316 314 315 314 310 310 312 314 314 315 316 318 316 323 319 317 320 321 320 322 320 323 322 323 322 321 316 315 312 314 317 312 314 313 312 314 312 315 316 321
316 315 314 314 314 314 316 314 314 315 313 309 309 317 314 314 319 321 320 326 320 322 323 324 321 321 321 319 323 324 325 321 319 320 321 317 313 316 317 315 311 311 312 313 318 317 312
316 315 314 313 313 313 314 314 314 314 313 308 310 318 314 314 325 325 324 323 322 323 325 325 320 320 317 320 326 325 325 320 320 321 321 318 318 321 324 320 317 316 313 310 311 311 313
315 315 314 313 313 313 313 313 313 314 313 309 312 319 318 316 317 320 324 323 326 322 324 322 320 319 321 322 321 322 323 320 319 320 320 319 317 318 323 321 317 319 315 312 314 315 314
316 315 313 313 313 312 312 313 313 314 312 310 307 315 315 318 317 317 320 324 326 325 322 320 323 320 321 323 321 322 320 318 317 319 316 317 319 316 313 316 317 317 317 313 314 315 318
316 314 313 313 313 312 312 312 313 314 310 309 310 311 309 310 312 315 315 318 319 317 320 324 323 320 319 323 321 322 319 320 320 316 316 313 316 313 311 311 312 316 317 313 314 313 314
315 314 313 312 312 311 311 312 312 313 309 306 306 307 309 311 311 314 316 316 316 314 314 315 318 319 315 314 310 312 310 310 314 316 314 311 311 313 315 312 313 313 310 315 313 312 313
315 314 313 312 311 311 311 312 312 312 310 310 309 307 308 313 312 312 313 313 313 312 315 310 311 317 309 306 308 310 311 311 310 309 308 309 309 309 309 313 312 311 312 308 310 311 310
315 314 313 312 311 310 310 312 313 312 312 308 309 307 306 310 308 309 310 308 306 306 308 308 306 305 305 308 315 321 316 317 312 309 308 307 310 312 314 312 313 317 312 313 315 316 313
314 315 313 312 311 310 310 312 313 312 313 309 310 310 303 308 309 308 308 308 308 306 306 305 304 303 307 312 314 321 325 321 315 314 308 309 308 312 309 316 318 315 313 311 313 319 312
314 315 312 311 310 310 311 311 313 313 313 312 310 311 306 307 307 307 307 308 304 305 305 304 306 307 307 313 316 317 317 313 315 314 312 311 311 313 317 317 315 312 312 311 318 315 311
312 314 312 311 310 310 310 311 313 313 313 313 312 311 310 306 308 309 308 307 306 306 308 304 309 308 309 315 316 314 314 312 313 312 310 311 311 312 313 316 318 310 312 315 310 307 307
310 314 312 311 309 310 310 310 311 312 314 314 312 311 311 306 309 310 310 308 307 307 303 303 309 307 308 310 310 309 312 308 311 317 309 315 311 312 312 313 310 308 310 307 306 306 306

GFSGBSN_925_thetae_009.txt.gz
Theta_e
318 317 317 318 316 316 315 313 312 313 312 312 312 311 312 312 312 312 312 312 313 314 315 315 314 312 313 314 313 315 314 313 316 320 319 322 327 323 329 325 322 322 323 322 320 321 321
317 317 316 316 316 316 315 314 312 312 312 313 312 312 312 311 311 312 312 312 312 313 314 313 312 312 312 314 310 311 311 311 312 318 319 321 327 320 323 324 327 323 324 324 323 324 320
316 317 316 314 314 315 315 314 312 312 312 313 312 313 313 311 312 311 311 312 312 312 313 313 310 311 312 312 309 310 310 310 310 314 318 321 324 322 322 324 321 323 326 323 322 322 323
315 316 317 315 314 314 314 314 313 311 313 313 313 313 312 311 311 312 311 312 312 312 312 312 310 311 311 310 310 310 310 311 312 310 316 318 322 325 323 320 321 325 322 330 324 318 318
315 315 316 316 316 315 315 315 315 313 312 313 313 312 311 309 310 311 312 312 311 311 311 310 310 310 311 308 310 308 309 309 313 315 317 318 321 328 325 324 322 322 330 325 326 319 320
314 314 315 315 316 315 315 313 314 313 312 312 312 312 312 308 309 310 312 312 309 310 310 309 309 310 309 311 310 310 309 309 312 318 320 322 325 330 328 328 334 324 327 321 322 318 316
314 314 314 314 315 315 313 314 314 313 312 312 311 311 310 308 309 310 311 313 309 310 309 309 310 309 311 308 310 310 310 310 311 319 319 322 329 333 329 329 325 321 324 325 322 316 316
313 314 314 314 314 315 315 314 313 313 312 312 310 310 310 309 310 312 313 309 307 307 309 308 309 309 309 311 314 312 310 311 314 320 317 324 329 328 326 326 324 321 323 322 319 315 316
314 314 314 314 314 315 315 314 313 310 311 311 310 309 309 308 312 313 313 311 308 310 310 310 308 311 311 309 312 314 311 313 318 316 318 324 328 327 327 328 330 324 324 322 324 318 316
314 314 315 315 315 315 315 315 315 312 310 310 309 309 308 309 312 313 312 310 308 307 311 313 309 309 311 312 313 311 311 314 318 316 316 325 326 328 329 328 328 331 320 323 321 325 329
313 314 315 316 316 315 315 315 315 315 311 310 309 308 308 310 313 313 312 309 307 307 316 312 310 310 312 312 313 314 312 314 319 314 319 327 331 328 330 329 325 329 323 325 322 321 316
312 314 315 316 316 316 316 315 315 315 314 311 310 308 309 310 312 311 313 310 310 313 315 314 313 314 314 313 314 314 314 315 319 315 318 325 324 328 328 325 326 315 320 320 316 316 322
312 313 314 315 316 315 316 316 315 315 315 314 311 309 309 309 314 312 311 310 313 316 312 315 315 314 313 313 315 315 315 316 319 319 319 324 329 326 327 323 319 320 327 332 328 324 326
313 313 315 316 315 315 315 316 316 315 315 315 314 311 311 310 310 311 311 312 317 317 312 313 314 313 315 314 317 316 316 316 319 319 317 328 333 322 324 324 324 326 327 329 331 326 323
313 314 315 315 314 314 315 315 317 315 314 315 313 310 310 310 312 311 310 314 316 317 311 316 314 314 317 315 318 317 317 316 319 318 319 324 325 316 317 317 323 320 328 318 319 316 322
313 314 315 315 314 314 314 315 317 314 315 314 310 309 311 311 312 309 309 316 316 313 315 314 313 314 315 317 317 318 317 319 322 320 315 320 318 314 310 314 311 320 318 326 319 327 327
312 314 315 314 314 314 314 314 316 314 315 313 310 310 314 313 309 311 314 314 316 318 314 314 317 316 316 317 317 319 318 323 323 320 313 311 314 315 311 314 314 316 321 316 317 318 324
313 314 315 314 314 313 313 314 315 314 315 309 306 318 314 311 315 313 316 317 317 318 317 317 317 320 318 317 316 323 322 323 322 318 315 312 313 315 315 314 311 312 316 317 321 318 313
314 313 315 315 314 313 313 313 314 314 315 309 309 317 314 313 318 317 317 320 321 321 322 322 320 319 317 319 324 324 323 320 319 319 318 315 316 321 322 318 316 314 310 312 312 312 314
311 314 314 315 314 313 313 313 313 314 314 310 311 322 317 314 317 320 324 322 323 322 324 323 318 318 318 321 321 324 325 320 320 320 319 317 316 319 323 320 316 318 312 310 315 316 315
308 314 314 315 313 313 313 312 313 313 314 310 308 312 317 320 319 319 322 322 324 324 323 321 322 319 321 322 322 322 322 319 318 320 316 317 320 316 312 317 316 317 316 312 314 316 319
306 311 314 315 313 313 312 312 312 313 313 308 309 309 308 312 312 319 319 324 323 321 320 323 322 319 320 323 321 321 319 321 320 315 317 314 317 312 312 312 315 318 316 314 313 312 313
305 307 315 315 313 313 312 311 311 313 312 306 306 306 308 312 312 317 318 319 320 317 318 314 318 318 320 315 312 314 315 314 318 315 314 317 312 314 316 311 312 316 313 314 314 311 314
304 306 312 315 313 312 311 311 311 313 312 308 307 306 309 315 312 313 313 314 318 316 321 310 311 315 310 306 308 309 310 310 314 308 308 313 312 311 311 311 315 314 311 312 314 310 309
303 306 309 315 313 312 311 310 311 313 312 311 308 307 306 310 310 310 311 309 307 308 309 308 307 305 306 310 320 322 321 315 312 308 308 307 310 312 314 312 312 315 311 311 314 314 310
303 304 308 314 313 312 311 310 311 312 312 312 308 309 302 308 309 307 308 307 309 307 308 306 304 304 309 314 316 325 327 322 315 313 308 309 309 315 312 315 316 314 313 310 313 317 312
302 305 306 314 313 312 310 310 311 312 312 312 310 309 304 307 306 306 307 308 304 304 307 305 306 309 309 316 316 317 319 313 316 315 313 312 311 313 317 315 314 312 312 310 318 316 311
300 302 304 312 312 311 310 310 311 312 313 312 311 310 308 307 308 309 307 305 305 304 308 304 309 308 311 318 319 315 316 312 313 310 310 313 313 313 313 315 316 310 312 315 311 307 307
300 302 303 311 312 311 310 310 311 312 313 313 311 309 310 306 308 308 308 307 306 306 302 302 308 306 308 311 309 309 311 308 312 317 309 314 310 312 312 313 309 308 310 306 306 306 306

GFSGBSN_925_thetae_012.txt.gz
Theta_e
317 318 317 316 316 317 316 315 313 313 313 313 313 312 312 312 310 311 311 312 312 314 314 315 314 314 315 316 315 315 313 313 315 319 320 319 326 328 332 331 329 328 327 326 326 325 325
316 317 317 316 315 315 316 316 314 312 313 313 313 313 312 312 312 308 308 310 312 312 313 313 314 313 313 314 312 312 314 313 312 317 320 318 324 324 328 330 331 328 328 327 327 327 327
315 317 316 317 315 313 314 315 314 312 312 312 314 313 313 312 311 311 309 310 312 312 311 313 313 313 313 313 310 310 310 311 312 313 318 318 320 326 326 330 328 329 329 329 328 328 328
314 315 316 316 316 316 313 313 314 313 312 312 313 314 313 312 311 310 311 312 312 312 311 312 312 312 312 310 311 311 311 311 312 311 316 317 319 323 326 326 329 330 331 333 328 328 328
314 316 315 315 316 316 316 314 313 315 314 312 313 313 312 311 308 308 309 312 312 311 310 311 311 311 312 309 310 310 310 310 313 312 312 315 318 323 327 327 330 332 334 332 329 327 327
314 315 314 314 315 315 315 315 315 312 315 313 312 312 312 312 309 308 308 312 313 310 310 310 310 312 310 310 310 309 310 309 310 315 315 318 318 326 330 329 334 331 331 329 331 326 322
313 313 313 314 314 314 315 315 314 312 314 313 311 311 311 311 310 309 309 312 309 310 309 310 310 309 310 310 311 310 310 310 311 315 318 319 321 324 329 330 327 325 327 329 327 324 323
313 312 313 314 314 314 315 315 314 312 312 312 310 311 310 310 311 309 311 310 309 309 312 309 309 309 311 310 313 311 311 311 313 314 316 319 323 322 327 328 326 329 328 328 326 321 322
313 312 313 314 314 315 315 315 315 314 311 311 311 310 310 310 309 310 313 313 310 307 310 310 309 310 310 309 312 313 312 311 312 314 314 320 319 322 328 329 328 328 327 327 328 325 325
313 313 313 314 315 315 315 315 315 315 314 310 310 309 309 309 310 313 313 311 308 307 310 311 311 309 311 311 313 310 311 310 314 315 316 318 319 324 329 329 328 331 327 327 328 331 334
312 313 313 314 314 316 316 315 315 315 315 314 310 309 309 308 312 312 311 310 306 307 317 312 311 309 310 311 312 312 312 311 314 317 315 319 318 327 330 330 326 329 327 328 329 330 328
312 312 312 313 314 315 316 316 316 315 315 315 312 309 308 310 311 311 311 308 306 312 316 314 312 312 313 312 311 313 314 311 315 317 316 316 322 321 329 327 327 324 325 326 325 325 333
313 312 312 312 313 315 315 315 315 316 315 315 314 311 309 310 312 312 309 308 313 317 312 316 315 314 312 312 312 314 315 315 316 321 321 317 324 326 327 329 322 326 330 336 336 335 333
313 312 312 312 314 315 315 314 315 316 315 315 315 313 311 310 311 312 309 311 318 316 315 313 314 313 314 313 313 316 314 314 315 318 318 321 332 330 328 328 326 326 329 331 334 333 330
309 313 313 313 314 315 314 314 315 316 316 314 315 313 312 312 311 311 310 315 317 317 313 315 314 315 314 314 314 316 314 313 315 316 319 322 327 324 327 323 324 327 331 323 324 322 327
306 312 312 313 314 315 314 314 314 315 315 315 312 310 310 310 311 311 309 316 315 314 311 315 314 313 315 315 317 315 314 312 314 316 318 319 323 321 318 323 317 327 326 328 325 331 330
305 309 313 313 314 315 314 314 314 315 314 315 311 312 313 311 310 309 313 315 315 314 312 314 312 314 313 315 316 316 315 317 315 318 319 320 322 317 318 325 327 328 329 328 325 324 329
304 306 313 313 314 315 314 314 314 315 314 310 312 318 313 311 312 311 313 314 314 316 314 314 314 313 313 315 315 319 317 320 315 319 322 319 321 327 321 316 319 325 326 326 330 326 322
304 305 309 313 314 315 313 313 313 314 314 308 313 316 311 311 317 315 313 315 314 317 316 314 317 315 314 315 318 317 320 317 318 321 322 318 322 325 325 321 316 325 323 327 324 320 325
304 304 306 313 314 315 314 313 313 314 314 311 313 320 316 315 316 317 317 318 319 319 318 319 320 320 317 316 318 318 324 321 321 321 321 317 321 322 326 324 323 324 323 325 327 328 326
305 304 305 309 314 315 313 313 313 313 313 310 312 318 316 318 316 317 318 319 322 323 321 322 322 321 319 320 322 324 324 322 322 322 320 321 323 321 320 320 321 321 322 320 323 325 326
304 303 305 306 313 315 313 313 312 313 313 310 313 314 313 318 318 319 317 322 322 322 322 323 324 321 320 322 322 325 324 323 324 322 322 319 323 318 318 318 320 321 320 321 323 324 323
303 302 304 306 309 314 313 312 312 312 312 310 308 308 312 315 315 320 321 320 322 321 319 318 321 321 321 321 320 321 322 322 322 322 322 322 321 320 324 316 318 322 321 320 320 320 320
301 303 303 305 307 313 313 312 311 312 313 310 308 310 313 317 314 318 317 320 320 321 323 312 315 320 314 309 313 318 319 316 320 315 320 322 322 319 318 317 326 321 314 319 320 320 318
301 301 303 304 306 312 313 312 311 311 313 312 309 311 313 317 314 312 313 315 313 311 312 310 308 308 310 313 320 321 319 321 315 312 314 319 322 324 321 320 319 315 314 315 319 321 316
301 302 301 302 303 310 312 311 310 311 313 312 311 308 308 312 314 309 310 315 316 313 311 308 306 306 314 316 325 328 329 325 319 318 310 312 320 325 318 321 325 317 315 313 315 319 314
300 301 301 302 303 306 312 311 310 310 313 312 310 308 308 311 310 308 312 313 310 312 311 308 309 312 314 320 322 326 324 318 322 322 321 318 317 322 323 326 319 315 314 314 319 321 314
299 300 301 302 303 305 312 311 310 311 312 312 311 309 310 311 312 310 308 307 306 311 315 308 315 313 316 323 322 319 320 320 316 315 317 318 321 320 322 325 323 313 313 318 317 314 314
299 299 300 301 303 304 312 311 310 311 312 312 311 309 309 310 312 308 308 307 306 307 307 305 316 313 317 318 318 316 317 314 317 318 311 318 319 317 318 318 313 311 313 311 313 313 311

GFSGBSN_925_thetae_015.txt.gz
Theta_e
317 316 317 318 317 316 317 317 315 314 313 314 314 314 313 312 313 313 313 311 310 312 315 315 314 314 315 317 317 317 314 314 317 321 321 321 319 323 327 329 331 330 328 327 327 327 327
317 316 316 317 317 316 315 316 317 315 313 313 313 314 313 313 313 312 310 310 311 309 311 314 314 313 315 316 313 314 315 315 314 318 320 320 319 320 323 326 329 329 329 328 327 327 327
318 315 315 316 316 317 315 313 315 316 313 312 313 314 312 313 313 313 312 312 312 309 307 310 313 314 314 313 311 312 312 312 313 313 318 319 319 321 324 326 325 328 330 328 328 328 328
317 315 315 315 316 316 316 316 313 315 314 313 313 313 314 313 312 312 312 313 311 312 309 310 312 313 314 311 312 312 312 312 311 312 313 317 318 319 323 326 326 328 331 334 329 328 327
316 314 316 316 315 315 316 316 316 314 314 315 314 313 313 312 310 310 310 310 312 311 313 312 311 312 313 311 311 311 311 312 312 313 312 314 318 320 323 328 331 330 334 333 332 328 328
315 315 315 315 314 314 315 315 316 315 315 314 315 312 310 312 311 310 309 309 313 313 311 311 310 312 311 312 311 311 311 311 311 312 313 315 318 321 323 329 334 333 333 329 332 328 329
315 315 315 313 313 314 314 315 315 315 314 312 314 312 309 310 311 312 309 311 310 310 311 312 312 311 311 310 311 311 310 311 311 312 316 315 320 322 322 323 326 327 330 330 329 327 328
315 314 314 313 313 314 314 314 315 315 314 311 313 312 310 310 310 311 311 312 311 310 312 310 311 311 310 311 313 312 311 312 312 314 313 316 320 319 319 322 327 331 329 329 327 327 326
313 312 312 313 312 314 314 314 315 315 315 313 312 311 309 310 310 311 311 311 311 309 311 310 310 311 310 311 311 313 312 312 312 313 313 316 317 318 318 322 329 330 330 327 328 327 325
315 312 312 313 313 314 315 315 315 315 315 315 312 311 309 310 310 310 313 312 312 310 310 312 312 311 310 310 312 310 312 312 312 313 312 314 315 314 319 322 325 333 327 327 328 330 332
312 314 312 313 313 313 314 315 316 315 315 315 314 310 309 309 313 313 311 311 309 308 320 313 312 309 310 311 312 311 310 313 313 313 313 317 316 316 322 323 328 330 327 327 329 331 332
307 308 313 313 312 313 313 315 316 315 316 315 315 311 310 311 310 312 311 308 308 312 319 315 311 312 312 313 312 312 312 312 312 312 314 314 313 318 321 323 325 328 328 329 328 329 333
303 305 309 313 312 312 312 314 315 315 315 316 315 314 310 310 311 312 309 308 313 317 313 316 314 313 314 314 313 313 313 314 316 316 318 315 315 318 322 329 328 330 331 335 335 336 331
304 304 305 309 313 312 312 314 315 315 315 316 315 315 311 309 311 311 308 310 317 316 315 313 313 313 315 313 313 312 314 315 313 314 318 319 322 317 321 326 327 329 331 330 331 331 329
303 305 305 305 310 313 312 314 315 314 315 316 315 315 313 311 311 309 309 313 317 317 314 316 315 317 317 313 312 313 313 315 314 313 320 322 323 322 325 326 325 327 332 325 328 327 330
304 306 305 306 307 313 313 314 314 314 315 315 315 311 311 313 311 311 310 314 316 315 313 314 316 314 314 313 314 314 318 315 313 312 313 318 325 321 325 325 323 328 328 330 328 331 331
304 305 305 305 310 312 313 315 314 314 315 315 311 312 314 312 312 310 312 314 315 314 313 315 316 315 313 315 315 316 315 314 312 312 314 318 316 320 323 329 329 329 331 329 328 328 331
304 303 306 305 305 313 313 315 313 314 315 314 312 315 313 311 313 310 312 312 313 315 314 314 316 313 313 313 316 316 315 313 312 314 319 321 324 325 324 321 325 326 329 328 330 329 327
303 303 305 304 304 309 314 314 313 314 314 309 313 316 312 311 315 314 311 313 313 315 315 316 314 313 313 315 316 317 316 314 316 314 321 321 323 331 328 323 321 328 326 328 328 328 329
302 303 305 304 305 306 314 314 313 314 314 311 313 320 313 313 313 315 314 315 315 315 316 315 315 314 314 316 315 316 318 317 318 315 321 320 322 325 328 326 326 329 328 327 327 329 328
301 303 303 303 304 307 312 314 313 313 314 313 312 318 315 317 316 315 316 316 319 322 316 316 320 317 316 316 316 320 317 319 318 318 319 322 324 323 322 323 324 326 327 327 328 328 328
301 302 303 303 303 305 308 314 313 313 313 310 314 314 317 318 315 317 316 317 317 318 319 323 321 320 318 318 316 321 320 322 322 322 322 321 325 322 323 322 322 324 324 325 326 327 327
300 301 302 303 304 305 306 314 313 313 313 311 310 312 314 317 319 320 320 316 319 319 321 321 322 322 321 319 317 321 321 321 322 324 324 322 324 324 325 320 323 325 323 323 323 323 324
299 301 301 302 302 304 305 311 313 312 313 311 309 311 316 315 314 317 319 320 318 320 323 319 320 320 321 316 318 321 319 317 321 323 322 323 324 323 324 321 328 322 318 321 322 322 322
298 300 301 302 301 302 304 310 313 312 312 311 309 310 315 316 316 316 317 320 315 317 318 312 315 311 315 318 323 324 322 321 318 315 321 321 324 326 325 327 327 323 317 319 322 322 321
298 300 300 301 301 303 303 306 312 312 312 311 311 311 312 314 315 312 316 317 317 315 312 310 308 311 316 319 324 327 328 325 323 322 313 321 323 327 326 325 327 319 317 315 319 323 321
297 300 300 301 301 302 303 304 312 311 311 311 311 312 311 314 313 311 314 317 314 314 314 311 313 317 318 322 326 328 328 323 327 326 321 320 324 325 326 327 327 317 315 315 320 323 315
297 299 299 300 301 302 303 304 312 311 311 311 311 311 311 315 315 312 310 310 310 314 317 310 318 318 322 324 324 324 325 321 323 324 324 324 324 326 326 328 328 316 315 319 319 316 315
296 299 299 300 300 302 303 304 311 311 310 311 311 310 309 313 315 310 310 309 308 307 310 307 316 316 321 322 322 320 320 319 321 321 315 325 323 323 323 325 315 315 315 314 316 316 315

GFSGBSN_925_thetae_018.txt.gz
Theta_e
318 317 317 316 318 318 317 316 316 317 315 315 314 314 314 314 313 313 312 312 313 313 315 315 314 314 315 317 317 317 316 314 317 320 322 322 321 320 325 326 328 331 331 328 326 326 326
316 318 317 314 316 317 317 316 315 314 317 316 314 314 315 313 313 313 312 312 313 313 312 313 315 314 315 316 313 315 316 316 315 317 320 321 321 319 320 322 324 328 329 330 328 327 326
316 317 318 316 314 316 317 316 315 314 315 316 314 314 314 312 312 313 313 313 312 313 313 312 314 314 314 313 312 312 313 314 314 314 314 318 319 321 320 321 323 324 328 329 329 328 327
317 316 316 316 314 315 316 316 316 316 313 315 315 313 312 314 312 313 311 311 312 312 313 313 313 314 313 312 312 312 312 312 312 312 313 313 316 319 320 322 325 328 327 331 329 328 327
318 317 315 316 314 315 316 315 316 316 315 314 314 314 312 312 313 312 310 307 308 312 312 312 312 313 312 311 312 312 312 312 312 312 312 313 314 319 320 323 326 328 330 329 330 328 328
318 316 315 314 315 314 315 314 315 316 316 315 313 315 314 311 313 311 310 308 309 311 313 312 311 312 311 312 311 311 311 312 312 312 313 314 315 320 322 322 325 327 331 328 331 329 328
314 317 315 314 314 315 313 314 314 315 315 316 313 312 315 310 311 312 311 309 311 311 311 312 312 311 312 311 311 311 311 311 312 313 314 314 317 320 320 320 321 323 326 330 327 328 328
312 314 316 314 313 314 313 313 314 314 315 315 313 312 313 310 310 311 312 311 312 310 312 311 312 312 311 311 312 311 311 313 313 314 313 315 317 315 316 318 320 323 326 329 328 327 327
310 312 313 315 313 312 313 313 314 314 315 315 314 311 313 310 311 311 312 311 311 310 312 312 311 312 312 311 313 313 312 312 312 313 313 314 315 314 315 316 320 320 326 328 331 329 326
307 310 311 310 314 313 313 313 314 315 315 315 315 312 311 310 310 311 311 311 311 310 312 312 312 312 311 311 312 311 312 313 312 313 312 313 312 313 315 316 317 321 321 325 331 330 333
305 307 308 308 311 313 313 313 314 315 316 315 315 313 311 309 313 313 312 312 311 308 318 313 313 310 311 312 312 312 310 313 314 313 312 314 313 314 316 317 317 321 323 326 328 333 333
304 306 307 307 307 307 312 313 313 314 316 315 315 315 311 310 309 312 311 310 308 313 317 315 311 312 314 312 312 312 312 312 312 313 312 312 313 314 314 315 315 316 322 327 330 332 336
303 305 306 306 306 304 307 313 313 314 315 315 316 315 311 311 311 311 310 308 312 316 313 317 315 313 312 315 313 312 314 313 314 315 315 314 314 313 314 318 316 319 324 331 336 336 332
303 304 305 306 304 304 307 312 312 313 315 315 316 315 313 310 311 310 308 310 314 315 315 313 313 313 315 314 314 314 315 314 312 313 314 315 315 315 314 314 321 323 319 329 336 333 328
302 303 305 306 304 304 306 311 313 313 315 315 316 316 314 311 311 310 311 312 315 317 315 315 314 316 316 314 313 313 314 314 313 312 315 319 318 317 314 313 321 325 320 323 330 322 327
302 303 305 305 306 303 307 312 313 313 315 315 316 315 313 312 311 309 312 315 314 314 314 314 318 315 315 314 314 313 312 312 312 313 312 313 319 320 319 319 319 327 323 332 330 331 332
301 303 303 305 305 303 306 311 313 314 314 315 313 314 313 312 310 311 312 312 314 312 312 315 316 317 314 313 315 313 314 312 313 312 312 312 315 322 321 325 324 325 329 331 329 328 331
300 302 302 304 304 303 305 307 313 314 314 315 312 316 314 312 315 313 313 312 311 313 313 314 314 316 316 314 314 313 314 314 313 312 315 313 316 322 322 321 322 323 329 328 329 330 327
299 301 302 304 303 305 305 308 314 314 314 311 313 315 313 313 316 314 312 310 311 315 315 315 316 315 315 313 316 314 315 315 312 314 315 314 317 326 327 324 327 328 327 328 328 327 329
298 300 302 303 304 304 305 305 313 314 315 313 313 317 314 313 313 314 314 311 313 312 313 315 316 315 314 313 314 317 315 316 316 314 321 320 322 321 331 328 327 330 330 328 328 329 328
297 299 301 303 303 305 305 305 308 314 314 312 312 316 313 315 314 315 312 314 315 315 315 315 316 316 316 315 316 316 316 318 317 315 317 317 327 323 323 326 326 328 328 328 327 327 327
297 298 300 302 303 302 303 305 309 314 314 312 314 313 314 317 314 314 315 315 314 317 318 319 317 320 319 315 316 316 317 319 320 318 316 316 325 324 323 324 325 328 327 327 326 325 324
296 297 299 302 302 302 303 303 305 312 313 311 311 311 313 316 319 318 319 315 316 315 315 316 317 316 321 316 316 317 317 319 321 319 319 321 323 325 322 321 322 324 324 325 325 324 325
296 297 299 301 302 301 303 303 304 312 313 312 310 311 315 317 315 317 319 318 318 316 319 320 320 321 321 317 319 320 319 318 318 320 320 322 323 324 323 321 325 321 317 320 321 321 321
296 296 298 300 301 301 302 303 304 313 313 312 309 311 315 318 316 314 319 318 317 317 320 317 317 315 312 316 323 324 322 323 319 318 319 319 323 327 323 325 324 323 317 319 320 321 319
295 296 298 299 301 301 302 303 304 306 312 312 310 311 311 316 315 312 316 317 318 316 313 312 309 308 313 320 323 325 326 325 324 322 318 321 321 326 324 324 326 319 316 314 317 321 315
295 296 298 299 300 301 302 302 304 305 312 312 311 311 311 314 314 311 313 315 316 315 314 311 311 314 318 321 325 326 327 323 326 325 322 324 324 327 326 326 324 317 315 314 321 321 314
295 296 297 299 300 301 301 302 304 306 312 312 311 311 311 314 314 312 312 311 312 313 316 312 316 317 321 321 324 325 324 322 324 323 320 323 324 326 324 327 326 315 314 319 317 315 314
295 295 297 299 300 300 301 302 304 306 312 311 311 311 311 312 314 310 311 310 309 310 310 310 315 318 321 323 321 320 321 319 320 326 320 324 321 323 323 324 316 313 314 314 315 314 313

GFSGBSN_925_thetae_021.txt.gz
Theta_e
318 317 316 318 318 315 316 318 317 316 315 316 315 314 314 314 314 313 311 311 313 313 313 314 315 314 315 317 317 316 315 315 317 320 322 322 321 319 320 322 323 327 328 328 328 327 326
319 318 317 316 317 316 314 316 317 316 315 315 316 315 314 314 313 312 312 311 310 312 311 311 313 314 314 315 312 313 315 315 315 319 320 321 321 319 319 319 320 323 324 326 328 329 327
317 320 318 317 315 316 314 314 317 317 315 315 316 315 313 312 312 312 313 313 312 312 311 309 312 314 314 313 312 312 313 315 315 314 313 317 320 322 321 320 320 323 326 323 324 328 329
316 318 320 318 316 314 316 314 316 316 316 315 315 315 312 310 314 311 313 312 312 312 310 311 309 313 313 311 311 311 312 312 312 312 312 312 312 317 320 320 320 323 326 327 324 325 328
311 314 316 319 317 315 314 315 316 316 316 316 314 314 313 309 311 312 312 310 308 308 313 311 310 312 312 310 312 312 312 312 312 311 311 312 312 318 319 321 321 323 325 326 326 324 327
307 309 312 314 317 316 314 314 315 315 315 316 316 314 314 313 310 313 311 309 308 310 312 313 312 312 311 311 312 311 312 312 311 311 313 313 312 315 317 321 323 320 324 324 326 324 325
305 307 308 311 314 317 316 314 315 314 314 315 316 315 313 315 310 312 311 310 309 311 312 313 312 310 311 311 311 311 311 311 312 312 314 313 314 316 316 317 317 318 320 322 323 324 327
305 305 306 309 312 314 316 314 314 313 313 314 315 315 312 314 310 311 312 309 311 310 313 312 312 311 311 311 312 311 311 312 312 315 312 313 315 313 315 317 319 319 320 321 321 323 325
303 304 305 305 309 310 311 314 313 313 313 314 315 315 312 313 310 311 311 310 311 311 313 312 312 313 313 312 313 313 312 311 312 313 313 314 313 313 314 315 318 319 320 319 321 323 325
302 303 304 305 307 308 310 314 312 313 313 314 315 315 312 312 311 311 311 310 311 311 313 313 311 312 312 312 313 312 312 312 313 314 313 313 311 312 314 315 314 317 316 318 319 324 330
301 302 303 304 305 307 308 309 312 313 313 314 315 315 312 309 310 310 311 311 311 310 314 311 312 310 311 312 312 312 312 313 314 313 313 313 312 312 313 314 313 315 315 317 318 322 324
300 301 303 304 305 306 307 307 310 313 313 314 315 315 312 308 311 312 311 311 308 313 312 314 311 312 312 313 313 312 311 312 313 315 313 312 311 312 312 311 312 314 315 316 320 323 328
300 301 302 303 305 305 307 306 309 311 313 314 315 315 312 311 310 311 310 308 312 314 311 316 314 312 311 314 314 313 314 315 316 315 315 313 313 312 314 316 313 315 316 316 323 324 326
299 300 302 303 304 306 306 306 308 311 313 314 315 315 312 311 310 310 308 311 313 312 314 313 313 311 314 312 314 314 314 315 314 312 314 312 310 313 312 314 316 316 314 317 319 325 326
299 300 302 302 302 305 306 305 306 309 312 313 315 316 314 311 310 309 310 312 311 312 315 316 314 316 316 314 312 312 312 316 312 311 311 312 313 314 312 312 313 315 316 314 324 325 329
299 299 301 301 302 304 304 303 305 311 312 313 316 316 314 311 310 309 312 314 311 314 314 313 317 315 315 313 313 315 312 311 312 310 310 313 315 312 312 314 313 317 317 319 320 330 333
298 298 300 301 302 304 304 303 303 312 312 314 314 316 314 310 310 312 311 314 313 313 313 315 316 317 316 313 313 313 311 311 311 312 310 312 314 316 312 317 317 319 319 321 322 322 331
297 298 299 301 301 303 303 305 305 311 313 314 313 317 313 310 314 311 313 313 312 313 313 313 313 316 317 315 314 312 312 311 312 312 314 312 314 316 317 320 318 318 320 320 322 330 328
297 298 298 300 301 303 304 304 305 307 312 313 314 316 312 310 314 313 312 312 312 313 313 314 315 314 314 316 316 313 312 314 313 313 314 313 315 316 325 322 322 323 322 324 322 327 329
297 297 298 299 301 303 302 302 304 306 312 313 314 316 315 314 313 315 314 313 313 311 312 314 315 314 315 316 313 315 314 315 313 313 314 312 317 320 327 327 326 326 324 321 323 330 327
297 296 297 299 301 302 301 303 304 307 314 312 313 316 313 315 314 315 314 314 314 313 312 313 315 315 315 315 314 314 315 314 314 316 316 316 319 320 319 321 325 327 325 324 328 327 328
296 295 297 298 300 302 302 302 303 305 313 312 313 314 313 313 313 314 314 315 315 314 315 317 315 316 315 316 314 316 317 316 317 317 314 315 317 323 326 326 325 329 328 326 326 325 325
296 295 297 298 300 301 302 302 303 305 309 312 311 311 314 317 315 315 315 315 315 312 313 315 315 316 316 318 316 316 316 315 318 317 315 317 320 327 323 326 327 330 327 326 326 324 324
296 295 296 297 300 301 302 302 302 305 309 312 311 312 314 318 316 316 317 315 315 315 315 316 314 316 317 316 317 319 320 318 321 321 316 318 321 324 323 319 323 318 318 323 325 323 322
296 295 296 297 299 300 301 302 302 304 305 309 310 312 315 317 317 316 313 317 316 315 317 316 317 312 312 317 321 323 323 323 320 318 318 317 320 326 323 323 320 318 315 318 319 320 317
296 296 295 297 298 300 301 301 303 304 306 310 310 311 312 315 316 313 311 314 315 316 315 315 311 307 315 320 323 322 323 322 325 323 316 320 321 324 321 320 324 318 315 312 315 320 315
296 296 295 296 298 300 301 301 302 303 306 311 311 312 311 314 313 313 313 315 315 314 315 312 312 314 317 321 324 324 325 321 326 326 321 323 324 321 324 325 320 317 313 312 319 318 313
296 296 295 296 298 299 300 301 302 303 305 310 311 312 312 313 314 312 311 310 313 313 315 313 316 316 319 322 323 324 323 321 320 321 320 323 325 326 324 326 322 314 313 317 314 313 311
296 296 295 296 297 299 300 301 302 303 305 310 310 311 312 311 313 311 310 310 309 313 313 311 315 317 319 320 318 321 321 316 319 324 317 323 321 324 320 322 316 313 314 313 312 312 311

GFSGBSN_925_thetae_024.txt.gz
Theta_e
316 318 320 319 318 317 318 316 314 318 317 316 315 316 315 315 314 312 312 310 311 313 311 313 314 313 315 316 317 315 315 315 318 323 323 322 321 320 319 320 321 322 325 326 327 328 327
313 315 317 318 319 317 317 318 315 315 317 316 315 315 315 314 314 312 311 311 310 310 311 310 313 314 314 314 312 314 316 315 317 320 322 321 321 318 319 318 318 319 321 323 324 325 326
308 309 311 315 317 319 316 315 316 314 317 317 315 315 315 312 313 311 312 312 312 311 311 311 312 312 313 311 310 312 312 313 315 316 316 320 321 320 320 320 318 320 322 322 321 322 325
307 308 309 310 313 315 319 316 314 315 314 316 316 316 315 312 311 312 313 312 312 312 311 311 311 312 311 310 310 309 311 311 312 314 313 312 312 313 317 318 318 321 320 324 321 322 323
306 306 307 307 308 311 315 317 315 314 314 316 316 316 314 313 310 313 312 312 308 308 310 311 310 312 309 309 312 310 311 311 311 311 311 312 311 314 317 321 321 320 321 321 324 321 324
304 304 305 305 306 308 313 314 317 314 314 316 315 316 314 313 310 311 312 311 308 308 310 314 312 312 311 311 311 311 310 312 311 311 311 311 311 314 315 319 322 321 318 319 321 322 322
303 303 303 305 306 306 308 312 312 316 313 315 315 315 315 314 313 310 313 310 308 310 312 315 313 310 310 311 310 311 311 311 311 311 313 312 313 315 314 315 316 316 317 318 318 319 321
302 303 303 303 305 305 306 309 310 313 314 314 313 315 316 313 314 311 312 307 309 310 312 311 312 311 310 311 312 312 311 311 312 314 312 314 316 312 311 313 317 318 318 318 317 316 319
299 301 302 302 304 304 306 307 309 310 314 314 313 314 315 312 314 312 311 310 310 310 313 312 311 312 312 312 313 313 311 311 312 313 313 313 312 311 313 314 316 318 319 317 318 317 316
300 298 301 302 303 304 305 306 307 309 314 314 313 314 315 313 311 311 310 310 310 310 311 312 311 312 312 313 314 312 311 312 313 313 312 313 312 312 313 314 315 317 316 318 318 318 319
300 298 300 301 302 303 305 306 306 308 311 313 313 314 314 313 308 310 309 310 310 310 306 308 312 310 311 313 313 312 312 312 315 313 313 313 312 313 313 313 313 315 313 314 316 318 319
299 298 300 300 303 303 304 305 306 307 308 312 313 314 313 310 309 310 310 310 310 304 306 314 311 311 312 313 313 313 312 312 313 315 313 311 310 312 312 311 312 313 314 314 314 316 320
299 298 300 300 302 303 303 304 304 307 308 309 312 314 313 310 312 310 311 308 308 304 310 315 313 312 311 314 313 313 314 315 316 317 313 314 314 312 313 313 312 312 314 315 318 316 315
299 298 299 299 301 302 302 303 306 307 306 309 308 315 314 309 311 311 308 309 306 308 313 313 312 312 312 311 313 313 315 315 313 313 315 316 314 313 312 313 314 314 314 314 313 315 312
299 298 299 299 301 302 301 303 305 305 306 307 307 315 313 310 311 309 309 313 306 310 313 313 312 313 314 314 313 313 314 313 311 313 314 314 313 311 311 312 312 314 316 311 312 316 322
299 298 298 299 300 302 300 304 305 305 305 308 312 315 313 309 310 308 310 314 310 314 313 313 315 315 315 314 315 313 311 309 311 310 310 309 309 310 311 312 312 313 312 315 315 315 318
298 298 298 298 299 300 301 303 305 305 306 309 311 314 312 310 309 309 311 313 312 313 312 313 315 317 316 313 312 311 311 310 310 311 309 310 309 313 312 313 313 315 315 315 313 315 320
298 298 298 297 299 300 301 301 303 305 307 311 314 311 310 309 312 309 312 312 312 313 313 314 313 315 316 315 312 311 311 309 309 310 311 311 313 313 312 312 312 314 314 315 316 315 323
298 298 298 297 298 300 301 303 303 304 306 312 315 315 310 310 311 311 313 312 312 314 314 313 314 313 314 316 317 311 312 311 312 311 313 313 315 316 316 316 314 316 316 316 318 319 317
298 297 297 297 298 300 301 303 302 304 307 311 313 312 313 312 313 312 313 314 314 311 313 312 313 314 315 314 314 314 313 313 313 312 314 313 316 316 320 324 322 320 319 318 320 322 317
298 297 297 297 298 300 301 302 302 303 306 311 313 314 313 314 314 314 313 315 314 315 311 312 313 314 315 315 314 315 313 313 315 315 314 313 319 318 317 316 317 323 321 321 316 320 321
298 297 297 296 298 299 301 302 302 302 306 311 313 314 313 313 314 315 315 316 315 313 313 314 314 315 316 315 313 314 314 314 316 315 314 314 316 313 317 318 320 323 324 322 319 317 317
297 297 297 296 297 299 300 301 301 303 306 312 311 310 313 314 314 316 316 315 315 314 313 314 314 315 315 314 312 312 313 314 316 316 316 316 316 319 327 325 325 330 327 316 316 320 319
297 297 297 297 296 298 300 301 301 303 304 307 311 310 314 318 316 316 315 314 315 314 315 315 314 315 314 314 314 316 319 318 317 316 316 315 316 322 326 326 324 318 317 325 325 324 321
297 297 297 297 296 298 300 301 302 302 304 306 309 312 314 317 316 316 316 315 314 314 315 315 315 312 313 317 320 321 321 321 320 319 321 315 318 323 327 323 319 317 315 319 324 324 316
297 297 296 297 295 297 299 301 301 302 304 306 309 312 311 316 316 314 313 315 315 315 314 315 312 309 314 321 322 324 322 319 322 322 316 317 318 322 317 321 324 318 314 312 314 319 314
297 297 297 296 295 297 299 300 301 302 303 306 310 312 312 313 313 313 314 314 313 315 314 312 314 312 316 320 323 322 320 319 323 325 323 323 321 322 320 325 319 316 313 312 320 316 313
297 297 297 295 295 297 298 300 301 302 303 305 311 312 312 313 313 311 309 312 313 313 315 313 316 315 319 322 321 324 323 320 320 320 319 323 324 324 321 322 318 314 313 316 312 311 310
297 297 297 295 295 296 298 300 301 302 303 305 310 312 312 312 313 312 311 310 310 312 313 312 315 316 319 320 319 318 322 315 316 321 316 321 320 321 319 318 314 312 313 313 310 310 309

GFSGBSN_925_thetae_027.txt.gz
Theta_e
309 310 311 311 313 317 319 317 315 316 314 318 317 316 315 315 314 314 314 311 311 313 311 313 313 313 316 316 316 315 316 317 323 325 323 322 320 319 319 319 320 321 323 323 324 326 326
308 308 309 309 311 312 314 316 317 316 315 315 316 316 315 315 314 313 313 312 311 312 311 310 312 314 314 312 310 313 315 315 317 323 323 321 320 318 319 317 318 318 318 319 320 322 323
306 307 307 307 308 309 310 313 316 316 314 314 316 316 315 314 313 312 312 313 312 312 311 310 310 313 312 312 310 311 312 313 313 319 319 321 321 321 320 321 317 318 320 319 320 320 321
304 305 305 305 307 307 307 308 314 314 316 314 314 316 316 315 313 312 313 314 313 313 311 311 311 312 310 308 310 310 311 310 312 313 314 313 319 314 316 317 317 320 319 322 319 320 320
302 304 304 304 305 306 307 306 309 313 315 315 314 315 316 316 313 310 311 314 311 309 310 312 311 310 308 308 311 309 310 310 311 311 311 312 311 314 316 320 321 319 320 320 320 319 322
301 301 301 302 303 304 306 306 307 310 311 314 314 314 316 316 312 309 312 312 310 308 310 314 311 312 310 310 311 311 310 311 311 310 311 311 312 316 317 320 320 318 319 318 319 320 319
301 300 301 301 303 303 304 305 307 307 310 311 314 314 315 316 312 309 313 310 308 308 311 314 313 312 310 310 311 311 311 311 310 311 312 311 312 314 314 313 315 316 316 316 317 316 316
300 301 301 300 301 303 303 303 305 306 308 310 313 313 315 315 313 311 312 308 307 309 311 310 312 310 310 310 312 311 311 311 311 313 311 313 314 311 310 310 313 315 317 317 315 315 315
300 300 300 300 301 302 302 304 305 306 307 308 310 314 314 315 314 313 311 310 310 310 310 311 310 312 312 312 313 313 311 310 311 312 312 313 311 311 312 312 313 314 315 314 316 314 314
300 299 300 299 301 301 303 303 304 305 307 307 308 314 314 314 314 313 311 310 309 310 306 309 312 312 312 312 314 311 311 311 312 313 313 313 311 311 311 312 312 314 313 315 317 318 316
300 300 300 299 300 301 302 303 303 305 305 306 307 309 313 314 311 311 310 309 310 307 302 308 312 310 312 313 313 312 311 312 314 313 311 313 312 312 312 313 312 314 313 315 316 315 315
300 300 300 299 300 300 302 303 303 303 303 305 307 308 313 312 310 310 309 309 310 308 305 312 311 312 313 313 314 313 313 312 313 314 313 310 310 311 312 311 311 312 313 314 315 315 316
300 299 299 299 300 300 302 303 302 303 304 306 306 307 313 310 310 309 309 309 311 306 308 313 312 311 310 312 312 314 313 315 316 316 315 315 314 311 312 312 311 313 315 316 317 317 313
300 299 299 299 299 300 301 301 301 305 306 306 307 309 310 311 309 309 309 309 308 308 310 312 311 311 311 311 313 313 313 313 314 315 315 316 317 313 312 313 313 313 314 316 314 313 310
300 299 299 299 299 299 300 301 302 305 305 306 307 309 310 310 309 310 310 311 305 307 311 312 311 313 313 311 313 313 314 313 312 310 314 314 310 311 312 312 313 315 315 312 314 311 315
299 299 299 299 298 299 300 302 303 304 305 305 308 308 309 310 309 309 310 309 308 311 311 311 312 312 313 312 314 314 313 308 312 309 310 310 309 309 311 311 312 313 311 315 315 314 311
299 299 299 298 297 299 300 302 303 302 305 306 308 309 312 310 309 310 312 314 310 312 311 313 313 317 314 313 313 312 310 309 308 309 310 310 309 308 311 313 313 314 314 313 312 311 309
299 299 299 298 297 298 300 302 303 304 304 308 308 308 310 309 311 309 312 312 312 313 312 313 313 314 315 314 314 312 310 309 308 309 313 311 311 311 311 311 311 311 312 313 313 312 311
299 298 298 298 297 298 299 302 303 303 304 307 308 311 310 310 309 310 312 312 312 314 314 314 315 313 314 316 318 311 310 310 309 310 311 312 314 315 316 313 312 314 313 314 313 314 312
298 298 298 298 297 297 300 301 303 303 304 307 309 309 312 309 310 310 313 313 314 312 313 313 313 313 314 316 315 314 312 312 309 310 313 311 315 316 316 318 315 316 315 315 315 316 315
298 298 298 297 298 297 300 301 302 302 303 309 312 309 309 312 313 310 311 313 314 315 312 313 313 314 315 317 313 315 313 313 313 314 314 313 317 316 315 314 314 316 319 316 316 316 318
298 297 298 297 298 297 299 300 302 302 304 311 313 314 311 312 312 314 312 315 314 313 313 313 314 313 314 316 312 313 313 313 315 315 316 313 316 313 315 315 316 319 318 318 316 315 318
297 297 298 297 297 296 298 300 301 302 303 308 311 310 312 314 314 315 315 315 315 314 313 313 313 313 315 315 313 311 311 312 314 316 316 314 314 317 319 323 321 322 319 320 319 318 318
297 297 298 297 297 296 297 300 301 302 303 306 308 310 313 315 315 315 315 314 314 315 315 314 313 315 314 312 310 311 312 313 316 315 314 316 315 317 322 323 328 323 320 319 320 318 315
297 297 298 297 296 296 297 299 301 302 303 305 307 310 311 317 315 315 315 315 315 314 315 314 315 313 312 314 318 320 320 320 319 317 315 316 317 322 327 324 322 315 319 319 319 321 315
297 297 297 297 296 295 297 299 301 302 302 304 307 309 310 313 315 315 315 314 317 316 314 312 312 309 312 316 320 321 324 322 321 321 316 318 318 320 322 323 323 317 314 311 315 319 313
297 297 297 297 296 295 296 298 300 302 302 304 306 310 311 313 312 313 314 315 313 313 314 312 313 311 314 318 321 321 319 316 321 323 321 320 322 323 321 324 318 315 313 311 318 316 312
297 297 297 297 297 295 296 297 300 301 302 304 305 311 311 313 312 311 310 313 313 311 314 312 314 315 316 320 319 321 321 318 320 319 321 321 322 322 318 321 317 310 311 315 310 311 309
297 297 297 297 297 296 296 297 300 301 301 302 307 310 312 312 312 311 311 310 310 312 313 312 314 315 318 319 318 319 322 316 315 318 314 319 318 318 316 316 312 311 313 312 309 310 307

GFSGBSN_925_thetae_030.txt.gz
Theta_e
306 307 307 307 308 309 310 311 312 314 318 316 315 317 318 316 314 315 314 314 313 313 311 312 314 313 316 316 317 315 316 315 323 324 322 322 319 317 318 318 319 322 321 321 320 320 323
304 306 306 306 306 306 307 308 309 311 313 317 316 314 316 316 314 314 313 313 313 313 311 310 313 313 314 310 309 312 315 315 320 323 322 321 320 317 319 317 317 317 317 317 318 319 319
303 303 303 303 305 305 305 306 308 308 311 314 316 315 316 316 315 313 312 313 313 313 310 310 312 313 311 311 310 311 311 313 313 321 320 321 319 320 320 321 317 317 319 317 317 318 318
303 302 303 303 302 304 305 305 306 307 308 311 313 315 314 316 315 314 313 313 313 312 311 311 312 312 308 308 309 310 311 311 312 314 313 313 320 317 315 315 317 320 318 320 316 317 318
303 301 302 302 303 301 303 305 305 306 307 308 312 312 314 315 316 314 311 312 313 311 311 312 311 309 307 307 309 309 309 309 311 312 312 312 312 312 314 318 319 320 320 318 318 317 319
301 301 301 301 302 301 302 304 304 305 305 307 308 311 313 314 316 314 310 312 312 308 310 312 311 309 308 310 310 311 310 310 310 310 310 311 312 315 316 318 318 317 318 317 317 317 315
300 300 301 301 301 301 302 302 304 305 305 306 308 308 310 314 315 313 312 310 309 307 310 312 314 312 309 310 310 310 310 310 310 310 311 310 312 316 316 314 315 316 316 318 315 314 314
301 301 301 301 300 300 301 302 303 304 305 306 307 307 309 313 315 313 312 309 309 308 310 308 310 311 310 310 312 311 310 311 311 312 310 312 314 310 310 310 313 315 317 316 314 312 314
302 301 301 301 300 300 301 302 302 303 304 305 306 307 309 313 315 313 311 309 309 310 309 309 309 311 312 312 313 312 310 309 311 311 311 311 310 310 311 311 312 312 312 312 312 311 312
301 300 301 300 300 300 300 301 302 303 304 304 305 305 308 309 315 312 311 310 310 308 301 307 311 311 311 312 312 311 310 310 311 311 311 311 311 311 311 311 311 313 311 312 313 314 314
300 301 301 301 300 300 300 301 302 302 303 303 304 304 307 307 313 312 311 309 309 304 306 308 312 311 312 311 312 311 310 311 313 312 311 313 311 312 313 311 310 312 311 312 314 315 314
301 301 301 300 300 300 300 301 302 302 302 302 305 305 307 307 312 312 310 309 308 303 310 313 311 312 314 313 314 312 313 312 312 314 313 311 309 310 310 310 310 312 313 314 315 315 317
301 301 300 300 300 300 300 301 301 302 303 305 307 306 307 306 311 310 309 309 310 312 308 312 312 311 312 313 313 314 314 316 316 317 316 314 315 312 311 311 311 313 316 316 317 317 314
301 301 300 300 299 300 299 300 302 302 304 305 305 306 306 306 310 309 309 308 307 307 309 311 310 309 310 310 311 312 314 315 314 314 315 316 310 313 311 311 311 313 314 316 316 314 308
300 300 300 299 299 299 298 300 303 304 303 305 305 306 307 308 309 309 309 310 307 307 310 312 311 310 311 311 312 313 314 311 310 312 315 314 311 310 311 311 311 315 315 312 316 314 316
301 300 299 299 299 299 298 300 302 304 302 303 305 307 307 308 309 309 310 309 308 308 310 310 311 311 313 312 313 314 313 309 312 311 310 311 312 308 310 310 311 313 312 315 315 316 316
300 299 299 299 299 298 298 300 302 303 303 305 307 308 308 308 308 309 311 311 308 311 310 311 311 312 313 312 313 313 309 308 308 308 308 311 311 309 311 312 312 315 314 315 313 313 308
299 299 299 299 298 298 297 300 302 303 302 304 306 309 308 308 308 309 313 311 311 311 311 312 312 313 314 313 314 313 309 308 306 308 310 310 313 313 311 311 310 311 312 312 312 311 310
298 299 299 298 298 298 297 300 302 303 303 305 308 309 310 307 309 309 311 312 312 312 312 313 313 313 313 315 317 313 310 308 307 309 310 310 313 312 312 312 311 313 313 312 312 311 311
298 298 298 298 298 298 297 299 301 303 303 305 305 310 308 308 308 310 311 313 313 311 313 313 314 313 313 316 315 315 312 311 308 309 311 311 314 313 315 315 314 316 313 314 314 315 313
298 298 298 298 298 298 297 298 301 302 302 307 308 307 306 308 309 311 311 312 313 314 312 314 313 312 315 316 315 317 312 311 311 310 312 312 317 315 315 314 314 315 317 314 314 314 316
298 298 298 298 298 298 297 298 300 302 302 309 311 311 310 308 310 310 312 314 314 313 313 313 315 313 314 316 312 312 311 312 312 312 314 314 316 313 315 315 315 316 316 316 315 314 315
297 298 298 298 298 297 296 298 300 302 303 306 308 310 312 311 312 312 313 313 313 313 313 312 312 313 314 314 313 312 310 311 312 315 316 314 314 317 318 316 318 323 319 317 317 316 315
297 297 298 298 298 297 296 298 299 301 303 304 306 310 314 314 313 313 314 313 314 313 314 313 312 315 314 312 311 311 310 310 312 312 314 315 316 315 319 320 328 323 321 319 318 317 314
297 297 298 298 298 297 296 297 299 301 302 304 305 309 313 315 314 314 314 313 313 313 315 314 314 312 312 314 317 317 317 318 317 316 316 315 318 319 325 323 323 320 321 317 317 318 316
297 297 297 297 297 297 296 296 298 301 302 303 305 308 311 313 314 313 314 314 315 315 315 314 311 311 312 315 318 318 321 321 321 320 315 315 315 320 320 324 326 317 313 314 315 320 313
297 297 297 297 298 297 297 296 298 300 301 302 304 307 310 313 311 311 313 315 313 313 313 312 312 311 312 316 319 321 319 316 320 319 321 320 321 322 322 323 317 315 312 310 317 315 312
297 297 297 298 297 297 297 296 297 300 301 301 304 309 310 311 311 311 311 312 312 312 312 312 313 314 316 318 318 320 320 318 318 317 320 319 322 321 319 321 316 310 311 315 310 310 310
297 297 297 298 297 297 296 296 297 300 301 300 304 305 311 311 312 311 311 310 312 310 312 311 314 315 316 316 317 319 321 314 314 317 313 318 316 317 316 315 311 310 312 310 308 308 307

GFSGBSN_925_thetae_033.txt.gz
Theta_e
305 304 304 304 304 304 305 306 307 308 309 311 313 315 316 316 317 316 312 313 313 313 313 311 313 312 315 317 317 315 315 315 322 324 322 321 318 316 319 318 319 323 321 321 321 318 319
304 304 304 304 304 305 303 304 305 306 307 309 312 313 315 315 317 315 314 311 313 313 312 310 312 313 312 310 310 311 315 315 322 322 322 321 320 316 317 318 318 317 318 318 317 318 318
303 304 303 303 304 303 303 303 304 304 305 307 309 311 313 315 315 316 314 311 311 312 311 310 311 312 311 310 309 311 311 313 318 321 321 321 319 319 319 320 317 317 320 318 318 318 319
302 302 302 302 302 302 302 302 303 304 305 305 306 309 311 313 314 315 315 314 310 312 311 311 311 311 306 308 309 309 310 311 312 314 317 320 320 319 318 314 316 319 319 320 316 317 317
302 301 302 302 303 303 302 302 303 303 304 306 305 307 308 310 314 315 315 313 312 313 311 311 311 307 308 307 308 308 310 310 311 312 313 315 313 313 315 317 317 319 318 319 317 316 318
303 302 303 302 302 302 302 302 303 303 304 305 306 307 308 310 311 315 315 312 313 310 310 311 311 310 308 310 309 310 309 310 309 309 310 311 312 315 316 316 316 316 318 316 317 315 315
304 303 302 302 302 301 301 300 301 302 303 304 305 306 307 308 309 314 314 311 309 309 310 310 312 310 309 310 310 310 310 310 309 309 312 310 314 316 316 314 313 314 316 317 317 315 315
303 301 301 301 302 301 301 301 301 302 303 304 304 305 305 307 308 312 311 309 309 308 308 307 309 311 310 310 311 310 310 311 311 312 310 312 314 311 311 313 314 316 317 315 313 312 313
301 302 302 302 301 301 301 301 300 301 302 303 303 304 305 305 308 310 311 310 309 309 307 308 308 310 311 310 312 311 309 309 310 311 311 312 311 310 311 311 312 312 314 314 313 311 311
302 303 302 302 301 301 301 300 301 302 303 302 303 303 303 305 306 311 310 309 309 308 301 306 311 310 311 312 312 311 310 310 310 312 311 311 310 311 311 311 311 313 310 312 312 313 314
302 302 302 301 301 301 301 301 301 301 302 302 302 303 304 305 307 312 311 309 309 306 303 307 311 310 311 311 310 311 310 311 312 311 311 311 312 312 312 312 310 312 310 311 312 314 313
302 301 302 301 301 301 300 301 300 302 301 302 305 305 305 305 306 306 310 309 307 308 305 312 311 313 314 312 313 311 312 311 311 312 311 309 308 310 310 310 310 310 311 313 314 314 318
301 301 301 301 300 300 300 300 299 302 304 302 304 305 307 305 307 307 309 309 309 308 307 313 312 313 313 313 313 314 314 314 315 315 314 314 314 312 310 311 310 312 316 316 317 318 316
301 301 300 300 300 300 300 299 299 302 303 302 304 305 306 306 307 309 309 309 311 308 309 309 310 311 312 312 312 313 314 315 314 314 315 314 311 313 312 312 312 313 313 316 316 314 311
300 299 300 300 300 300 299 299 299 302 303 301 302 305 306 306 307 309 308 311 307 307 310 311 310 311 310 310 311 312 313 313 312 314 316 315 311 309 310 310 311 314 315 312 315 314 317
299 299 299 300 299 299 299 299 299 301 303 302 305 305 306 307 307 309 309 312 307 308 310 309 311 309 311 312 312 313 313 309 311 310 309 310 310 307 309 310 311 313 311 315 315 315 315
298 299 299 299 299 299 299 299 299 301 303 303 304 307 306 306 308 306 311 310 310 309 309 309 311 311 311 312 311 313 310 308 309 308 310 310 310 308 311 311 311 314 313 315 313 315 315
299 299 299 299 299 299 299 298 299 301 303 303 305 306 305 308 305 303 311 311 312 311 310 311 311 312 311 311 313 312 311 307 306 307 311 309 312 312 309 308 309 310 313 313 315 314 314
299 299 299 299 299 299 298 298 299 301 303 304 307 309 307 305 308 310 311 312 312 311 312 312 312 313 312 313 314 313 310 308 307 308 308 309 312 312 308 310 309 312 312 312 314 313 315
299 298 298 299 299 299 298 297 299 301 302 306 306 309 302 307 308 311 311 312 313 311 312 313 313 313 312 314 313 314 313 310 307 308 310 310 311 310 312 312 314 314 312 312 313 315 314
298 298 298 299 299 298 298 297 299 302 302 306 307 308 306 307 309 310 310 311 313 313 312 312 313 313 312 314 313 315 312 310 310 309 311 311 316 312 312 312 313 314 315 314 314 314 315
298 298 298 298 299 298 297 297 299 301 302 305 310 311 307 307 309 310 311 311 313 313 311 313 313 312 312 314 313 313 312 310 311 310 311 312 316 314 315 315 315 316 316 315 314 314 314
298 298 298 298 298 298 297 296 298 300 303 304 304 308 311 309 310 312 311 311 312 312 312 310 312 313 313 313 311 312 310 310 311 313 313 315 314 316 318 317 318 323 321 321 317 314 313
298 298 298 298 298 298 298 296 298 299 302 303 304 306 312 312 311 311 311 312 312 312 314 313 312 313 313 311 311 311 311 311 312 312 312 315 314 315 318 319 326 323 320 318 319 316 314
298 298 297 298 298 298 298 297 297 299 302 302 303 306 312 313 311 312 312 311 312 312 313 313 313 312 312 313 316 316 315 314 314 312 312 312 315 319 322 323 320 318 315 318 321 320 315
297 298 298 298 298 298 298 297 297 298 301 301 303 306 309 313 312 312 313 313 314 314 315 314 312 311 312 315 316 317 319 315 319 320 314 315 315 319 319 323 324 318 314 312 314 319 315
297 298 298 298 298 298 298 297 296 298 301 301 301 305 308 312 311 312 314 315 313 313 314 312 312 312 312 315 317 319 317 315 318 318 320 319 318 319 320 324 317 313 311 311 316 317 311
298 298 298 298 298 297 298 296 296 298 301 300 301 305 306 309 311 310 311 312 312 311 314 311 312 312 313 317 316 319 318 318 317 315 317 319 321 323 320 320 318 310 311 315 311 308 309
297 297 298 297 297 297 296 295 296 298 300 300 301 301 305 311 310 311 311 310 311 310 311 311 313 313 315 316 313 317 317 316 312 316 312 317 315 317 315 315 311 310 311 309 306 307 306

GFSGBSN_925_thetae_036.txt.gz
Theta_e
304 304 305 304 304 304 304 304 303 304 305 306 307 309 313 313 316 317 316 316 314 311 312 310 312 312 316 317 318 317 315 316 321 324 324 322 322 321 322 321 322 322 321 321 321 322 322
304 304 303 304 304 304 303 303 303 303 304 306 306 306 310 311 314 315 317 315 315 312 312 310 311 312 312 314 312 314 315 317 322 323 323 322 322 318 320 321 321 320 321 321 320 321 320
303 304 303 303 304 304 304 304 303 303 303 305 306 307 307 309 312 315 316 314 314 312 310 309 310 313 313 311 310 311 313 315 319 322 323 321 319 320 321 322 320 320 322 320 320 319 320
304 304 303 303 303 304 303 303 303 303 303 304 305 306 307 308 310 313 315 315 314 312 311 310 310 311 310 308 310 310 311 313 317 319 321 320 320 320 320 317 318 319 319 322 319 319 319
305 304 303 303 303 304 303 302 302 302 302 303 304 305 306 307 309 310 314 316 313 312 312 312 311 309 313 307 309 309 311 313 314 314 314 319 318 319 318 321 321 320 322 321 320 317 319
305 303 303 303 304 303 303 302 302 302 301 303 304 305 306 307 308 309 313 316 313 312 312 313 311 312 311 311 309 310 310 311 313 314 314 316 315 316 315 318 321 319 320 319 319 317 317
303 302 303 303 303 303 302 302 302 301 302 302 303 304 305 305 307 308 310 313 308 309 310 311 312 312 311 310 311 311 310 311 312 315 317 315 317 318 316 316 316 316 318 319 318 316 316
303 304 304 303 302 303 302 302 302 302 302 302 303 303 304 304 306 307 309 311 311 311 312 310 312 312 311 311 312 311 310 312 313 316 315 315 316 314 313 315 316 316 317 318 316 314 314
304 304 304 303 303 302 302 302 301 301 302 303 303 303 303 304 304 305 308 310 310 308 312 310 310 312 312 311 313 313 311 312 313 315 315 316 314 311 313 314 316 316 317 316 316 314 312
304 302 302 302 303 302 301 301 301 301 300 302 303 303 304 304 303 305 307 308 309 310 316 311 311 310 311 312 313 311 311 312 313 314 314 314 313 312 313 314 314 315 312 313 313 314 317
302 302 302 302 302 301 301 301 301 300 300 303 302 304 305 305 304 306 310 309 308 307 320 310 311 310 311 311 312 313 310 311 313 313 313 314 313 314 313 313 312 314 312 312 313 315 314
301 302 301 301 301 301 301 301 301 300 301 303 304 303 305 305 304 305 309 309 307 314 317 313 311 314 314 311 312 312 312 311 311 312 313 312 311 312 313 312 312 312 313 313 313 315 319
300 301 300 300 300 300 300 300 300 300 301 302 303 303 305 305 305 305 305 308 311 319 310 313 312 314 313 312 314 314 314 314 315 316 316 314 314 312 312 313 312 313 315 317 319 318 317
301 299 300 300 300 300 300 300 300 300 301 302 301 303 305 304 306 305 308 308 317 311 312 311 312 313 314 312 313 313 315 315 314 313 316 317 318 314 313 313 313 314 314 317 317 315 314
300 300 300 300 300 300 300 300 300 299 301 302 302 305 306 306 305 306 306 315 314 311 311 311 311 312 312 311 312 312 314 314 313 313 316 317 314 310 313 312 312 314 316 313 316 315 317
301 300 300 299 299 300 300 299 299 300 301 302 303 306 306 306 307 306 307 315 309 311 310 311 313 311 312 311 313 312 312 312 312 312 312 313 316 310 311 312 312 314 312 315 316 315 314
300 300 299 299 299 300 299 299 299 300 301 303 303 307 305 305 303 304 312 312 312 310 310 312 312 312 312 313 312 313 313 311 312 311 313 312 311 311 310 312 313 313 314 315 313 314 316
300 299 299 299 299 299 299 298 299 300 302 302 304 308 305 307 306 305 311 312 311 311 312 313 312 312 313 313 313 314 313 311 309 311 313 311 312 313 312 310 310 311 312 313 317 315 315
299 299 299 299 299 299 299 298 299 301 302 305 307 307 306 307 310 311 309 313 312 312 313 313 314 313 312 313 315 313 312 310 309 311 312 311 313 315 314 314 311 312 312 312 314 314 317
299 299 299 299 299 299 299 297 298 301 302 306 305 309 305 305 308 310 313 314 313 313 313 314 313 313 314 314 313 314 313 311 309 310 310 311 313 313 315 316 316 317 314 313 314 316 316
299 299 299 299 299 299 299 297 298 300 302 305 308 309 307 310 310 312 312 313 313 314 313 313 313 314 313 315 314 316 313 312 311 310 311 311 315 314 314 313 314 315 316 316 315 315 316
299 299 299 299 299 298 298 298 298 299 302 304 308 311 309 308 309 312 312 313 313 313 314 314 314 313 313 314 313 314 312 312 313 311 311 312 316 316 315 314 315 317 318 318 317 316 315
299 299 298 298 299 298 298 298 297 299 302 303 304 306 311 309 309 312 312 312 312 313 312 312 313 313 313 312 311 311 312 312 312 313 314 314 315 316 320 316 318 325 323 321 320 317 316
298 298 298 298 299 298 298 298 297 299 301 302 303 305 310 312 311 311 311 311 313 313 314 313 312 313 313 311 311 312 312 313 314 314 313 315 315 316 320 319 327 324 319 319 319 318 315
299 298 298 298 299 298 298 298 297 298 301 302 301 304 309 312 311 310 312 312 312 312 313 313 313 312 312 313 315 316 316 315 315 314 314 314 315 319 321 322 320 320 318 316 319 321 317
298 298 298 298 299 298 298 298 296 298 300 301 301 304 308 313 312 310 312 312 314 314 314 314 312 312 313 315 317 317 315 315 319 321 315 313 313 317 321 322 324 320 316 313 316 325 315
297 298 298 298 298 297 298 297 296 297 300 301 301 302 304 314 312 312 313 314 313 314 315 313 313 314 313 315 316 318 317 317 321 320 321 320 318 318 320 322 321 317 316 313 319 318 313
296 296 297 297 297 297 297 296 296 297 299 299 300 302 302 311 312 311 312 313 313 314 314 312 313 312 314 316 318 316 317 319 319 318 320 320 321 323 322 323 323 314 318 320 316 313 312
296 295 295 295 296 295 295 295 295 296 298 298 300 299 301 306 313 311 311 310 311 311 312 311 312 312 312 315 315 317 318 319 318 321 315 320 319 321 319 320 316 314 315 313 310 310 310

GFSGBSN_925_thetae_039.txt.gz
Theta_e
305 305 305 305 305 305 305 306 305 304 304 304 305 307 307 308 311 313 316 318 317 315 314 311 311 313 315 318 321 320 317 317 322 326 325 324 323 322 324 322 321 323 323 321 322 323 324
304 305 305 304 305 305 305 305 304 304 304 304 304 306 307 308 308 311 314 316 317 315 314 311 310 312 315 318 314 316 315 317 320 324 325 323 323 322 323 322 322 322 322 322 322 322 322
305 305 306 305 304 303 304 304 304 304 304 304 304 304 306 307 308 309 311 315 316 315 314 311 309 314 314 314 311 313 314 318 321 322 324 323 322 321 322 323 321 321 323 322 322 321 321
305 308 305 304 304 305 305 304 304 304 304 303 303 304 305 306 307 309 310 314 317 314 313 313 309 312 314 311 312 311 313 317 320 322 322 321 320 321 321 319 320 321 322 324 321 320 320
307 304 304 305 304 304 304 304 304 303 303 303 303 303 304 306 307 308 309 312 315 313 313 313 312 312 315 308 309 310 312 316 317 319 321 321 320 321 321 322 323 322 324 323 322 320 320
305 305 305 305 305 304 304 304 303 303 303 302 303 303 304 304 305 306 308 309 314 314 313 313 312 313 312 313 310 310 311 315 316 316 319 319 319 320 321 323 326 324 323 322 321 320 319
303 305 304 303 305 304 304 303 303 303 302 303 303 303 303 304 305 305 307 310 314 315 314 315 314 313 313 311 310 310 311 314 315 316 317 316 318 319 319 318 319 318 319 320 319 318 318
305 304 305 304 304 304 304 303 303 302 302 302 302 303 304 304 304 305 305 308 309 310 314 312 312 312 312 311 313 311 311 314 316 318 316 317 319 317 316 316 317 318 319 319 318 316 316
304 305 303 304 303 303 303 302 302 302 302 301 302 303 304 304 304 305 305 305 307 309 314 313 312 313 313 312 314 313 312 313 315 316 316 319 316 313 315 316 317 317 317 317 317 316 315
303 301 302 302 302 302 301 302 302 302 302 301 302 303 303 302 303 305 305 305 307 308 315 313 313 312 313 313 315 312 312 313 314 316 316 317 315 313 314 316 315 317 314 314 314 316 318
301 302 302 301 301 301 301 301 301 301 301 301 302 303 304 304 305 306 306 305 308 308 322 313 312 311 313 313 314 314 311 313 314 314 314 317 314 315 315 314 313 315 313 314 314 316 316
301 301 302 301 301 301 301 301 301 301 301 301 302 303 304 304 306 305 306 308 306 310 321 314 312 312 313 312 314 313 313 312 312 313 313 315 312 313 314 313 313 313 313 313 313 314 319
300 302 302 301 301 301 301 301 300 300 301 301 302 303 304 306 306 306 305 307 310 316 312 314 313 313 313 312 314 315 314 314 316 317 316 315 314 312 312 314 313 313 315 319 321 319 318
301 301 301 301 300 300 300 301 300 300 300 301 302 302 306 306 306 306 302 308 317 315 313 311 313 314 314 312 314 314 315 315 313 314 316 316 320 315 313 314 315 313 315 318 319 315 316
301 301 301 300 300 300 300 300 300 299 300 302 301 304 307 306 306 302 305 312 319 314 312 312 313 316 315 313 314 315 315 314 313 313 317 317 316 312 313 313 312 314 315 313 315 314 316
301 301 300 300 300 300 300 300 299 299 301 302 303 305 306 306 306 305 309 315 312 311 311 312 314 312 314 314 315 314 314 313 313 313 313 315 318 312 313 312 313 314 313 315 317 317 317
301 300 300 300 300 300 300 300 298 300 302 302 304 306 306 307 306 307 312 315 312 311 311 313 313 312 312 312 313 313 314 313 313 313 312 313 313 313 312 313 314 314 315 314 314 316 318
300 300 300 300 300 300 300 300 298 300 302 304 304 306 306 304 308 306 312 313 311 311 312 313 313 313 313 313 313 314 315 313 312 312 313 312 314 314 313 311 311 312 313 313 316 316 316
300 300 300 299 300 300 299 299 299 301 303 306 303 306 306 307 312 310 311 313 312 313 314 314 315 313 313 314 315 314 313 311 311 312 313 312 313 315 316 314 312 313 312 313 314 316 319
300 300 300 300 300 299 299 299 299 300 303 304 304 308 307 309 310 312 314 314 314 313 314 314 315 314 314 315 314 314 313 312 310 311 312 312 313 314 317 319 316 319 315 315 316 318 317
299 300 299 299 299 299 299 299 298 300 303 305 309 309 308 311 311 312 313 313 314 314 314 314 314 315 315 316 315 315 314 313 312 311 311 312 315 313 314 314 314 317 317 318 318 317 318
299 299 298 298 300 299 299 299 298 300 302 304 307 310 310 310 310 312 312 314 314 314 314 315 315 314 314 315 315 315 314 313 313 312 312 312 315 317 314 314 316 319 318 319 320 320 319
299 299 299 299 299 299 299 299 298 299 302 303 303 305 310 310 311 312 312 313 314 313 313 313 313 314 314 313 313 312 312 313 313 314 313 314 315 315 317 316 317 324 324 322 321 320 320
299 299 299 299 299 299 298 299 297 299 301 302 302 304 310 312 310 312 311 312 313 313 315 313 313 313 314 313 313 313 313 312 313 313 313 315 314 314 321 318 327 323 319 319 318 319 318
298 298 298 299 299 298 298 298 297 298 301 301 301 303 308 313 311 310 311 312 312 313 314 314 313 313 313 314 316 316 317 316 316 314 314 313 314 319 319 319 319 321 319 318 319 321 317
297 297 297 298 298 298 298 297 297 297 299 300 301 302 306 312 312 310 312 311 313 313 314 314 313 312 313 315 316 319 316 315 318 319 314 314 314 318 317 321 322 320 318 315 318 324 316
297 296 296 297 297 297 297 296 296 297 299 299 301 301 303 311 312 312 312 313 313 314 316 315 314 315 313 315 318 319 318 316 320 321 321 318 317 318 318 320 320 318 317 315 322 320 315
296 296 295 295 295 295 295 295 296 297 297 298 299 301 301 305 312 312 313 314 314 315 315 314 313 312 313 316 317 316 316 317 317 318 320 320 321 321 320 323 324 316 319 322 319 315 314
296 296 295 295 295 295 294 295 296 296 296 297 299 298 299 303 313 311 312 311 312 312 314 313 314 313 313 314 314 316 317 318 318 319 317 321 318 324 322 322 319 319 318 315 312 312 312

GFSGBSN_925_thetae_042.txt.gz
Theta_e
306 306 307 306 306 305 305 306 306 306 305 306 305 305 305 306 308 309 310 312 315 317 316 315 311 312 313 319 321 321 321 324 325 324 325 324 321 321 322 320 321 322 322 322 322 322 322
306 306 309 305 306 306 306 305 306 306 305 305 305 305 304 306 306 308 309 311 314 318 316 315 310 312 315 317 316 318 317 317 320 325 325 325 322 321 322 322 321 321 322 321 320 321 321
307 308 306 306 305 306 306 306 306 305 305 305 305 305 304 304 305 307 308 310 312 316 316 315 310 313 314 314 311 315 315 317 320 322 325 325 323 321 322 323 321 321 322 321 321 321 321
306 307 306 306 307 306 307 306 306 305 305 304 304 304 304 304 305 307 308 308 310 314 315 314 313 313 315 313 312 311 315 317 319 321 323 323 322 321 322 319 321 322 322 325 321 321 320
306 305 305 307 306 305 306 305 306 305 304 304 303 304 304 304 304 304 307 308 308 312 315 313 312 313 314 310 311 312 314 317 319 320 322 322 321 322 321 322 324 322 322 322 322 320 320
304 306 305 306 305 306 305 305 304 304 303 303 303 304 304 302 305 305 304 306 308 310 314 312 312 313 312 313 310 311 312 316 317 320 322 322 322 322 322 323 325 323 322 321 321 320 319
305 307 307 304 303 305 304 304 303 302 303 303 303 303 303 303 305 305 305 305 311 311 313 313 313 313 312 312 311 311 313 316 315 319 319 320 322 323 322 322 322 321 319 319 317 318 317
307 304 302 303 303 303 303 302 302 303 303 303 303 302 303 303 304 305 304 305 306 308 315 313 313 313 312 311 313 312 313 316 316 318 316 317 318 317 317 317 318 317 318 318 317 316 315
303 303 302 303 303 303 302 302 302 302 302 302 302 302 303 304 302 303 304 304 305 306 310 313 313 313 313 312 313 313 313 315 316 317 317 318 316 316 317 317 317 316 317 317 316 315 313
305 304 302 303 303 302 302 302 302 302 301 302 302 302 303 304 304 303 304 304 305 304 310 316 314 313 313 314 314 312 312 314 315 317 317 317 315 314 315 317 316 317 315 315 315 315 316
304 302 303 303 302 302 301 301 301 301 301 301 301 302 303 304 304 304 305 305 304 303 315 314 313 312 313 314 314 313 312 313 315 315 316 317 315 316 315 315 314 315 314 314 314 315 314
303 302 302 302 302 301 301 301 301 301 301 301 302 302 303 303 305 304 305 305 304 308 314 316 311 314 315 315 314 313 313 312 313 314 314 315 313 313 314 313 313 313 313 314 313 314 315
302 302 302 301 301 301 301 301 301 301 300 301 302 303 303 304 305 306 306 306 307 311 312 315 314 313 314 315 315 314 314 314 315 315 317 314 314 312 313 314 313 313 314 313 318 317 313
300 302 302 301 301 301 301 301 301 299 300 301 303 303 305 306 306 305 305 308 310 313 316 311 313 313 314 313 315 314 314 314 313 313 317 315 317 314 312 313 314 313 315 313 318 317 316
300 302 302 301 301 301 301 300 300 299 301 302 302 304 306 306 306 303 305 312 313 314 312 314 314 315 314 313 314 314 314 314 313 313 317 316 317 313 313 313 313 313 314 312 315 312 310
300 302 301 301 301 300 300 300 300 301 302 303 304 304 306 305 304 304 307 315 312 312 312 313 315 313 315 313 315 316 315 313 312 312 312 316 317 313 314 312 312 313 312 315 312 308 314
300 301 301 301 300 300 300 299 300 301 303 305 304 303 306 304 303 308 311 311 313 311 312 313 312 312 313 313 314 313 312 313 312 312 312 313 313 313 312 313 314 313 314 313 313 315 313
300 301 301 301 300 300 300 300 300 302 304 304 305 307 305 305 308 307 310 311 312 313 313 313 312 311 312 312 313 312 314 313 312 312 313 312 314 314 313 311 311 312 313 312 313 312 313
299 300 299 300 299 300 299 300 299 302 304 305 305 305 305 305 309 310 308 313 312 314 314 314 314 313 311 312 313 314 314 311 312 312 313 312 314 310 315 313 311 311 312 313 313 314 315
300 299 299 299 299 300 299 300 299 301 304 302 306 309 306 309 310 309 314 314 315 315 315 314 314 313 313 314 313 314 314 312 311 312 312 312 313 313 314 315 314 312 313 312 314 316 315
299 300 300 300 299 300 299 299 298 300 303 306 309 309 309 311 312 312 313 314 313 315 314 314 315 315 314 314 314 314 313 313 311 312 311 311 314 313 313 312 312 313 315 315 317 317 318
299 300 300 300 299 300 299 299 298 300 303 304 307 309 310 310 310 313 313 314 315 315 315 314 315 314 314 315 315 314 314 313 314 311 312 311 313 310 310 312 312 313 315 316 316 318 320
299 298 299 299 300 299 299 299 298 300 302 303 303 304 307 310 311 312 313 314 314 314 314 313 314 314 315 314 313 312 312 312 312 312 312 313 312 314 316 316 316 319 319 320 321 321 320
299 298 298 298 299 299 299 298 297 298 301 301 302 303 308 312 311 311 311 312 313 314 314 313 313 314 314 312 312 312 313 313 313 313 312 313 314 314 316 316 321 321 320 319 319 318 319
298 297 297 297 298 298 298 298 297 298 300 300 302 303 307 313 311 310 311 311 313 313 313 313 314 313 312 314 315 315 315 314 314 313 313 313 314 316 318 316 315 317 318 318 317 319 319
298 297 297 296 296 296 297 296 296 297 298 299 301 302 305 310 312 310 310 310 311 313 313 315 313 312 312 315 316 316 317 315 318 318 313 313 313 317 316 317 320 318 316 316 316 321 315
298 297 297 296 295 295 295 295 296 297 297 297 300 300 302 309 312 311 312 312 312 313 315 315 314 314 312 315 316 316 317 315 320 321 320 317 317 318 317 319 315 315 316 315 321 319 314
298 297 296 296 295 295 295 295 295 296 296 297 298 300 300 304 307 312 313 314 313 314 314 313 313 313 313 316 316 316 314 315 315 319 317 317 319 319 315 318 317 317 318 321 316 313 312
297 297 297 296 296 295 295 295 295 296 296 297 299 298 298 301 308 311 312 311 312 312 314 312 314 312 313 314 314 315 317 315 316 318 316 319 317 320 317 316 315 316 317 311 309 310 309

GFSGBSN_925_thetae_045.txt.gz
Theta_e
307 308 309 308 306 307 306 307 307 306 307 307 306 306 306 306 305 305 307 308 310 313 315 317 314 315 314 317 319 321 324 323 325 323 324 324 323 320 320 318 318 320 320 320 320 319 320
308 308 308 307 307 308 308 306 308 307 306 306 306 306 305 305 305 304 306 307 309 312 314 317 314 314 314 318 317 318 320 323 324 324 324 324 321 317 319 320 318 318 319 320 319 319 319
311 307 307 307 306 308 308 307 307 307 306 306 305 305 304 304 304 304 306 307 308 310 312 317 312 314 313 315 313 316 316 317 318 322 324 323 324 320 321 322 320 320 321 320 319 319 319
308 307 307 306 307 307 305 306 306 306 305 304 304 304 304 304 304 305 305 306 307 308 310 315 312 313 314 312 311 314 315 316 320 321 322 323 323 321 321 318 320 321 321 323 320 320 319
305 306 308 308 304 303 305 305 305 304 304 304 304 304 304 304 304 304 304 304 306 307 308 316 314 313 313 312 312 312 314 317 320 322 321 322 321 322 321 322 322 321 321 321 321 318 320
306 308 305 303 304 305 304 304 304 304 303 303 304 304 304 304 302 304 305 305 303 307 309 313 311 313 312 311 311 312 314 316 318 321 322 322 322 323 321 322 324 322 321 319 319 318 318
306 304 304 303 304 305 304 304 303 303 303 303 303 303 303 304 303 302 304 303 305 309 310 310 311 312 313 311 311 311 312 314 318 320 321 322 321 323 320 319 319 320 319 317 315 316 315
303 307 306 303 304 304 303 303 303 302 303 302 302 303 303 303 303 303 302 303 304 305 307 308 312 312 311 311 312 312 312 316 319 320 316 318 319 318 319 320 321 319 316 316 315 314 313
304 305 303 304 304 303 303 302 302 302 302 302 302 302 303 303 304 302 302 303 305 302 305 312 313 313 312 312 313 312 313 315 317 319 317 316 315 315 316 316 316 315 316 316 315 312 310
303 304 303 303 303 302 302 302 302 302 302 302 302 302 303 303 304 303 304 303 304 303 308 312 314 314 312 313 314 312 313 314 316 317 317 317 314 314 315 316 315 317 313 314 314 313 313
304 302 303 303 302 302 302 302 302 302 302 301 301 302 303 303 302 304 304 304 303 304 311 312 315 312 313 315 313 313 312 314 316 316 316 315 315 314 314 315 314 315 313 313 313 312 311
303 302 303 303 302 302 302 302 301 302 300 300 301 302 303 303 303 303 304 304 304 307 310 315 314 315 314 314 314 312 313 312 312 314 314 313 311 312 314 313 312 312 312 312 312 310 311
301 302 303 302 302 302 301 301 301 301 301 302 303 304 305 304 305 305 305 304 302 306 307 314 316 314 315 315 313 314 315 314 312 312 310 313 313 311 312 314 312 314 312 306 318 317 311
300 301 302 302 302 301 301 301 300 300 302 303 304 304 305 306 305 305 305 305 305 307 310 313 315 314 317 315 314 315 314 313 312 312 309 309 310 313 311 312 313 313 312 308 316 315 313
300 301 302 302 302 301 301 300 300 301 302 304 305 304 305 305 305 305 304 308 309 314 313 315 314 314 315 314 315 314 314 313 311 311 312 312 314 313 312 312 311 313 313 310 313 308 302
300 301 302 301 301 301 301 300 300 301 303 305 304 303 305 305 304 303 307 313 310 311 313 312 315 313 315 315 314 314 314 311 312 311 310 315 316 313 314 312 312 309 309 309 304 303 311
300 301 300 299 300 301 300 300 300 301 303 304 302 304 304 304 303 305 309 310 310 312 312 313 312 314 311 314 313 314 313 312 310 311 311 313 312 313 314 312 312 312 315 312 310 309 309
300 300 301 300 300 300 300 300 300 301 304 304 301 306 304 304 305 306 308 306 312 312 312 313 310 311 310 312 313 313 311 312 310 311 312 312 312 315 311 310 309 310 311 309 304 307 309
300 301 302 301 300 300 300 300 299 302 305 303 305 304 304 304 308 308 307 311 313 315 315 314 313 311 311 312 312 313 313 310 312 312 312 312 313 303 314 310 310 310 311 310 310 311 306
300 300 299 300 300 300 299 300 298 301 304 303 305 305 305 307 307 308 314 314 315 314 314 313 310 310 312 313 311 314 313 311 310 311 314 311 311 307 309 310 311 309 311 310 311 312 313
300 300 298 299 300 300 299 299 298 300 303 305 305 307 307 309 310 312 313 313 315 315 313 313 312 312 314 315 313 313 313 311 310 311 310 310 310 312 311 311 311 310 311 312 312 313 315
299 299 298 298 299 299 299 299 298 299 302 303 307 307 305 307 311 312 313 314 315 314 314 314 314 314 313 314 314 313 313 312 311 310 310 309 306 308 303 309 310 310 312 312 313 313 315
299 299 298 297 298 299 299 298 298 298 300 302 302 304 307 307 308 309 311 312 314 313 312 312 312 313 314 314 311 309 309 308 310 309 311 312 311 302 306 312 313 315 315 314 315 316 317
299 299 298 297 297 297 298 297 297 298 299 299 302 303 307 309 309 310 312 313 314 313 313 312 312 314 313 311 310 310 310 310 311 310 309 312 312 307 307 310 315 317 315 317 317 318 317
299 299 297 297 296 295 295 296 296 297 298 298 301 303 306 311 309 309 310 313 313 312 313 314 313 311 310 312 313 315 315 313 312 311 312 311 311 314 314 312 313 319 318 317 317 316 318
299 299 297 297 296 295 295 295 295 297 297 297 300 300 304 309 309 310 310 310 312 312 312 314 312 311 310 313 314 317 314 314 315 316 311 312 313 315 316 314 317 318 315 314 314 318 314
298 299 297 297 296 296 295 295 295 296 296 297 297 299 300 307 309 310 311 310 311 312 313 314 313 313 312 314 314 315 315 314 317 317 317 315 317 317 316 318 313 311 312 315 320 317 312
298 299 297 297 296 296 295 296 295 295 296 296 296 299 298 304 305 309 312 313 312 312 311 311 313 312 313 315 314 314 313 313 315 317 315 315 317 319 318 317 315 311 315 320 314 311 310
298 298 296 297 297 296 296 295 296 295 295 296 297 298 298 299 305 307 310 311 311 311 312 309 311 311 313 314 313 311 314 312 313 319 313 318 314 316 313 313 310 313 315 309 308 308 308

GFSGBSN_925_thetae_048.txt.gz
Theta_e
310 312 308 307 308 306 309 308 308 308 308 308 307 307 306 306 305 305 305 305 306 308 310 313 315 315 314 314 316 316 323 322 324 324 323 322 323 321 320 319 319 319 319 319 319 319 319
309 308 307 308 308 308 308 305 306 306 307 306 305 306 306 306 305 305 305 305 306 308 309 312 313 314 313 314 313 315 321 323 324 324 324 323 323 319 318 318 319 318 318 319 319 319 318
307 306 306 309 306 305 305 305 305 305 305 305 305 305 305 305 305 305 305 305 306 306 308 310 312 313 313 312 312 317 320 322 323 323 323 323 323 319 319 321 319 319 320 319 319 319 319
306 307 310 306 304 305 306 305 305 305 305 304 304 304 304 304 304 304 304 305 305 306 307 309 310 314 313 311 312 314 315 317 318 322 322 322 323 321 320 318 319 320 319 322 319 319 318
306 307 305 305 305 305 306 305 305 304 304 304 304 304 304 304 304 304 304 304 305 306 307 308 311 312 312 310 312 311 315 316 320 321 321 323 322 322 320 320 320 319 320 321 320 318 319
307 304 306 306 304 305 305 304 304 304 303 303 303 303 303 303 304 304 302 303 302 306 307 309 312 311 310 311 312 312 312 315 319 321 322 322 323 324 323 321 324 322 321 319 319 317 317
304 305 307 304 305 304 303 303 303 303 303 303 303 303 303 303 304 304 304 302 301 305 309 308 309 311 311 311 312 312 313 314 319 320 323 323 324 325 324 322 318 318 320 318 315 314 313
305 305 305 305 304 303 303 302 303 303 302 302 302 303 303 303 304 304 302 302 303 303 306 308 309 310 311 311 313 312 312 317 320 320 318 322 321 319 320 320 321 321 320 317 314 313 313
304 304 303 304 304 303 303 303 303 302 303 303 301 302 303 303 303 304 302 303 303 303 306 308 308 311 311 311 312 312 313 316 319 319 316 318 315 316 317 319 320 315 315 315 315 312 310
304 302 303 304 304 303 302 302 302 302 302 301 301 301 302 303 303 303 303 304 303 303 307 311 312 314 312 313 313 312 314 315 317 319 316 315 314 316 316 316 314 316 312 313 313 312 313
304 302 303 304 303 303 302 302 302 302 301 302 303 303 304 304 303 303 304 304 303 303 311 311 314 312 313 314 312 313 312 314 316 316 315 315 314 314 314 315 313 314 312 312 312 311 310
302 302 302 303 303 302 302 302 301 300 302 303 304 304 305 305 304 303 303 304 303 303 309 313 314 315 314 312 313 313 313 311 313 316 314 312 311 312 312 311 312 311 310 310 309 307 306
302 302 302 303 302 302 302 302 300 301 303 303 305 305 306 305 304 304 303 303 302 306 306 313 316 315 314 314 314 315 315 313 313 315 315 313 313 311 311 312 311 310 307 304 307 306 309
301 301 302 301 301 301 302 301 301 302 303 304 304 304 305 305 305 304 304 304 305 307 307 312 314 315 317 313 315 315 314 314 312 310 309 312 311 312 310 312 312 311 308 305 310 315 311
300 301 301 301 300 301 302 300 301 301 303 304 303 304 305 304 305 304 304 307 310 308 310 315 314 315 317 314 315 314 314 313 311 310 310 308 312 312 310 311 310 311 306 308 308 303 302
301 301 302 300 301 300 302 300 300 302 304 304 302 303 305 303 305 303 305 312 311 309 313 313 314 313 316 314 315 314 313 311 311 309 310 312 311 313 312 312 311 309 309 307 299 300 309
300 301 302 302 301 300 301 300 300 303 305 303 303 302 303 303 303 304 306 310 308 312 313 312 312 312 313 313 313 313 312 311 310 310 310 312 308 314 313 312 311 312 312 310 306 305 307
301 301 300 300 301 301 300 300 300 303 304 303 301 305 303 304 304 306 308 306 310 312 312 313 309 311 311 312 313 312 312 312 309 309 312 312 310 311 313 310 308 310 310 309 304 305 305
300 301 299 299 300 300 300 300 299 302 304 303 301 303 304 304 307 308 306 309 312 314 313 314 311 310 310 311 312 311 312 311 310 310 311 311 310 306 312 309 309 310 310 309 307 309 302
300 300 299 298 299 300 300 299 299 301 303 304 303 300 301 306 305 308 311 312 315 314 312 310 310 310 311 312 311 312 311 311 310 312 314 311 308 306 308 307 307 305 310 309 307 307 307
300 300 298 298 298 299 299 299 298 300 303 305 301 304 305 310 312 311 312 312 314 315 312 311 312 311 313 313 312 313 311 310 310 311 310 309 309 310 309 310 311 310 310 309 306 311 311
300 300 298 298 297 298 298 298 298 299 303 303 305 305 306 308 310 310 312 314 313 313 313 313 313 313 312 313 313 313 311 310 310 309 309 307 304 308 303 308 309 308 309 310 310 311 313
299 300 298 298 297 296 296 296 297 299 300 302 302 303 306 306 306 308 310 312 313 312 313 311 312 313 314 313 310 309 308 308 308 309 309 311 310 303 305 309 312 311 312 312 312 311 313
298 300 298 298 297 296 296 295 296 298 298 299 302 302 306 307 306 308 310 312 312 312 312 313 312 313 312 310 309 308 308 308 309 309 308 312 310 302 304 308 312 313 314 313 313 313 313
298 300 298 297 297 296 295 295 295 297 297 297 299 302 306 308 307 307 310 312 311 311 314 313 311 310 309 310 312 314 314 312 312 312 310 309 309 307 311 311 311 317 317 317 316 316 315
298 299 299 297 297 296 296 295 296 296 297 296 301 300 302 307 306 309 309 310 310 310 311 314 311 310 309 312 313 316 315 312 314 314 311 311 310 311 314 311 317 315 314 313 312 316 313
297 298 299 297 297 296 296 295 296 295 296 296 297 299 300 306 306 308 310 310 310 310 312 313 313 312 311 311 314 314 314 312 316 317 316 315 315 315 314 316 314 309 310 314 319 316 312
297 298 299 297 296 296 296 296 295 295 295 296 296 298 298 302 303 306 311 311 311 311 312 312 312 312 312 314 314 312 312 311 314 314 313 313 313 316 315 317 313 309 313 319 314 311 310
297 298 299 297 297 297 296 295 296 295 295 295 296 296 297 298 302 303 306 308 310 310 311 309 310 310 312 313 312 309 311 310 311 320 312 314 311 314 314 312 308 310 313 309 307 307 308

GFSGBSN_925_thetae_051.txt.gz
Theta_e
309 308 307 307 310 308 306 306 307 306 306 306 306 306 306 306 306 306 306 305 306 306 306 308 311 314 315 314 313 314 319 325 319 322 322 323 321 320 321 319 319 319 319 319 319 319 319
309 307 309 310 306 305 306 307 307 306 306 305 305 305 305 305 305 305 305 305 305 305 307 308 310 313 314 312 310 310 312 324 320 323 323 321 321 318 319 317 319 318 318 318 318 318 318
306 307 308 305 307 306 306 307 306 306 305 305 304 304 304 305 304 305 305 305 305 305 307 307 309 310 313 311 311 315 315 322 322 323 323 322 320 320 317 319 317 318 320 319 318 318 318
306 308 305 307 306 306 306 306 305 305 304 304 304 304 304 304 304 304 304 304 305 305 305 307 308 309 314 310 311 316 319 321 322 322 322 322 322 319 319 317 318 319 318 321 318 318 317
308 306 306 307 305 306 305 304 303 303 303 304 304 304 303 304 304 304 304 305 305 305 306 307 308 308 312 310 312 313 313 316 318 321 321 321 322 321 318 319 319 318 320 321 320 317 318
306 306 305 305 306 305 304 304 303 304 304 303 303 303 303 303 304 304 304 304 303 305 305 306 309 311 310 312 311 311 312 317 320 321 322 323 323 324 320 319 323 321 320 318 319 316 316
305 305 306 304 305 305 304 304 303 303 303 304 304 303 303 303 304 304 304 302 300 304 306 308 311 311 311 311 311 311 311 316 319 320 325 322 324 326 323 319 318 317 319 319 316 314 313
305 305 304 304 305 305 304 303 303 303 302 303 302 301 302 303 304 304 303 302 302 303 304 307 307 309 310 310 313 312 312 318 321 322 321 323 324 321 323 323 322 321 321 320 314 313 313
305 304 303 304 304 304 304 303 303 302 303 301 301 303 302 302 304 303 302 302 302 303 305 306 306 308 311 311 313 313 313 317 319 319 318 321 317 321 322 321 323 319 316 315 315 312 309
304 302 302 303 305 304 303 302 303 302 300 301 303 304 304 304 303 303 301 303 303 303 299 307 308 310 312 312 313 311 313 316 318 316 316 315 313 318 316 319 315 315 312 313 312 313 314
303 302 302 303 304 303 302 303 302 300 302 303 304 305 306 305 303 302 302 304 303 303 307 309 310 311 312 313 312 313 312 314 316 317 314 315 314 314 316 315 312 314 311 311 311 310 309
303 302 302 302 301 301 302 303 301 302 303 304 305 306 305 305 304 303 303 303 303 304 311 312 313 314 314 313 314 313 314 312 313 315 312 312 311 312 312 311 311 310 309 308 308 307 306
302 301 302 302 302 301 301 302 301 302 303 304 304 305 305 305 305 303 303 303 297 306 306 312 316 314 314 316 316 316 315 313 316 318 315 313 312 310 310 311 310 308 307 304 306 306 309
301 301 302 304 302 302 301 301 301 302 305 305 304 304 304 305 304 303 303 300 304 306 307 310 314 314 316 315 316 316 314 315 311 311 312 314 315 312 310 311 312 310 308 305 309 313 311
301 301 302 302 302 301 301 301 301 303 305 303 303 304 304 304 304 303 304 308 309 309 309 316 314 315 317 315 316 316 314 312 311 310 311 308 312 310 310 310 310 311 307 306 306 302 304
301 302 303 300 301 301 301 301 300 303 305 303 302 304 303 303 304 303 305 309 310 308 313 310 313 314 314 315 316 315 314 311 311 310 309 309 312 313 312 311 310 309 307 308 300 299 307
301 301 301 300 300 301 300 300 300 302 304 303 302 302 303 303 304 300 303 309 310 312 313 312 312 313 312 312 313 313 313 311 309 309 309 310 308 314 312 312 312 311 309 307 305 304 304
301 301 300 300 299 300 300 300 300 302 304 302 299 303 304 304 301 304 308 306 309 313 311 312 308 311 311 311 312 312 311 311 308 309 311 310 308 314 314 309 308 309 309 307 304 304 302
300 301 300 299 299 299 300 299 299 301 304 303 300 303 304 304 304 308 309 311 311 313 312 312 310 309 309 310 312 310 310 310 309 309 310 310 306 305 309 307 307 309 309 307 305 301 302
300 301 299 299 298 298 298 298 299 301 303 304 300 300 301 306 306 309 313 313 314 313 311 309 309 309 310 311 310 311 311 311 310 310 313 309 306 306 308 306 305 306 309 308 304 303 306
300 300 299 299 298 297 297 297 298 300 302 304 299 305 305 310 310 312 311 313 312 313 311 309 310 310 312 313 312 312 310 310 310 312 309 308 309 308 308 308 309 309 309 308 303 308 305
299 300 299 298 298 297 296 296 297 299 302 303 304 304 304 308 309 307 309 311 312 312 311 312 312 312 311 312 312 312 310 309 311 309 309 306 308 308 303 307 308 308 309 309 308 309 309
299 299 300 298 298 297 296 296 297 298 299 301 302 302 305 305 305 306 309 311 312 312 311 311 312 312 313 312 309 308 307 307 308 308 309 310 310 304 305 307 310 309 309 309 309 308 311
298 299 300 298 298 297 296 296 296 297 298 298 301 302 305 305 305 306 308 311 311 311 312 312 311 312 312 308 308 308 307 307 308 308 307 309 309 303 304 306 310 310 311 310 310 311 310
298 298 300 298 298 297 296 296 296 296 297 296 298 302 304 307 305 306 309 311 310 310 312 312 311 309 307 309 311 313 313 312 312 311 309 308 309 308 309 311 308 314 317 315 314 315 312
298 298 299 300 297 297 296 296 295 296 296 296 298 299 302 307 304 306 309 309 308 309 309 312 310 309 308 309 311 314 313 311 312 314 310 309 308 310 314 314 314 313 312 312 312 316 312
298 297 298 300 297 297 297 296 295 295 295 295 296 297 299 305 304 307 308 308 307 308 307 312 312 311 309 309 313 312 314 311 313 315 316 315 314 314 314 313 311 309 309 313 319 315 311
297 297 298 299 297 298 296 296 295 295 295 295 295 297 298 302 302 304 307 310 309 309 309 310 310 311 312 314 313 311 311 312 313 312 313 313 314 315 313 316 314 308 313 319 313 310 310
297 297 297 299 297 297 297 296 296 296 295 295 294 296 295 298 301 301 303 306 307 310 310 309 310 311 312 313 311 310 311 309 310 318 311 313 308 310 310 311 308 307 312 310 307 307 307

GFSGBSN_925_thetae_054.txt.gz
Theta_e
310 306 308 308 306 309 307 307 307 307 307 306 306 306 305 305 305 305 305 305 305 306 306 306 307 309 312 315 312 315 317 320 318 319 321 323 321 319 322 319 318 319 319 318 319 319 318
309 308 309 306 309 307 307 307 307 306 305 305 305 305 305 305 305 305 305 305 305 305 306 306 307 308 312 315 312 312 311 316 318 320 321 322 321 318 319 318 319 318 318 318 318 318 317
307 308 307 307 307 307 307 307 305 304 304 304 305 305 304 304 304 304 304 305 305 305 305 306 306 308 312 313 311 313 314 318 319 321 321 322 320 320 316 318 316 317 319 318 317 317 318
307 306 306 306 306 306 307 306 305 305 304 304 305 304 304 304 304 304 305 305 305 305 305 306 305 307 311 312 312 311 315 320 319 322 321 321 321 319 318 316 317 318 318 321 318 317 317
307 306 306 306 305 306 306 306 305 304 304 304 304 304 304 304 304 304 305 305 305 305 305 306 305 306 312 311 312 312 311 321 321 321 320 320 320 320 318 318 319 318 319 319 320 316 317
306 306 306 305 304 306 306 305 304 304 304 304 304 304 303 302 303 304 305 304 303 305 305 305 304 308 309 311 312 311 312 318 320 320 321 321 321 322 317 320 320 320 320 318 319 316 316
305 306 306 303 304 306 305 305 304 303 304 304 303 303 303 302 303 304 304 302 299 302 304 305 306 310 311 311 311 311 312 318 319 321 326 322 322 325 322 319 317 317 318 319 316 313 313
305 305 304 304 304 305 304 304 303 303 303 301 301 302 303 304 303 304 303 301 301 302 303 305 306 308 310 311 312 311 312 318 320 324 322 324 321 322 321 319 321 319 319 320 316 312 312
304 304 303 304 304 302 303 303 303 303 301 302 304 304 305 305 304 303 303 301 302 302 303 305 305 307 311 311 313 312 313 317 319 322 321 321 321 322 323 322 323 320 319 316 316 311 308
304 304 302 304 302 303 302 303 303 301 303 304 305 306 306 306 302 303 301 303 302 303 294 307 308 310 311 313 313 311 314 317 319 319 317 315 318 323 321 321 321 321 314 313 312 313 315
304 303 302 303 304 302 301 302 302 302 304 305 306 306 305 304 302 302 302 303 302 302 301 307 310 310 311 313 312 313 312 314 317 318 315 316 318 317 321 319 318 315 311 311 310 309 309
303 302 302 303 304 304 302 302 302 303 305 305 304 305 304 303 303 303 303 302 302 303 309 311 312 314 314 313 314 314 314 312 314 314 312 311 310 311 311 310 312 309 309 307 306 306 306
302 302 303 303 302 302 302 301 302 303 305 304 304 304 305 304 303 302 303 301 301 306 305 312 313 314 314 316 316 315 315 313 318 317 315 312 312 310 310 311 309 309 311 307 304 305 308
302 302 302 301 301 302 301 302 302 303 304 303 304 303 303 303 302 303 302 303 308 308 308 310 314 314 317 315 316 315 314 313 310 311 311 312 315 312 310 311 311 309 308 306 307 311 309
301 302 303 301 300 301 301 301 301 303 303 303 302 303 303 303 304 302 304 304 310 309 307 315 313 316 316 315 316 316 314 312 311 309 313 309 312 310 310 310 309 309 305 305 303 301 302
301 302 302 301 300 300 301 301 300 303 304 303 302 302 302 303 303 303 302 311 310 308 311 309 314 313 315 317 316 314 314 311 311 309 308 308 312 312 311 310 309 309 306 308 298 300 306
301 302 301 301 299 300 300 300 300 302 304 302 302 299 302 304 304 299 306 309 311 312 311 311 312 312 312 313 312 313 312 310 309 309 308 307 309 314 311 311 310 310 307 306 304 304 305
301 301 301 300 299 299 298 299 299 302 303 303 299 300 304 304 302 306 309 308 309 312 310 309 309 310 310 311 311 311 312 311 308 308 311 309 309 314 312 308 307 308 308 306 303 304 301
301 301 301 300 299 298 297 298 299 301 303 302 299 300 304 304 309 310 310 312 311 313 312 310 309 309 309 310 311 310 309 309 308 309 310 309 306 303 311 308 306 309 308 305 303 301 301
300 300 301 300 299 298 297 297 298 300 302 304 298 303 302 306 306 309 313 313 313 311 311 308 309 309 309 311 309 310 310 311 308 309 312 307 305 306 307 306 305 306 309 306 304 306 305
300 300 301 300 299 298 297 297 298 300 302 303 298 305 305 306 309 310 310 311 312 312 309 308 309 310 311 312 312 311 310 310 309 313 308 307 309 308 308 307 308 308 308 307 302 305 303
299 299 300 300 299 298 297 297 297 299 302 303 304 306 304 307 307 305 306 310 311 311 311 311 311 311 310 311 311 311 309 309 311 308 308 305 307 306 302 307 307 308 308 307 307 308 307
299 299 300 300 299 298 297 297 297 297 300 301 301 302 305 303 303 306 307 310 311 311 311 311 312 311 311 311 309 307 306 306 307 308 308 310 309 303 306 306 308 309 309 308 307 307 310
299 299 299 301 299 298 297 296 296 296 297 297 299 302 304 305 303 305 306 311 311 310 312 311 310 311 311 308 307 307 306 306 306 307 307 308 309 308 309 305 309 308 309 308 308 308 307
299 299 299 299 299 298 297 297 296 296 296 295 298 301 304 307 304 305 307 310 309 308 311 311 310 309 306 308 309 312 312 311 311 310 309 308 309 311 310 310 307 313 313 311 312 315 308
299 299 298 299 300 298 297 297 296 296 296 294 298 298 301 305 303 305 308 308 307 308 308 311 309 307 306 308 310 312 312 310 312 313 309 308 307 310 312 312 312 310 311 312 312 316 311
299 298 298 298 300 298 298 297 296 296 296 295 295 296 298 304 303 305 307 309 305 306 306 310 311 310 307 308 312 312 314 309 312 313 316 313 313 311 312 313 308 306 308 311 320 314 311
298 298 298 298 299 298 298 297 296 295 296 295 294 296 298 301 301 303 305 309 307 307 308 307 307 309 311 313 312 312 312 313 312 311 313 312 311 314 311 314 312 307 313 318 314 310 310
298 298 297 298 298 299 297 297 298 296 296 295 294 295 295 296 300 300 301 303 307 308 308 308 307 310 309 311 310 311 312 310 309 318 310 312 307 308 308 308 307 307 311 311 307 308 308

GFSGBSN_925_thetae_057.txt.gz
Theta_e
308 308 310 309 307 309 307 308 308 307 306 305 306 306 306 305 305 305 305 305 305 306 306 306 306 307 308 311 314 314 314 314 319 318 319 321 322 323 323 321 317 319 318 319 319 318 318
308 308 307 308 307 307 307 308 307 306 306 305 305 305 305 305 305 305 305 305 305 306 306 306 306 306 307 314 313 314 312 311 318 318 318 321 321 318 320 320 319 318 319 318 318 318 317
308 308 307 306 308 305 307 307 307 306 305 305 305 305 305 305 304 304 304 305 305 306 305 306 306 305 307 310 311 311 314 315 318 318 319 321 319 319 316 318 317 317 320 318 318 317 318
307 307 307 308 306 305 307 307 306 306 305 305 305 305 305 304 305 304 304 304 305 306 305 304 304 304 306 310 311 312 313 316 318 319 320 321 319 317 317 315 316 319 319 321 318 317 317
307 306 307 306 305 305 306 306 305 305 304 304 305 304 305 304 303 303 304 305 305 306 306 305 304 305 308 311 311 312 313 316 318 319 320 320 319 320 317 318 320 318 321 320 319 317 317
305 306 305 305 304 305 305 304 304 304 304 304 303 303 302 303 304 303 305 303 302 304 305 305 303 304 306 311 312 312 311 314 319 320 319 319 320 321 320 320 322 322 319 319 318 315 316
305 306 305 304 304 304 304 303 304 305 303 303 303 304 304 304 305 304 304 301 299 301 303 303 304 306 310 311 312 311 311 318 319 319 320 320 322 322 322 319 316 316 317 319 317 312 314
305 305 304 304 304 305 303 301 303 304 303 305 305 305 306 305 305 303 303 300 301 301 302 304 306 306 309 311 314 312 313 318 320 321 321 321 323 321 320 318 317 317 318 318 315 312 312
305 304 303 304 304 305 305 302 303 303 305 306 306 305 306 305 306 302 302 301 301 301 303 306 305 306 310 311 312 313 314 318 320 322 317 318 320 322 321 321 322 319 319 316 317 311 308
305 304 303 303 304 303 303 303 303 304 306 306 306 306 305 304 302 302 301 303 302 302 299 306 309 309 311 312 313 311 315 317 318 319 315 316 319 323 323 323 322 324 316 313 313 314 318
303 303 303 304 302 302 303 303 303 304 306 305 305 305 303 303 301 302 302 302 302 301 304 307 310 309 311 312 312 314 313 315 317 317 317 314 321 319 320 320 318 319 311 311 310 310 310
303 303 303 304 302 302 302 302 303 304 305 305 304 304 303 303 302 302 302 302 301 297 307 311 310 311 312 313 314 315 315 313 312 314 312 312 312 315 313 318 316 310 308 308 306 307 313
303 302 303 302 301 301 301 302 302 304 305 305 303 303 303 302 301 303 302 300 298 301 304 311 313 312 314 315 315 316 316 315 317 317 315 314 312 310 310 312 310 310 314 313 310 312 313
302 302 303 301 301 301 301 301 302 303 305 303 302 303 303 303 302 303 302 298 303 307 307 309 315 315 317 314 315 315 315 313 310 311 311 312 318 312 310 311 313 309 314 312 310 312 310
302 302 302 301 301 300 300 301 301 303 304 303 302 302 303 303 303 303 299 307 311 308 308 315 314 315 316 315 315 315 313 311 310 308 314 310 313 310 309 309 309 309 309 304 304 301 307
302 302 302 301 300 300 299 299 300 302 304 304 302 301 302 303 304 302 305 313 313 309 310 309 313 312 315 316 317 313 313 310 310 309 307 308 313 311 309 310 308 309 306 310 303 306 308
301 301 302 301 300 299 299 299 300 302 304 304 301 299 303 304 303 303 308 310 312 311 310 310 311 311 312 313 313 312 311 310 309 309 307 308 310 313 311 311 310 310 309 306 305 305 307
301 301 301 300 300 299 298 298 299 301 303 303 298 301 304 304 303 306 308 307 309 311 310 308 308 309 310 310 310 311 310 310 308 308 311 308 310 314 311 308 307 308 309 305 308 307 303
301 301 301 300 300 299 298 298 298 301 303 302 298 299 304 304 309 307 308 311 310 312 311 309 309 309 308 309 310 309 309 309 308 309 310 308 307 311 312 310 307 309 307 305 303 303 306
301 300 300 301 299 299 298 298 298 300 302 304 298 303 301 304 306 310 310 311 311 310 310 307 308 308 309 310 308 310 310 310 308 309 311 307 306 307 311 308 306 307 309 305 304 306 305
301 300 300 301 299 299 298 297 298 299 302 302 298 304 304 304 306 309 310 311 311 311 308 307 309 309 310 311 311 310 309 310 309 312 307 307 309 308 308 307 307 308 309 307 304 305 307
300 300 300 301 299 299 298 297 297 298 301 302 301 305 305 304 304 305 306 311 310 311 310 311 310 310 309 310 310 310 309 308 310 308 307 305 309 303 303 307 307 308 309 308 307 307 307
300 300 299 300 300 299 298 297 297 297 299 301 301 302 304 303 302 305 307 309 310 310 311 310 310 310 309 308 308 307 305 305 307 308 308 309 305 303 307 306 307 309 309 309 307 306 309
300 300 299 299 301 299 298 297 297 297 295 297 299 301 304 304 302 305 306 307 311 310 311 310 309 310 310 305 305 306 305 305 305 306 306 308 309 306 309 305 309 306 307 307 308 308 307
299 299 299 299 299 300 298 297 297 296 296 294 299 300 304 305 302 303 307 309 308 307 310 310 310 308 306 306 310 312 312 311 311 310 308 308 309 308 308 310 306 312 310 309 310 315 307
299 299 299 298 299 300 298 298 297 296 296 295 297 297 300 305 301 303 306 307 307 307 308 310 309 306 305 306 309 311 311 310 312 313 308 308 307 306 308 311 312 308 310 311 311 317 311
299 299 298 298 298 299 298 298 297 296 296 295 294 296 298 303 302 304 306 307 304 304 305 308 310 309 305 306 311 311 312 308 311 312 312 312 312 310 307 309 307 305 306 310 320 316 311
298 299 298 298 298 298 299 298 298 297 296 296 294 295 296 300 299 302 304 308 307 304 307 306 306 307 309 312 312 312 311 312 311 310 310 309 310 310 308 311 308 306 312 319 315 310 310
298 298 298 298 298 298 298 299 297 297 297 296 294 294 294 294 298 299 299 301 303 307 306 304 304 306 306 309 310 310 310 312 309 317 309 312 307 307 306 306 305 307 310 310 309 309 308

GFSGBSN_925_thetae_060.txt.gz
Theta_e
308 309 309 309 308 309 307 308 309 308 308 307 306 306 306 306 306 305 306 306 306 306 306 306 307 307 307 308 308 315 313 319 320 319 318 320 323 324 324 323 321 321 320 320 320 321 321
309 307 308 308 309 306 306 308 308 307 307 306 306 306 305 305 306 306 305 305 305 306 306 306 306 306 306 308 307 309 313 313 317 319 318 320 321 322 322 322 322 320 320 320 320 321 320
309 308 308 306 307 306 306 307 306 306 306 306 306 305 306 306 304 305 305 305 305 305 306 306 306 305 306 307 310 312 313 314 318 319 317 319 320 321 321 321 320 320 321 320 320 319 319
307 307 307 307 305 306 305 305 305 305 306 306 305 305 304 304 304 304 304 304 305 306 306 306 304 305 305 305 305 309 313 313 316 318 317 319 320 320 319 319 320 320 320 322 318 319 320
307 307 307 305 305 306 305 305 303 305 306 305 305 304 304 304 303 304 304 305 306 305 306 306 305 304 306 307 310 310 313 315 315 318 318 319 319 320 320 321 322 321 319 319 320 319 318
306 306 305 305 305 305 307 305 303 305 305 306 306 306 306 305 305 305 304 304 304 305 305 305 303 305 305 308 312 312 312 316 318 319 318 320 321 322 322 321 320 321 320 320 318 319 320
306 306 305 305 305 304 305 304 304 305 306 307 306 306 306 306 305 305 303 302 303 306 305 304 304 305 307 310 313 313 312 314 319 318 320 320 321 324 323 320 316 318 319 317 318 315 318
306 305 305 304 304 303 304 305 305 305 307 306 306 306 306 304 305 304 302 302 302 303 303 304 305 305 304 310 313 313 312 319 320 320 317 320 322 321 320 320 318 318 317 318 318 315 317
305 304 304 305 303 303 304 304 305 305 306 306 305 306 305 302 303 302 303 302 301 302 304 306 306 305 307 311 313 311 314 318 318 318 320 320 319 319 320 321 320 319 318 320 319 315 313
305 304 304 305 303 302 303 304 304 305 306 306 305 305 303 303 303 302 302 303 302 302 308 306 308 307 310 312 312 312 314 318 317 318 317 317 316 321 321 321 319 321 318 318 317 320 322
304 304 304 304 303 302 302 303 304 304 305 306 303 302 303 302 303 303 303 303 302 303 313 308 310 308 311 313 312 314 314 315 317 315 316 315 317 323 323 321 320 321 317 316 315 317 316
304 303 303 303 303 302 301 302 302 303 305 306 303 303 302 302 303 302 302 302 303 310 313 312 311 311 313 313 315 315 314 312 313 315 312 312 313 315 317 319 315 311 313 313 313 315 321
303 303 303 303 302 301 301 301 302 302 304 304 304 302 303 302 304 303 302 304 311 313 308 313 314 313 315 316 316 315 316 317 319 320 318 310 313 312 316 314 314 313 317 323 322 323 321
303 303 303 303 302 301 300 300 301 302 304 304 303 303 303 303 303 303 303 308 315 311 312 310 314 315 317 315 315 316 316 316 312 316 318 321 320 314 313 314 316 314 318 323 319 315 314
302 302 303 302 302 301 300 300 300 302 303 305 302 302 303 303 304 303 307 313 313 311 309 315 313 315 315 315 316 316 314 314 312 312 318 318 317 311 311 310 312 314 318 310 313 309 314
302 302 302 302 301 300 300 299 300 301 303 304 302 303 304 303 304 304 312 313 314 310 312 311 314 314 314 315 316 316 315 312 312 311 310 313 318 312 310 311 310 313 310 316 316 318 316
302 302 302 302 301 300 300 299 299 301 303 303 302 309 304 304 304 311 310 312 313 312 311 312 313 314 314 314 315 314 314 312 311 311 310 312 315 315 313 314 314 312 314 310 311 310 314
301 301 301 302 301 300 299 299 299 301 303 303 303 314 305 305 312 309 312 310 310 314 312 311 311 313 312 313 313 314 313 313 310 311 313 311 315 316 314 310 310 311 312 311 315 314 310
301 301 301 302 301 300 299 299 299 300 302 302 307 307 305 307 316 314 312 313 312 313 311 310 311 311 310 312 314 312 312 311 310 311 312 311 314 316 314 312 310 313 311 309 308 311 314
301 301 300 301 301 300 299 298 298 299 301 303 306 313 311 311 310 313 313 313 313 311 310 309 310 310 311 312 311 312 312 311 310 311 310 310 310 312 314 314 313 314 312 309 314 317 313
301 301 300 301 301 300 299 298 298 298 301 302 305 308 306 314 313 311 312 312 313 313 312 310 311 311 311 312 312 312 312 312 311 311 309 311 314 312 310 309 310 312 312 310 311 313 319
300 300 300 300 301 299 299 298 298 297 301 303 305 306 306 308 307 309 310 313 313 313 312 312 312 312 311 312 311 312 312 311 312 310 310 309 314 309 311 309 309 311 311 311 311 311 311
300 300 300 300 300 300 299 298 297 297 298 302 302 303 304 307 308 310 312 312 312 312 312 312 312 312 312 311 310 309 309 310 310 311 311 311 311 312 314 309 310 314 312 312 311 311 312
299 300 299 300 299 300 299 298 297 297 295 296 300 301 304 308 307 309 309 309 313 312 313 312 311 312 310 308 307 309 310 309 310 309 309 311 312 312 313 311 317 311 309 310 311 311 310
299 300 299 299 299 299 299 298 297 297 296 295 298 300 304 305 305 307 308 310 311 311 313 312 312 310 310 310 313 312 312 312 312 311 310 309 311 313 313 312 311 313 310 311 313 318 311
300 299 299 299 299 299 300 298 297 297 296 295 296 296 300 304 305 304 307 308 312 312 312 312 310 308 308 312 313 313 314 311 313 313 309 309 310 312 311 313 314 315 312 312 311 322 314
299 299 299 299 299 299 299 299 298 297 296 296 295 294 299 302 303 304 306 309 307 308 312 311 311 312 308 313 314 313 313 310 312 313 312 313 312 314 313 314 311 309 309 309 322 320 314
300 299 299 299 299 298 298 299 298 298 297 296 296 294 296 299 299 301 303 306 309 308 312 310 312 311 312 314 313 312 312 312 313 311 312 311 312 312 310 312 312 308 313 319 317 313 312
300 298 298 298 298 298 298 298 299 297 297 297 296 295 295 295 295 297 298 300 302 303 306 309 309 310 312 314 313 313 313 314 313 316 311 313 311 312 311 311 308 309 311 311 310 311 311

GFSGBSN_925_thetae_063.txt.gz
Theta_e
311 310 309 310 308 307 308 307 308 307 307 307 307 307 307 306 306 304 306 306 306 306 306 306 307 307 307 308 308 311 315 318 320 321 317 317 317 322 324 324 321 321 320 319 321 322 321
308 308 308 308 307 306 306 305 305 306 307 307 307 307 306 306 306 306 305 306 306 306 306 307 307 305 306 308 306 307 308 314 320 321 316 317 318 320 322 322 322 321 321 320 320 322 322
308 308 308 308 306 306 307 308 306 305 306 307 307 307 306 305 305 305 305 305 306 306 306 307 307 306 306 306 306 313 311 312 316 320 318 317 317 320 320 322 321 320 321 321 320 320 321
308 308 307 307 306 307 306 308 305 306 306 307 307 307 307 306 304 304 304 305 305 306 306 306 305 305 307 304 305 306 308 312 315 318 317 316 318 321 321 320 321 322 321 323 320 320 320
307 308 306 306 306 306 305 306 306 306 307 308 307 307 307 307 307 306 304 305 305 306 306 306 306 305 306 306 305 307 310 313 315 319 318 317 319 321 321 322 322 321 321 320 319 319 320
307 307 306 306 306 304 305 306 306 307 307 308 306 307 307 307 307 306 306 304 303 305 306 305 305 306 305 307 307 310 313 314 315 319 318 319 321 322 321 321 324 321 320 318 318 320 319
307 306 306 306 305 304 305 305 306 306 307 307 306 306 305 304 306 304 305 304 305 306 305 305 305 305 307 308 310 313 313 313 317 318 318 320 322 322 320 319 317 316 318 317 317 319 319
306 306 306 305 305 304 304 305 305 306 307 307 306 306 304 305 304 304 304 304 304 304 305 304 305 306 306 306 310 313 312 318 320 319 316 321 322 319 319 318 318 318 318 318 318 317 318
306 306 306 305 304 303 303 304 305 305 306 306 306 306 304 303 303 304 304 304 303 303 306 306 306 307 307 309 313 312 314 316 319 317 319 321 320 318 322 320 319 317 318 317 318 318 317
305 305 305 305 304 303 302 303 304 304 305 305 306 305 302 303 304 304 304 304 304 304 312 309 309 309 311 312 312 312 311 313 319 318 318 319 319 319 322 322 318 319 317 316 319 318 317
305 305 305 304 304 303 302 302 302 303 304 305 305 305 302 304 304 304 304 304 304 305 314 310 311 308 312 313 312 312 313 317 318 316 318 317 320 320 323 323 319 321 319 319 319 321 319
304 304 304 304 303 303 302 301 302 303 304 304 305 303 303 306 305 304 305 304 305 312 316 313 311 313 313 314 314 314 314 313 313 314 312 311 312 315 320 316 318 319 319 318 318 319 324
304 304 304 304 303 302 302 301 301 302 303 304 305 303 304 305 306 305 305 305 314 317 310 315 315 314 316 318 316 316 316 318 318 318 318 311 311 311 313 316 314 317 321 326 327 326 325
303 303 303 304 303 302 302 301 301 302 303 304 304 302 306 305 306 306 306 313 318 314 314 311 315 315 317 315 316 317 317 318 317 317 320 322 320 310 312 315 318 320 322 327 326 323 321
303 303 303 304 303 302 301 301 301 301 303 304 304 306 306 306 306 306 312 315 315 313 312 315 315 315 315 316 316 317 316 316 315 314 320 321 320 312 314 312 315 317 321 314 317 313 317
302 303 302 303 303 302 301 301 300 301 303 304 305 307 308 306 306 308 315 314 315 313 314 313 315 315 315 316 317 317 317 313 314 312 313 316 319 314 312 312 312 316 314 319 320 321 316
302 303 302 303 303 301 301 300 300 301 302 304 307 314 309 307 306 313 314 316 314 313 312 314 314 314 313 315 315 316 315 314 313 312 313 315 316 316 314 316 317 314 316 314 313 313 318
302 302 301 302 303 301 301 300 300 300 302 305 308 317 308 309 316 314 315 313 312 314 312 312 313 313 313 314 315 315 315 315 312 312 314 314 316 318 316 312 311 313 315 315 317 317 314
301 301 301 301 302 301 301 300 299 299 301 304 311 312 310 312 318 318 315 314 313 313 312 312 312 313 313 314 315 314 313 312 312 313 313 313 316 317 315 314 312 314 314 313 311 314 320
302 301 301 301 302 301 300 299 299 298 301 304 310 316 315 313 313 315 314 314 314 312 312 311 312 312 313 313 312 314 314 313 311 312 310 311 313 315 317 317 316 315 314 313 314 318 315
301 301 301 301 301 302 300 299 298 296 301 304 308 311 307 317 315 314 314 313 314 314 312 311 312 312 313 313 313 313 313 313 312 311 311 313 315 313 312 311 312 314 314 313 314 315 321
301 300 300 300 300 301 300 298 298 294 301 305 306 306 307 310 311 312 312 314 314 313 313 312 312 312 312 312 312 313 313 313 313 312 312 312 315 313 314 311 311 313 313 313 313 312 313
302 300 300 300 300 300 300 298 298 296 298 303 303 304 305 310 312 312 315 314 313 313 313 313 312 312 312 313 312 311 311 311 311 312 312 313 314 315 315 311 311 315 313 313 313 312 313
301 300 300 299 300 299 300 299 298 297 295 299 300 301 304 309 310 312 311 312 314 314 314 313 313 313 311 309 310 311 311 311 312 311 311 313 313 314 315 313 318 315 311 312 313 312 312
301 300 300 299 299 299 300 299 298 297 296 297 299 299 304 305 307 307 309 311 313 313 314 314 313 312 310 312 313 313 312 312 313 312 311 311 312 314 315 315 314 312 311 312 314 317 312
302 301 300 300 299 299 299 299 298 297 297 297 297 298 300 303 305 305 307 310 313 313 314 313 312 311 311 314 313 313 313 312 313 313 310 310 311 313 313 315 316 317 314 312 313 322 316
302 301 300 300 299 299 299 299 299 297 298 297 297 296 298 302 301 303 306 309 310 311 313 314 313 313 311 315 315 314 313 312 313 313 313 313 314 315 314 313 313 311 313 310 322 321 315
302 301 301 300 300 299 299 299 299 298 297 297 297 297 297 298 298 299 301 304 307 310 313 313 313 313 314 314 313 312 312 312 313 312 312 313 313 313 312 313 314 309 312 315 318 315 314
303 301 300 299 300 298 298 299 298 299 298 298 297 297 297 296 297 296 296 296 297 300 303 310 312 312 313 314 313 313 313 314 312 313 312 313 312 313 311 312 310 311 313 312 312 314 314

GFSGBSN_925_thetae_066.txt.gz
Theta_e
309 310 309 309 308 307 308 309 309 307 306 308 308 308 308 307 307 307 306 306 307 306 306 305 305 307 307 307 307 307 312 313 318 321 319 319 317 321 324 324 322 323 320 319 320 321 321
309 309 309 308 307 307 308 307 307 307 308 308 308 308 308 308 307 306 306 305 307 306 307 306 307 306 306 307 305 306 307 309 317 320 320 317 318 317 319 323 323 320 321 320 320 322 320
309 309 308 308 307 306 307 307 308 308 308 308 308 307 307 308 308 306 305 305 305 306 306 307 307 306 306 306 306 311 311 309 313 318 320 317 316 316 320 322 321 321 321 320 319 322 322
308 309 308 308 307 306 307 307 307 308 308 308 307 307 307 307 308 307 305 305 305 306 307 307 306 306 306 305 305 305 308 307 308 315 319 317 315 320 320 320 322 322 321 323 320 320 320
308 308 308 307 307 305 306 306 307 307 308 308 307 307 306 307 307 307 306 305 306 306 306 306 306 306 305 305 306 305 306 309 310 315 318 319 317 321 321 323 324 323 323 322 321 319 320
307 308 307 307 306 305 305 306 306 307 307 308 308 307 306 307 306 306 304 303 304 304 306 306 306 306 306 305 306 305 308 310 312 317 319 319 319 321 322 324 324 323 322 318 320 320 319
307 307 307 306 305 305 304 305 305 306 306 307 307 306 304 305 305 303 305 306 306 307 305 305 305 306 306 306 308 309 310 311 314 319 323 320 320 321 321 321 319 318 318 318 317 319 319
306 307 307 306 305 304 304 304 304 305 306 306 306 306 305 303 304 304 305 305 304 304 306 304 305 305 307 307 310 311 310 313 317 315 318 320 321 318 319 320 321 319 318 317 317 319 319
307 306 306 306 305 304 304 303 303 304 305 306 306 306 305 303 304 304 304 304 304 305 306 307 307 308 309 304 310 312 312 313 314 315 318 318 318 318 318 318 320 318 317 316 318 317 316
306 306 306 306 305 304 303 303 303 303 304 305 306 306 305 304 305 305 304 305 305 305 310 310 310 310 310 306 312 311 312 315 318 317 318 318 319 319 321 321 320 321 316 317 318 318 317
305 306 305 306 305 304 303 303 303 303 304 305 305 306 305 305 306 305 304 305 304 305 313 310 311 310 312 313 312 311 313 313 317 317 319 316 319 320 318 318 320 318 318 318 318 318 319
305 305 305 305 305 304 303 303 302 303 303 305 305 305 303 306 307 305 305 305 305 310 314 312 312 313 314 313 313 314 314 313 314 315 312 313 312 316 317 318 321 319 319 318 319 319 321
304 304 305 304 305 304 303 303 302 303 303 305 305 303 303 305 307 306 305 306 315 315 311 314 316 315 314 316 315 316 316 318 318 317 316 314 312 310 314 315 317 321 318 322 322 323 321
304 304 304 304 305 304 303 303 302 302 303 303 304 303 305 307 307 306 306 312 315 314 313 314 315 315 317 316 317 316 318 319 317 317 319 320 317 313 311 317 319 319 320 320 320 322 317
302 303 304 304 304 303 303 302 302 301 302 304 307 308 308 308 307 306 311 314 315 312 313 315 315 316 316 316 317 317 316 318 316 316 321 321 319 311 313 313 317 318 320 314 316 313 314
302 303 303 303 304 303 302 302 301 301 301 304 306 308 310 307 307 308 313 314 315 313 314 313 315 314 316 316 317 317 316 314 314 314 313 316 319 314 313 314 313 318 317 318 315 315 317
302 302 303 303 303 303 302 301 301 301 301 306 309 314 309 308 308 313 312 315 315 313 313 313 314 314 313 315 316 315 316 314 313 312 312 315 317 317 314 317 317 316 317 316 312 313 316
302 302 302 302 302 303 302 301 300 300 302 305 310 318 310 310 316 316 315 313 312 313 312 312 313 313 314 314 315 315 316 314 312 312 315 314 315 317 316 312 312 313 315 315 315 316 311
302 302 302 302 301 303 302 301 300 299 301 304 310 312 312 313 320 320 315 314 314 313 312 312 313 313 313 313 314 314 314 313 312 313 313 313 315 313 315 313 312 313 314 314 312 313 317
301 302 301 302 301 302 302 300 298 293 302 304 309 315 314 315 314 316 315 314 314 313 313 311 312 312 313 313 312 314 314 313 312 312 311 312 313 315 315 316 314 313 314 313 310 310 314
301 302 301 301 301 301 301 299 298 294 303 305 309 311 307 314 315 313 314 315 314 314 313 312 313 312 313 314 313 313 314 313 312 311 312 313 314 313 312 311 313 314 314 314 310 312 309
302 302 300 301 300 301 301 299 297 295 300 304 305 305 304 308 311 312 313 315 314 314 313 313 312 312 312 313 312 313 313 312 313 312 312 312 312 309 308 311 311 311 313 313 313 312 311
303 302 300 300 300 300 300 300 298 296 298 302 301 303 304 306 310 312 314 315 314 313 314 312 313 312 313 313 312 311 310 310 311 311 311 312 311 309 312 311 311 310 311 312 312 311 311
304 302 300 300 299 300 300 300 299 297 296 299 299 300 303 305 306 309 310 310 311 314 315 313 313 313 311 309 310 310 310 311 311 311 310 312 313 311 310 311 311 314 311 311 312 312 311
305 303 301 300 300 299 299 300 299 297 296 298 298 299 302 302 301 301 306 309 311 312 313 314 313 311 309 312 313 313 313 312 312 312 311 310 312 312 311 313 312 312 310 311 312 314 311
306 304 302 300 300 299 299 299 299 298 297 297 297 297 300 300 303 301 302 305 309 312 313 314 312 311 311 313 314 313 314 312 314 313 310 310 310 311 313 313 316 317 311 312 312 320 314
307 304 303 301 300 300 299 299 299 299 298 297 298 296 297 298 299 301 302 305 308 311 312 313 313 312 311 314 316 316 314 311 312 312 312 312 312 312 312 315 311 313 312 310 320 320 314
307 306 304 302 300 300 300 299 299 299 299 298 298 298 297 297 297 297 298 299 300 305 311 311 313 312 313 315 316 313 312 312 311 311 311 311 312 312 312 314 310 311 310 314 315 313 313
307 306 305 302 301 300 300 298 298 299 299 299 298 298 297 297 297 296 296 296 297 298 300 304 309 312 312 312 312 311 311 311 310 313 311 311 310 310 309 310 310 309 311 311 311 313 312

GFSGBSN_925_thetae_069.txt.gz
Theta_e
310 310 310 309 308 308 307 308 309 309 309 309 309 308 308 307 307 308 306 306 306 307 306 306 304 306 306 307 308 306 307 312 313 319 319 319 315 317 323 323 322 322 320 319 319 320 320
310 310 310 308 308 307 307 307 308 309 309 309 309 308 308 307 308 308 306 306 306 305 306 307 306 306 306 307 304 306 308 307 313 318 318 318 316 317 320 321 322 321 321 321 319 321 320
309 309 309 308 307 307 306 307 308 308 308 308 309 307 307 308 307 307 306 305 306 305 306 307 307 306 306 305 305 306 310 309 313 316 318 318 317 315 316 319 319 321 322 320 319 320 321
309 309 308 307 308 306 305 306 307 307 307 308 308 307 306 308 307 306 306 305 305 306 306 307 307 306 305 304 305 305 306 308 308 314 316 317 317 317 318 318 320 323 319 322 319 320 320
308 309 308 308 307 306 305 305 306 307 307 307 308 307 305 307 307 306 304 304 305 306 306 306 305 305 306 305 306 305 305 306 310 311 316 318 316 317 319 320 321 322 324 321 321 319 320
308 308 307 307 306 306 305 304 305 306 306 307 307 307 306 306 304 304 303 302 303 305 306 306 305 305 305 306 306 305 308 307 311 314 317 319 318 318 319 321 322 325 322 320 321 318 319
307 308 307 307 306 306 305 304 304 305 305 306 306 306 302 305 304 304 304 305 303 304 305 305 305 306 305 306 307 306 310 310 311 315 320 319 320 320 319 319 319 318 320 318 317 317 319
307 307 307 307 306 306 304 304 304 304 304 305 306 306 306 304 304 304 303 302 303 303 305 306 306 307 307 306 309 310 309 310 314 315 317 320 320 316 317 319 321 319 319 317 315 315 318
306 307 307 306 306 306 305 304 303 304 304 305 306 306 306 304 304 304 303 304 304 304 306 307 307 308 308 307 309 308 310 312 315 318 316 319 317 317 319 320 321 320 318 316 316 316 315
306 306 306 306 306 306 305 304 303 303 304 304 305 306 305 305 305 305 304 304 304 304 308 311 310 309 309 307 310 311 312 313 313 317 317 319 318 318 319 319 318 320 316 316 316 316 318
306 306 306 305 306 305 305 304 303 303 303 304 305 306 304 305 305 304 304 305 305 305 313 309 310 308 312 312 311 312 312 314 316 317 317 316 319 319 319 319 319 319 318 317 316 315 316
305 305 305 305 305 305 304 304 303 303 303 304 305 306 303 306 306 305 305 305 305 300 311 312 312 314 313 313 313 314 314 313 313 313 313 313 312 315 317 316 318 320 318 317 316 317 316
304 305 305 305 305 305 304 304 303 303 302 303 304 304 303 305 306 306 305 305 305 307 309 311 315 315 315 315 316 316 317 317 317 315 315 312 313 312 314 315 315 319 320 320 320 316 315
303 304 304 304 305 305 304 303 303 302 301 303 305 305 306 307 306 306 306 306 308 313 312 311 314 316 317 317 316 315 317 318 315 312 314 311 312 315 312 315 316 315 317 313 317 318 316
303 302 304 304 304 304 303 303 303 301 297 304 306 308 307 308 307 307 307 307 310 308 310 315 314 317 316 316 317 317 317 318 316 316 315 314 314 311 312 314 314 318 319 314 313 311 310
301 302 303 303 303 303 303 302 302 299 296 304 307 307 309 307 307 307 304 308 310 312 313 313 315 314 316 315 317 316 315 314 316 314 315 316 315 314 314 314 314 318 317 318 312 314 316
300 301 303 303 302 303 303 300 298 300 298 305 308 308 310 308 308 303 309 307 314 314 312 313 313 314 313 314 314 314 314 313 312 313 313 315 315 317 314 316 318 318 319 316 313 311 312
300 301 302 301 300 300 302 299 297 300 302 304 305 309 311 310 309 305 304 310 312 314 312 312 311 312 312 312 313 313 315 313 311 311 314 313 312 316 316 315 314 315 317 316 313 315 308
300 301 301 301 300 300 301 298 297 294 301 303 303 305 312 312 309 306 312 315 314 312 311 311 312 312 312 312 313 312 314 312 311 312 312 312 311 309 313 310 311 312 312 316 312 310 312
301 300 301 301 301 301 299 298 297 294 302 304 303 306 303 306 308 312 312 313 314 311 312 310 311 310 312 312 311 313 313 312 311 310 310 310 311 311 310 312 310 311 312 312 310 310 312
302 301 301 301 301 301 300 299 297 296 302 304 301 305 304 304 308 308 310 312 314 313 311 311 311 311 311 312 311 312 313 312 311 310 310 310 311 311 311 312 313 312 312 311 307 310 308
304 301 301 300 300 300 299 299 297 296 298 302 299 300 300 302 304 309 309 312 314 313 312 312 311 311 310 312 311 312 312 311 311 310 310 309 307 303 302 310 310 311 311 311 311 310 311
305 303 301 300 300 300 299 299 298 296 297 298 298 299 299 300 303 306 309 308 312 311 312 311 312 312 311 312 311 310 308 308 309 310 310 311 306 304 307 310 309 307 310 310 311 310 311
306 304 302 300 299 298 299 299 299 297 297 298 298 299 298 300 301 302 301 304 308 310 313 313 312 312 310 307 308 309 309 309 309 309 307 310 309 304 306 308 306 305 309 309 310 311 309
307 305 304 302 300 299 298 298 299 298 296 297 298 297 296 297 298 299 301 304 304 307 310 312 311 310 307 310 310 313 313 312 311 310 310 307 312 307 309 309 306 311 310 310 310 311 309
308 306 305 303 302 300 299 298 298 299 297 297 297 297 296 298 296 297 299 300 301 305 309 312 311 309 310 311 313 313 314 312 314 313 309 309 309 307 311 309 314 314 310 310 311 317 313
308 307 306 304 303 301 300 299 297 298 299 297 297 297 296 295 294 296 299 301 302 304 305 310 312 311 310 312 317 311 312 309 311 313 312 311 311 312 309 310 310 309 312 311 319 316 313
308 307 306 305 303 302 300 300 298 298 298 299 297 297 297 293 294 295 295 296 296 298 302 305 308 311 311 313 313 313 310 311 310 308 309 310 312 311 309 314 310 309 310 315 314 312 312
308 307 306 305 304 303 301 300 298 298 299 299 298 298 298 296 295 296 296 296 296 296 297 299 305 304 312 311 309 309 309 307 307 311 306 309 308 308 307 308 306 307 310 311 310 313 311

GFSGBSN_925_thetae_072.txt.gz
Theta_e
310 310 310 308 308 308 307 308 309 309 309 310 309 308 307 308 308 308 307 306 306 306 305 305 304 305 305 307 307 308 307 311 315 314 318 317 315 321 322 322 323 322 321 320 319 322 324
310 309 309 309 308 307 306 307 308 308 308 309 308 308 306 308 308 306 306 305 306 306 306 307 305 304 305 306 305 308 309 310 313 314 317 317 313 315 319 322 322 322 322 320 319 318 319
309 309 308 309 308 307 306 306 307 307 308 308 308 307 306 308 308 305 306 305 306 305 306 307 307 306 306 305 304 305 306 308 312 315 317 317 315 317 317 319 319 321 323 322 320 319 319
309 309 308 308 308 307 306 305 305 307 307 307 308 307 306 307 308 305 304 305 305 305 306 307 305 306 304 303 305 304 305 306 308 314 316 317 316 314 316 316 319 322 320 323 319 319 319
308 308 308 308 308 307 306 305 305 305 306 307 307 307 307 306 306 305 303 303 304 305 306 306 306 305 304 304 306 305 305 306 309 312 316 317 316 315 318 319 320 322 322 321 320 319 320
308 308 308 308 307 307 306 305 305 305 305 306 306 307 307 307 306 305 304 304 305 305 306 306 305 303 304 305 306 307 307 308 312 315 317 318 318 315 316 317 322 322 321 320 320 319 320
308 308 308 308 307 307 306 305 304 305 305 305 305 306 306 304 304 303 304 305 302 302 304 304 305 304 305 306 307 309 308 309 311 315 319 319 320 319 317 317 316 319 320 320 319 317 319
307 308 307 307 307 306 306 305 304 304 305 305 305 306 307 304 304 303 303 302 303 303 305 305 307 307 306 305 309 309 308 310 313 315 318 320 320 316 317 318 319 319 319 319 315 315 317
307 307 307 307 307 306 306 305 304 304 304 305 305 305 306 304 304 304 303 304 304 304 306 307 307 307 307 307 308 308 309 311 313 313 317 320 318 317 318 319 320 320 317 316 316 315 315
306 306 306 306 306 306 305 305 304 304 304 304 305 305 306 306 305 305 303 304 303 304 304 310 309 308 309 306 311 310 311 312 313 312 315 318 316 317 318 320 319 322 316 317 315 316 319
305 306 306 306 306 306 305 305 304 304 304 304 305 306 304 306 305 303 304 304 304 304 311 309 310 308 311 311 311 311 311 313 314 314 317 316 318 317 320 319 317 319 319 316 315 315 315
303 305 305 305 305 305 305 305 304 304 303 303 305 304 303 305 306 306 305 305 304 300 311 311 311 314 314 313 314 312 312 312 313 315 314 314 312 314 316 315 317 318 316 315 315 317 317
302 304 304 304 305 305 304 304 304 303 302 302 304 304 304 305 306 306 305 304 301 306 306 314 315 315 314 316 316 313 313 317 317 315 317 314 314 313 312 314 314 318 315 320 323 323 318
301 302 302 303 304 304 303 303 304 300 299 302 305 306 307 307 306 306 306 300 305 309 309 308 313 315 318 316 315 316 317 316 314 312 314 315 319 316 313 314 314 318 318 313 319 318 314
300 299 301 302 302 302 304 301 303 302 299 302 307 308 307 308 307 306 302 302 304 303 307 313 313 315 317 317 316 316 317 317 315 312 313 314 315 312 312 315 314 317 319 315 309 308 307
300 299 299 299 300 300 300 299 300 296 301 305 308 307 308 307 307 306 302 305 309 309 311 313 314 313 315 316 317 315 316 315 315 313 312 312 316 313 314 314 314 316 316 317 306 311 314
299 298 297 298 298 299 299 298 301 300 302 306 308 307 308 308 308 302 303 301 312 312 311 313 312 313 312 313 313 313 313 312 313 314 313 314 311 314 315 316 317 317 318 315 312 309 311
299 299 297 298 299 299 298 298 297 298 302 305 303 306 309 308 307 301 303 309 312 313 311 311 310 312 312 311 312 313 314 312 310 309 313 312 310 315 316 315 314 316 317 314 313 316 306
300 299 298 299 299 298 298 299 298 296 302 303 302 303 309 309 306 304 309 313 312 312 311 310 311 311 311 312 312 312 313 311 310 311 311 311 307 315 315 311 313 316 316 317 312 306 303
302 300 299 299 299 299 297 298 300 298 302 305 301 302 301 302 305 309 310 311 313 311 311 310 310 310 311 312 311 312 312 311 310 310 310 310 310 308 311 309 309 309 311 315 317 314 310
304 300 300 299 299 300 298 298 299 299 301 302 297 302 302 299 302 305 307 310 312 313 310 310 310 310 310 312 311 312 312 312 311 310 309 308 310 310 309 311 310 310 311 310 309 313 314
304 300 301 300 300 300 299 298 298 299 299 298 297 298 298 299 301 304 307 311 313 313 312 311 310 311 310 309 311 310 311 310 310 310 310 307 305 302 301 309 309 309 310 310 310 309 310
306 304 302 300 300 299 298 298 297 299 298 296 296 297 297 298 300 304 305 301 306 308 310 311 312 311 312 310 310 309 307 307 308 309 308 310 305 302 305 309 307 308 309 310 310 309 310
307 305 303 302 300 299 298 297 298 297 297 297 297 297 295 297 298 300 299 300 305 303 307 310 311 312 310 307 307 307 307 308 307 308 306 308 305 302 304 305 305 307 308 308 309 309 308
307 305 304 305 302 300 299 298 298 297 297 297 297 295 295 294 296 295 298 299 299 298 303 307 309 309 306 310 309 311 312 312 310 309 307 306 308 306 307 307 306 308 309 309 309 309 308
308 306 305 305 304 302 300 299 298 298 297 297 297 297 295 295 294 296 296 298 299 302 306 308 309 308 309 309 312 313 315 311 313 312 307 307 309 307 309 309 312 308 310 307 309 313 309
308 307 305 305 304 303 301 299 298 298 298 297 297 297 295 294 293 295 296 296 298 298 299 301 305 309 309 311 315 311 310 308 312 314 313 312 312 312 310 313 307 306 310 310 316 313 313
309 307 306 305 304 303 302 301 299 298 298 298 297 297 297 293 293 295 295 294 294 295 297 297 298 310 312 313 313 313 310 308 307 307 308 311 313 313 312 313 311 308 309 313 312 311 311
307 307 306 305 304 303 303 302 300 298 298 299 297 298 297 296 297 296 296 296 296 296 295 296 299 300 304 310 310 308 308 306 306 309 305 309 306 309 308 308 305 306 308 307 309 311 311

GFSGBSN_925_thetae_075.txt.gz
Theta_e
310 310 309 309 308 307 307 306 308 308 309 309 309 308 307 308 308 307 306 306 306 306 305 305 304 304 305 305 306 307 307 309 312 314 314 315 316 319 322 323 323 321 321 321 324 323 321
310 309 309 309 308 308 307 306 306 307 308 308 308 307 307 308 308 306 306 306 306 306 306 306 305 304 306 304 305 306 306 312 314 315 314 315 314 317 319 320 323 321 321 323 322 323 321
309 309 309 309 308 307 306 306 306 306 307 308 307 307 307 308 308 307 305 305 306 306 306 307 307 305 305 302 304 307 306 307 312 314 315 317 314 317 317 320 319 320 323 321 320 320 321
309 309 309 309 308 307 307 306 306 306 306 307 307 307 307 307 307 305 305 305 306 306 304 306 306 305 302 303 306 305 306 306 308 314 315 317 316 314 316 315 319 320 320 323 320 320 320
309 309 309 308 308 307 307 306 305 305 306 306 307 307 307 307 307 307 303 304 305 306 306 306 306 304 303 305 305 304 304 307 308 313 315 315 316 314 316 317 319 320 319 322 321 319 320
308 309 308 308 307 307 307 306 305 305 306 306 306 306 306 306 305 306 304 304 305 305 305 305 305 302 303 305 306 307 308 308 312 314 316 318 317 315 314 318 321 320 320 320 321 320 320
308 308 308 308 307 307 306 306 305 305 305 305 306 306 306 305 304 303 303 304 301 301 303 305 306 304 305 305 307 309 308 309 311 314 316 319 318 317 315 315 316 317 318 320 319 318 320
306 307 307 307 307 307 307 306 305 305 305 305 305 305 306 305 304 303 302 302 303 303 304 306 306 306 306 305 308 308 308 311 313 316 315 318 319 315 316 316 318 318 319 318 317 315 318
304 306 307 307 307 307 306 306 305 305 305 305 305 306 306 304 304 304 302 303 304 304 306 308 307 308 307 307 308 308 309 311 312 314 314 317 318 316 318 319 319 317 317 317 318 315 314
302 304 305 306 306 306 306 306 306 305 305 304 305 306 306 305 305 304 303 303 303 304 307 310 310 308 309 306 310 309 310 312 312 313 314 318 316 317 318 319 318 320 316 316 315 316 318
300 302 303 304 305 306 306 306 306 305 305 304 305 307 305 305 305 303 304 304 304 303 306 310 311 309 310 310 309 310 310 313 313 314 313 315 317 318 319 318 317 318 318 315 316 315 315
298 300 300 302 300 303 305 305 305 305 304 304 305 305 304 306 306 305 305 304 303 300 307 312 312 313 314 313 313 311 311 312 313 313 314 315 312 314 315 315 317 317 315 315 315 314 314
297 298 298 299 299 303 304 305 305 305 304 302 305 304 304 305 305 306 305 302 300 305 304 309 315 314 314 315 314 312 312 315 315 316 316 315 315 314 313 314 314 316 317 322 320 320 317
297 297 297 298 299 300 303 302 304 304 303 302 305 305 306 306 306 306 305 298 305 306 306 307 312 315 317 315 315 315 316 317 314 312 316 315 320 315 312 313 315 317 313 315 318 318 314
298 297 296 298 300 298 299 301 302 303 301 304 306 307 307 307 306 306 301 302 302 300 304 311 311 314 317 316 316 316 316 315 314 310 312 311 314 312 313 314 313 316 320 310 308 306 306
298 297 296 298 298 298 298 299 299 299 301 306 307 307 308 307 306 305 301 306 308 307 309 312 314 312 314 317 318 317 316 313 314 312 310 310 312 313 314 314 314 315 314 317 308 314 313
300 297 298 297 297 297 298 300 299 298 301 307 308 306 308 307 307 301 304 301 311 311 311 312 312 312 311 313 315 313 314 312 312 312 311 310 310 314 313 317 317 317 319 318 315 308 311
300 298 298 296 297 297 298 300 300 298 301 305 302 305 308 307 305 300 302 307 311 312 310 311 310 310 311 310 311 311 312 311 310 311 314 312 310 314 315 315 313 314 316 317 311 314 304
301 299 298 296 297 297 298 299 300 298 301 304 301 303 307 307 304 303 307 312 311 312 311 310 310 310 310 311 312 311 312 310 309 310 311 312 312 316 315 313 315 316 316 317 312 304 301
302 300 298 298 297 297 298 299 300 299 299 304 299 299 298 299 302 308 309 310 312 311 310 310 309 309 310 311 309 311 312 310 309 309 311 311 309 311 313 311 311 316 314 315 316 309 308
304 301 299 299 298 297 298 298 300 300 298 300 295 300 299 296 298 303 306 308 312 312 310 309 310 309 311 311 310 310 310 311 310 310 309 308 310 309 307 306 309 309 310 313 315 316 314
305 302 300 300 300 298 298 298 299 301 298 298 295 296 295 296 299 302 305 307 310 308 311 311 310 309 311 309 309 310 310 310 309 308 308 306 305 302 303 308 309 309 309 310 313 314 315
304 302 301 301 301 299 298 298 299 300 299 294 295 297 295 297 298 300 303 300 302 304 307 310 311 311 311 310 309 309 306 307 308 308 307 307 304 301 305 308 307 307 309 308 310 309 311
305 304 302 302 302 300 298 298 298 298 298 296 297 296 293 296 297 297 299 297 300 303 302 301 300 306 310 307 306 307 306 305 305 306 305 306 304 301 303 305 307 307 305 306 308 309 308
306 305 304 304 303 302 299 298 298 298 297 297 296 294 293 294 294 295 297 296 296 297 298 300 301 304 306 309 310 310 310 310 309 306 305 305 306 307 308 307 305 308 307 308 308 309 306
307 306 305 305 303 303 301 299 298 298 297 297 296 296 293 293 295 295 295 296 298 299 301 304 301 301 307 311 312 312 311 309 310 311 306 305 307 308 304 309 310 305 309 306 308 310 310
308 307 306 305 303 302 302 300 299 298 298 297 297 297 295 293 293 294 294 296 295 296 295 296 300 297 308 313 314 312 310 307 310 310 310 311 311 311 309 312 308 304 304 307 313 309 311
309 307 306 305 304 303 303 302 300 298 298 297 297 297 297 296 295 295 294 294 293 294 295 295 296 302 307 312 313 314 310 307 306 307 308 310 313 313 311 313 311 305 309 311 309 310 310
309 308 306 305 304 304 303 302 302 300 298 298 297 297 297 296 297 297 297 296 295 295 296 296 295 297 300 302 301 302 311 305 304 307 304 309 307 308 308 308 305 304 308 308 308 310 311

GFSGBSN_925_thetae_078.txt.gz
Theta_e
310 310 310 309 309 308 307 307 306 307 309 309 309 308 307 309 308 307 305 306 307 307 307 307 305 305 305 304 305 306 307 309 310 313 313 314 316 317 321 323 321 320 323 324 324 322 321
310 310 310 309 308 308 308 306 306 306 307 308 308 307 307 308 308 306 305 306 306 306 307 307 307 303 305 303 306 306 306 308 313 314 313 315 314 315 320 322 322 320 321 324 323 322 321
310 310 309 309 308 308 307 306 306 306 307 307 308 307 307 307 307 307 306 306 305 306 305 307 307 305 304 302 304 306 306 307 312 314 314 316 314 317 317 320 320 321 324 320 322 322 322
309 310 309 309 308 307 307 306 306 306 306 306 307 307 307 308 308 307 305 305 305 304 305 307 306 305 301 303 306 305 305 306 311 314 314 315 315 314 316 316 319 322 322 325 320 322 322
307 309 309 309 308 308 307 307 306 306 306 306 306 306 306 307 307 306 307 304 304 305 304 304 305 304 303 304 305 306 306 307 310 314 315 316 316 314 316 317 319 320 324 321 321 321 324
303 308 309 308 308 308 307 307 306 306 306 306 306 306 306 306 304 303 303 304 305 305 305 305 305 301 302 304 305 306 308 307 310 314 314 316 316 314 315 317 321 323 320 320 320 319 322
299 306 308 308 308 308 307 307 306 306 306 305 305 305 306 306 304 303 303 304 301 300 304 305 305 303 305 305 307 307 308 308 311 313 315 314 317 317 314 315 314 316 317 319 318 318 319
299 302 306 307 307 308 307 307 306 306 305 305 305 305 306 306 304 303 302 301 302 302 304 306 306 305 306 305 306 307 308 311 312 315 313 316 318 313 315 315 317 317 317 318 317 316 318
299 300 302 304 307 307 307 307 306 306 306 305 305 305 306 306 304 303 302 303 303 303 305 309 308 308 307 306 308 307 310 311 313 313 313 316 317 315 317 317 318 316 316 316 317 314 315
300 299 299 300 304 306 306 306 306 306 306 305 305 306 306 305 304 304 302 303 303 304 300 310 310 308 308 305 308 309 310 311 311 314 312 316 316 317 317 319 316 319 315 315 316 316 320
301 298 298 298 302 305 305 306 306 306 305 305 305 307 307 305 304 302 304 304 304 303 304 310 311 309 309 308 307 310 310 312 313 313 313 315 318 316 317 318 316 317 317 315 315 314 315
303 298 297 298 302 303 303 305 305 305 305 304 304 306 305 306 305 304 304 304 303 300 307 312 312 313 313 312 311 311 311 312 311 314 315 315 312 314 315 315 316 316 315 314 313 312 318
304 298 297 298 303 301 299 304 305 305 304 303 303 305 304 305 305 305 305 301 300 304 303 310 315 313 314 314 313 311 313 313 312 311 317 316 315 314 312 314 315 315 317 315 315 320 318
305 298 297 297 300 301 299 301 303 302 302 304 305 305 306 305 306 305 305 298 305 306 306 307 312 314 316 315 313 313 315 315 314 313 317 318 320 316 313 313 316 315 315 313 316 316 313
306 298 297 296 297 299 299 300 301 300 302 305 306 306 306 306 305 306 301 300 303 300 302 311 311 316 315 316 315 315 314 315 313 310 313 312 315 312 314 314 313 316 315 309 311 304 305
307 299 297 296 297 297 299 300 301 299 301 307 307 307 306 307 305 305 299 306 305 305 308 311 313 311 315 315 314 315 316 313 314 310 308 310 311 313 313 314 313 315 312 316 312 315 314
307 300 298 296 297 297 298 300 300 299 301 308 308 305 306 307 306 299 301 299 309 309 310 311 311 312 310 314 314 313 313 312 312 312 310 308 309 314 314 316 318 318 318 314 311 308 310
307 301 297 296 297 297 298 300 300 300 301 306 302 304 307 307 303 298 301 306 309 311 309 310 310 310 310 310 312 312 312 311 309 311 313 310 308 310 314 314 312 315 316 316 318 314 305
307 301 298 297 298 297 298 300 300 300 301 305 301 302 304 306 302 300 304 309 310 312 310 309 310 309 309 310 312 309 310 309 309 312 311 310 309 312 316 313 314 316 315 315 313 308 303
307 302 298 298 298 298 299 301 301 300 299 304 297 299 297 298 299 306 306 308 310 309 310 309 308 308 309 309 307 310 311 310 308 309 313 313 310 309 310 310 310 316 313 314 316 317 315
307 302 299 299 298 298 300 301 301 301 298 299 293 299 297 296 297 301 304 307 309 311 309 308 309 308 309 310 309 309 309 310 309 310 310 311 311 309 309 307 310 311 313 314 316 316 317
307 303 300 300 299 299 300 301 302 301 298 298 295 295 293 295 297 300 303 307 305 305 307 309 309 308 309 310 308 309 309 309 309 307 307 306 310 304 304 307 308 310 308 309 313 314 315
307 303 300 301 301 301 301 301 301 301 299 294 294 297 294 296 297 297 300 300 300 300 301 305 301 300 306 310 308 307 306 307 307 307 306 306 306 304 307 307 306 306 308 308 308 310 312
307 304 301 302 301 302 299 300 300 300 299 296 296 294 293 297 296 296 298 296 297 298 302 300 299 300 301 306 306 306 306 305 305 306 305 305 304 303 304 305 308 305 305 306 307 308 309
306 303 303 304 303 301 299 299 300 298 298 297 295 293 292 296 294 295 296 296 295 296 298 298 300 299 300 306 306 312 310 310 308 305 304 304 305 310 312 308 305 307 305 306 307 308 305
306 305 305 305 304 302 300 299 299 299 297 297 296 296 292 294 295 294 295 295 297 296 297 298 297 297 299 307 310 314 313 310 310 309 303 305 306 311 306 311 310 303 309 305 306 309 308
307 306 306 305 304 302 302 300 300 299 298 298 297 296 294 293 292 293 294 295 294 295 295 294 296 295 298 307 310 311 312 308 310 310 309 310 311 312 311 312 307 304 303 305 312 308 310
307 307 306 305 304 302 302 301 301 299 298 298 297 297 296 293 293 294 293 294 294 293 297 296 295 299 302 307 311 311 311 309 307 306 307 310 310 312 311 313 311 303 307 309 307 308 310
308 307 306 305 304 303 303 302 301 300 299 298 297 297 297 296 295 297 297 296 296 295 296 296 294 295 297 299 300 301 308 307 306 309 303 309 307 308 307 307 304 303 307 306 305 308 310

GFSGBSN_925_thetae_081.txt.gz
Theta_e
310 310 309 309 308 309 308 307 307 306 307 308 309 307 307 307 307 306 306 306 307 307 308 308 307 304 305 303 304 306 307 308 310 313 314 315 315 316 321 322 320 321 324 325 323 320 320
310 310 310 309 309 308 308 307 307 306 307 308 307 307 307 307 307 307 306 306 306 307 307 307 306 303 303 303 305 306 306 308 311 313 314 315 315 314 318 321 322 320 323 324 321 321 321
310 310 310 309 309 308 308 307 307 306 307 307 307 306 307 307 308 307 307 306 306 305 306 308 306 303 302 302 304 304 305 306 311 314 313 315 314 316 317 321 320 321 323 321 323 322 323
310 310 310 309 309 308 308 307 307 306 306 306 306 306 306 307 308 307 308 306 303 302 304 307 304 303 301 303 305 305 305 307 311 314 313 315 314 314 316 316 320 323 322 325 322 321 322
307 309 309 309 309 308 308 308 307 306 306 306 305 306 306 306 307 307 304 304 304 303 305 305 304 302 302 304 305 306 308 307 310 313 313 315 314 314 315 319 322 321 324 322 323 321 323
306 306 309 309 308 308 308 308 307 306 306 306 305 305 305 306 306 305 302 304 305 304 304 305 304 300 302 305 305 307 307 307 310 313 314 316 315 316 317 318 323 323 323 321 322 322 322
308 302 306 308 308 308 308 307 307 307 306 306 305 305 305 306 306 305 302 304 300 300 304 305 305 303 304 305 307 307 307 308 310 313 312 315 317 319 315 315 314 317 319 320 318 318 323
309 301 303 307 308 307 307 307 307 307 307 306 305 305 305 306 306 304 302 300 301 302 305 305 306 305 305 306 306 306 308 309 311 313 312 314 318 313 314 316 317 317 318 319 317 316 321
309 303 299 305 307 307 307 307 307 306 306 306 305 305 306 306 305 303 302 303 303 303 305 308 307 307 307 306 308 307 310 311 311 312 313 314 316 314 316 317 317 316 317 316 318 315 316
309 305 299 301 305 305 306 306 307 307 306 305 305 306 306 305 304 303 302 303 303 303 305 311 310 308 308 305 307 309 309 310 311 313 313 316 315 316 316 316 315 319 315 315 316 318 323
310 307 299 299 301 302 305 306 306 306 305 305 306 307 306 305 303 302 303 304 303 302 309 309 311 310 308 306 306 308 310 311 312 311 313 316 317 317 317 317 314 316 315 314 313 314 316
310 308 299 298 298 300 302 302 305 306 305 305 306 306 304 305 305 304 304 303 302 300 307 312 312 312 312 311 310 310 310 310 311 313 313 315 312 314 315 315 315 314 314 313 312 313 319
311 309 299 298 297 298 299 301 305 305 305 305 304 305 305 305 304 305 304 301 300 305 302 309 312 312 313 312 311 311 313 312 313 313 316 316 316 313 312 315 315 316 315 319 317 319 318
311 309 300 297 296 298 298 301 304 301 304 305 305 305 305 305 305 305 304 300 305 306 306 307 311 313 315 313 312 312 314 313 312 312 316 318 318 316 313 313 316 316 316 315 317 318 315
311 309 300 297 296 297 298 300 301 300 302 305 305 306 306 306 305 306 299 301 302 300 302 310 310 316 313 315 314 312 315 313 312 310 315 316 316 313 314 313 313 315 318 310 312 305 310
311 309 301 297 296 297 298 300 301 300 301 305 307 306 306 306 305 304 299 306 305 304 306 310 312 309 314 315 313 314 313 311 313 310 308 311 313 314 314 314 313 315 311 316 315 316 317
311 308 301 297 296 297 298 300 301 300 302 307 307 304 306 306 305 298 301 300 307 307 308 310 310 311 309 313 313 312 311 311 311 311 309 308 309 314 314 316 318 317 317 314 312 310 315
311 308 301 297 297 297 298 300 301 301 303 306 302 303 306 306 301 297 300 307 308 310 308 310 309 309 310 309 315 311 311 310 309 310 313 309 309 314 315 313 313 315 315 316 318 314 306
311 307 302 298 297 298 300 301 301 301 302 304 301 302 302 305 299 297 302 307 310 311 309 309 309 308 308 310 311 310 309 308 309 311 311 310 311 314 314 313 313 316 315 316 311 310 305
312 306 302 298 298 298 300 301 301 301 300 303 296 299 296 297 297 304 306 306 309 308 310 309 308 307 308 309 308 310 309 309 308 311 313 312 311 310 312 309 309 314 314 314 315 316 313
312 306 302 298 299 299 300 301 302 301 299 299 293 298 296 295 297 300 303 305 308 310 307 307 309 305 308 310 308 308 307 309 308 309 313 314 315 311 310 307 311 311 312 312 314 314 315
312 307 302 299 300 300 300 301 301 301 299 298 295 296 292 294 296 300 302 305 305 304 303 307 308 301 307 310 310 310 310 309 309 307 308 307 313 307 307 308 307 309 309 311 312 312 313
312 307 302 300 302 301 301 301 300 300 298 295 294 296 293 294 295 296 298 301 300 298 298 302 300 299 301 303 307 305 305 306 309 308 306 307 308 309 313 307 306 307 308 310 311 310 312
311 307 302 302 302 302 301 300 300 300 300 298 295 294 293 296 296 296 298 297 297 296 299 300 298 298 299 298 301 305 305 307 304 304 305 306 306 308 312 306 310 306 304 306 308 309 309
310 306 302 303 304 302 301 300 299 299 299 299 296 294 293 295 293 295 296 295 294 295 297 298 298 297 298 299 305 305 311 310 311 306 304 306 306 310 312 308 305 307 304 304 306 306 305
309 306 302 304 304 302 300 299 299 298 298 298 296 296 292 294 294 294 294 294 295 295 294 296 295 295 295 302 306 308 309 311 311 309 302 304 309 313 307 309 310 304 307 304 305 310 306
308 306 303 305 304 302 300 299 299 298 298 298 296 296 295 294 292 292 294 294 293 294 294 293 294 294 296 303 306 305 306 310 312 311 309 309 311 313 310 310 308 303 304 304 312 308 308
308 305 305 305 304 303 301 300 299 299 298 298 297 297 296 293 293 292 293 293 293 292 295 295 294 296 297 302 299 304 307 306 308 307 308 311 311 311 311 312 312 303 304 308 306 307 309
307 306 306 305 303 302 302 301 300 299 299 298 297 297 296 295 294 296 296 296 296 295 296 296 295 294 294 293 294 293 301 303 306 311 304 310 306 307 307 308 304 302 306 304 304 306 309

GFSGBSN_925_thetae_084.txt.gz
Theta_e
311 311 311 310 310 309 308 308 307 307 308 308 308 308 308 307 307 307 307 307 307 307 308 308 307 304 305 305 306 306 307 307 310 312 315 317 318 318 319 321 324 325 325 325 325 324 325
311 311 311 310 310 309 309 308 307 307 307 307 307 308 307 307 308 308 307 307 306 307 307 308 307 302 304 306 304 305 305 308 310 314 315 316 317 316 319 322 323 322 325 326 324 323 323
309 310 310 310 310 309 309 308 307 307 307 307 307 307 306 306 308 308 308 307 306 305 306 308 304 304 306 306 305 305 305 307 309 313 315 315 316 318 318 322 321 322 325 326 325 325 325
310 307 310 310 310 309 309 309 308 307 307 307 306 307 306 306 307 307 308 307 303 304 303 305 304 304 305 303 305 306 307 308 312 313 314 315 315 317 319 320 322 322 322 325 325 325 324
311 307 306 310 309 309 309 308 308 307 307 306 306 305 306 306 307 307 304 304 304 304 305 304 305 304 305 305 306 307 308 309 312 314 314 315 315 317 319 322 323 323 323 322 326 324 324
311 309 302 307 309 309 308 308 308 307 307 307 306 305 305 305 306 305 302 304 304 304 304 303 305 304 306 307 307 307 308 309 312 313 314 315 317 319 320 322 323 323 322 321 322 324 324
312 310 304 302 308 308 308 308 308 307 307 306 305 305 305 305 306 305 302 304 304 306 306 307 307 306 306 307 307 308 308 309 312 313 314 312 319 319 317 319 318 320 321 322 321 322 323
314 310 306 300 305 307 308 308 308 307 307 306 305 305 305 306 305 304 301 304 304 304 309 307 307 307 306 306 306 309 309 311 313 314 313 313 318 316 317 318 318 319 319 319 319 320 323
316 310 307 300 302 305 306 307 307 307 307 306 305 305 306 306 305 303 303 304 303 303 310 309 309 308 308 307 309 310 310 311 312 313 314 315 316 315 317 318 319 318 318 319 320 319 322
318 311 308 300 298 298 300 301 306 307 307 306 305 305 306 305 304 303 303 303 303 303 315 311 310 310 309 308 310 310 311 311 311 312 313 316 315 316 317 318 318 320 318 319 319 321 322
319 311 308 300 298 297 298 299 306 306 307 306 305 306 305 305 304 305 303 303 303 304 318 310 312 310 309 308 309 311 311 313 313 313 315 317 316 316 318 318 317 318 317 319 319 321 320
319 311 309 301 298 297 298 299 302 306 305 305 306 305 305 305 305 304 303 303 304 314 317 313 313 313 312 311 310 310 312 312 313 315 314 315 314 315 315 317 316 316 317 318 317 318 321
320 312 309 302 298 297 298 299 302 306 305 305 304 305 305 305 307 304 304 305 316 319 306 312 312 312 312 312 312 311 313 314 316 317 318 316 317 316 316 318 317 318 319 321 323 323 319
321 312 310 302 298 297 298 300 301 302 302 305 305 305 305 305 305 304 305 308 321 311 313 310 312 312 315 313 312 311 312 314 314 315 317 320 319 317 316 317 319 317 317 317 317 317 316
322 312 310 303 298 297 298 300 301 301 302 305 306 306 306 305 305 305 306 321 314 312 309 312 313 315 314 315 314 313 312 312 313 315 319 319 317 314 315 314 316 319 321 315 318 312 317
322 313 310 303 298 297 298 300 301 301 302 305 306 307 307 306 305 305 311 313 312 307 308 312 315 313 314 315 314 313 313 312 314 313 312 315 317 315 315 314 315 317 315 319 320 321 319
321 313 310 303 298 297 298 300 301 301 304 306 307 311 306 305 305 307 319 312 311 309 310 313 313 313 313 315 314 314 314 313 314 314 311 313 315 316 316 318 320 317 317 317 316 317 319
319 313 311 303 298 297 298 301 301 301 305 306 307 313 305 305 311 307 314 310 309 311 310 312 311 312 312 312 315 314 316 314 313 312 314 311 313 317 316 315 315 316 316 316 318 317 316
317 313 310 303 298 298 299 301 302 301 304 305 309 309 301 305 314 311 307 308 311 313 312 311 311 311 310 312 313 313 313 312 313 313 314 312 317 318 316 315 314 317 316 316 316 315 319
315 313 310 303 298 298 300 302 302 300 302 304 305 310 302 303 303 307 306 308 310 309 311 311 311 309 310 311 311 312 312 311 311 313 313 312 315 316 316 314 314 316 315 316 318 321 316
316 313 309 302 298 299 301 302 302 300 301 301 301 304 301 309 303 304 305 306 308 309 310 308 311 310 311 310 310 311 311 311 311 312 313 313 317 315 313 311 313 314 314 315 317 317 317
315 312 307 302 298 300 301 301 302 300 299 298 303 303 298 299 300 303 303 306 308 307 305 307 310 307 305 309 310 313 309 311 313 311 314 313 316 314 315 314 313 313 313 314 314 315 315
316 312 307 300 299 300 301 302 300 300 299 299 295 296 301 298 300 301 301 304 303 300 301 301 302 302 302 302 303 305 306 305 302 309 313 313 313 314 317 312 312 315 312 312 313 313 314
316 313 307 300 301 301 301 301 300 299 298 298 296 299 301 300 300 300 299 299 299 299 299 299 299 300 300 299 300 302 303 305 304 306 305 312 313 314 314 310 315 310 306 309 311 311 312
315 311 305 300 302 301 301 300 299 299 299 299 297 298 302 300 299 298 298 298 298 298 299 299 299 299 297 298 303 306 307 306 308 308 309 310 312 315 315 314 311 311 307 307 309 310 309
314 311 303 302 303 302 301 300 299 298 298 298 297 297 300 301 299 298 298 297 299 299 299 298 297 296 298 300 305 308 306 310 314 309 303 307 311 314 313 314 313 308 309 306 307 312 309
314 308 302 303 303 301 300 299 299 298 298 298 297 297 298 301 296 296 299 299 297 297 298 297 297 297 299 303 306 308 307 310 311 313 310 311 314 315 313 314 312 309 308 307 310 312 311
314 308 302 304 303 301 300 300 299 298 298 298 296 297 298 299 296 294 296 297 296 297 298 298 298 298 299 302 302 303 306 309 310 310 311 313 314 313 313 314 313 306 307 310 310 310 311
313 308 303 304 302 301 300 300 300 298 298 298 297 297 297 298 298 295 295 296 297 297 297 297 297 297 297 298 299 298 301 303 305 309 307 313 311 312 312 311 308 306 309 308 309 310 311

GFSGBSN_925_thetae_087.txt.gz
Theta_e
313 309 308 311 311 311 310 309 309 308 308 308 309 309 307 309 309 308 308 308 307 307 307 309 308 302 306 307 306 304 307 307 310 312 316 319 318 318 318 320 324 326 326 325 327 327 326
314 312 309 310 311 310 310 309 309 308 307 308 308 307 307 306 308 309 309 308 307 307 307 309 306 304 306 307 306 306 306 308 310 314 316 317 317 317 317 318 322 324 327 326 326 326 326
313 313 311 309 310 310 310 309 309 308 307 307 307 307 307 306 307 308 309 309 307 306 303 307 306 305 306 306 306 306 307 307 310 315 316 316 317 316 317 319 319 321 325 325 325 326 326
315 312 311 310 309 309 310 309 309 308 307 307 306 306 306 306 307 308 308 307 305 305 304 306 303 306 306 305 306 307 308 309 312 314 315 315 316 318 319 319 321 321 323 328 325 325 325
318 313 311 310 309 307 309 309 309 308 307 307 307 306 306 306 306 307 306 303 304 304 304 305 306 306 306 306 307 308 309 311 313 314 315 314 316 317 320 322 323 322 323 324 325 324 324
321 316 311 310 307 304 308 309 309 308 307 307 306 305 305 306 306 305 303 303 305 305 306 305 306 307 306 307 307 308 309 312 313 314 313 313 317 318 319 320 322 322 320 319 322 325 324
324 319 313 309 306 303 304 308 308 308 307 307 306 305 305 306 306 305 304 306 308 309 307 308 308 307 307 307 307 309 309 312 313 315 314 312 319 319 318 318 318 317 319 318 318 321 324
324 321 314 310 304 303 302 305 307 308 307 307 306 305 306 306 305 304 303 306 306 308 310 308 308 307 307 308 309 310 310 312 313 315 315 316 320 317 316 317 319 320 319 320 319 320 321
326 322 316 310 306 301 303 300 303 307 307 306 306 305 306 306 305 305 305 306 305 306 312 310 309 308 309 308 310 311 311 312 313 314 316 317 318 316 317 318 319 319 319 321 320 320 320
326 323 317 311 307 300 299 300 300 305 307 306 306 305 306 305 306 305 306 305 305 305 316 311 310 310 310 309 311 311 312 313 313 313 315 316 316 317 317 317 317 319 318 317 319 321 322
327 323 318 311 308 300 298 299 300 304 306 305 305 306 306 306 307 308 306 305 305 307 321 311 312 310 310 310 310 312 312 313 312 313 315 318 317 317 318 316 316 318 318 319 319 320 321
325 324 319 312 308 300 298 299 300 303 306 305 305 305 305 306 307 306 306 305 306 315 318 313 313 312 311 310 310 311 313 313 312 314 315 316 316 315 316 317 317 318 318 318 319 320 325
325 324 320 313 309 300 297 299 301 302 303 304 305 305 307 307 309 305 306 307 315 322 310 314 313 313 312 312 312 311 313 314 317 318 319 316 318 316 316 318 317 317 318 322 322 323 321
323 324 321 313 309 301 297 299 301 302 301 305 306 306 305 307 307 306 307 311 322 314 315 313 313 313 314 313 312 311 313 314 314 316 319 319 321 317 316 317 316 316 318 319 319 318 317
323 324 321 313 310 301 297 299 301 302 302 305 306 308 309 307 307 307 311 318 317 317 314 314 315 316 315 315 314 313 313 313 313 314 319 322 322 316 317 316 317 318 321 316 319 316 317
324 322 321 313 310 301 297 298 300 302 302 306 309 310 310 307 306 308 314 316 315 311 311 313 315 314 314 315 315 314 313 312 312 313 315 319 321 317 316 316 317 319 316 319 320 319 316
323 321 321 312 310 301 297 298 300 302 303 306 310 313 308 307 306 311 314 315 313 312 312 314 314 313 313 314 314 315 314 313 312 313 312 314 317 318 317 318 316 318 318 318 317 314 317
322 320 320 312 310 301 297 298 301 301 305 306 311 315 307 307 315 313 315 311 309 312 312 313 313 313 313 313 313 314 314 315 313 313 315 314 317 322 317 316 316 316 315 315 319 317 316
321 320 320 312 310 301 298 299 301 301 306 308 311 312 304 307 317 314 309 309 311 313 313 313 313 312 311 312 312 312 313 312 313 315 314 313 317 318 319 318 316 319 319 318 316 316 323
323 319 318 313 309 300 298 300 301 301 306 306 309 312 305 307 307 308 307 307 308 311 312 311 312 311 311 310 310 310 311 312 312 314 315 315 316 316 318 317 315 317 316 316 319 323 318
320 319 316 312 307 299 298 301 302 301 301 304 306 308 307 311 306 306 306 306 306 307 310 310 310 310 310 309 306 306 307 309 311 313 314 312 317 317 315 312 314 316 316 315 318 318 319
321 316 315 312 304 298 299 302 301 301 303 302 306 306 302 304 303 305 304 307 307 306 307 303 307 306 306 304 302 303 306 308 311 312 312 314 317 315 317 316 314 315 314 315 315 315 316
319 314 313 311 302 298 300 302 301 300 302 303 300 300 306 302 304 304 304 305 304 303 302 302 303 303 301 301 302 302 303 304 307 306 309 310 313 316 319 316 315 317 315 315 315 314 315
315 314 314 312 300 299 301 301 301 300 299 301 302 304 305 304 303 303 302 303 302 302 302 301 300 301 301 300 300 301 302 303 303 305 304 308 309 315 317 314 318 312 310 313 314 313 313
313 315 313 309 299 300 301 301 300 300 299 299 299 304 305 303 303 302 301 301 301 300 300 300 300 300 299 299 302 305 308 306 306 305 306 306 309 316 316 314 311 311 308 309 310 310 310
312 316 313 306 299 300 301 300 300 299 298 298 297 300 305 304 302 301 301 300 301 301 301 300 299 298 300 302 304 307 307 308 311 310 305 307 307 314 317 317 312 310 308 307 309 311 311
314 313 309 302 300 301 300 299 299 299 298 298 298 299 303 303 300 300 301 301 300 300 301 300 299 299 300 303 307 309 309 308 311 313 310 311 311 313 315 314 312 310 309 309 310 313 313
313 313 310 301 301 301 299 299 298 298 298 298 297 298 302 303 299 298 299 299 299 299 301 300 300 301 302 303 303 305 306 307 308 309 312 313 314 316 315 315 313 309 309 310 311 312 311
313 309 308 301 301 300 299 299 298 298 298 298 298 297 300 303 300 297 297 297 298 298 299 298 300 298 300 302 302 302 304 304 306 308 309 311 311 314 312 311 309 308 310 309 309 310 311

GFSGBSN_925_thetae_090.txt.gz
Theta_e
316 315 313 312 312 312 311 311 310 309 308 308 309 309 309 308 308 310 309 309 308 308 307 308 309 306 307 307 307 307 306 308 309 311 313 318 319 319 319 322 321 323 322 326 327 327 328
320 316 314 312 312 311 311 311 310 309 308 308 308 307 307 307 307 308 309 309 309 308 307 307 308 305 308 307 306 307 306 308 309 313 316 318 318 317 318 320 323 321 320 325 326 328 326
321 320 315 313 311 311 311 311 310 309 309 308 308 307 307 307 307 307 309 309 309 306 307 307 307 307 305 305 307 307 308 309 309 314 316 317 317 319 318 318 321 321 322 325 327 326 326
324 322 318 313 311 311 310 310 310 309 309 309 307 307 307 307 307 307 308 308 305 304 305 304 306 307 305 305 306 308 309 310 312 315 316 315 316 318 319 319 320 324 325 326 324 325 326
324 323 321 317 312 308 310 310 310 310 309 309 307 307 306 306 307 307 307 303 303 304 304 304 307 306 306 306 307 308 309 312 314 314 313 314 316 318 319 320 321 321 325 324 325 325 325
323 324 323 319 313 308 308 308 310 309 309 308 307 306 306 306 307 306 305 302 304 305 307 306 307 307 307 307 307 309 310 312 314 313 313 314 316 319 319 322 324 322 320 321 324 325 324
322 324 323 321 316 310 305 303 309 309 309 308 306 306 306 306 306 305 304 306 309 310 307 307 307 307 307 308 309 310 310 313 313 314 315 313 319 320 317 318 316 318 318 318 320 324 325
322 323 324 323 319 311 304 301 308 308 308 308 307 306 306 306 306 304 305 308 307 308 310 308 307 307 308 308 311 311 312 313 314 315 314 316 320 316 316 317 318 319 316 317 320 322 324
321 322 324 324 320 313 306 301 305 303 308 308 306 305 306 306 304 306 306 307 306 307 313 310 309 308 309 309 311 312 312 313 313 314 316 316 319 317 318 318 319 320 319 319 321 320 319
323 321 323 323 320 315 308 300 301 300 308 307 306 305 306 305 307 307 307 305 306 307 314 311 310 310 310 309 311 311 312 314 312 314 315 317 316 317 318 319 318 320 318 320 321 320 321
323 320 323 325 321 317 308 300 299 300 307 307 305 305 305 307 308 309 307 306 306 308 319 312 313 310 310 311 311 312 312 314 313 313 315 318 317 317 319 317 316 319 318 320 320 319 318
324 321 321 325 323 318 309 300 298 300 305 307 304 305 305 307 308 307 306 306 307 316 314 312 312 313 312 310 310 312 313 313 313 313 314 315 315 317 316 317 316 318 319 318 318 318 321
315 322 321 323 323 318 309 300 298 300 304 305 304 306 308 308 309 306 307 308 317 320 311 314 313 312 312 312 311 312 314 314 315 316 314 315 317 316 317 319 318 318 319 321 321 322 318
313 320 322 321 322 317 309 300 298 301 303 304 306 306 307 308 307 306 308 313 319 314 314 313 314 313 314 312 313 311 312 312 313 315 317 313 318 317 316 318 318 317 318 321 319 318 315
312 313 321 322 320 318 308 299 299 301 302 305 307 308 308 308 307 308 311 318 319 317 314 314 313 314 316 314 313 313 312 312 312 313 318 317 316 315 316 316 316 316 316 316 320 316 314
313 313 321 322 320 319 307 299 299 301 302 306 309 310 309 308 306 308 313 317 315 312 312 313 314 314 314 316 315 314 313 312 311 312 314 318 319 316 316 316 317 319 317 319 316 315 316
308 314 321 320 319 318 307 299 299 301 302 307 310 313 309 307 307 311 311 317 313 312 312 313 314 313 312 313 315 314 314 312 311 312 313 316 318 318 316 317 318 319 321 320 317 314 312
309 313 320 320 320 318 308 298 299 301 303 307 312 316 308 307 314 316 319 312 310 312 312 312 313 313 313 312 311 311 314 311 314 314 314 313 316 317 318 316 315 316 317 319 321 318 314
309 313 317 320 321 320 308 298 299 302 305 308 313 311 306 308 319 318 310 308 310 313 313 313 313 312 311 311 311 309 310 313 313 315 315 313 314 319 320 317 317 318 316 316 316 316 315
311 311 318 320 321 318 307 298 300 302 305 309 311 311 306 308 308 309 309 308 309 311 312 311 311 310 310 310 308 309 309 310 311 312 315 313 315 313 315 317 316 317 317 317 317 320 316
308 310 318 318 319 316 306 298 300 302 307 307 307 311 310 310 307 308 306 307 306 307 309 309 310 310 307 309 306 305 302 302 306 310 312 310 313 315 314 314 315 316 316 317 318 318 317
308 309 312 316 319 315 304 298 301 301 306 303 307 306 302 304 304 305 305 306 307 307 307 304 306 304 304 304 303 301 302 303 305 307 309 307 314 311 316 316 316 316 315 315 315 316 317
308 310 312 313 316 313 302 298 301 301 305 303 302 302 306 303 304 304 305 306 306 304 303 303 302 301 301 301 301 301 300 300 304 305 305 306 309 312 317 315 313 316 314 314 314 314 315
307 308 313 312 313 311 299 299 301 301 301 303 301 303 306 304 302 303 303 303 303 303 303 302 301 301 300 299 299 299 299 300 300 303 304 305 305 308 317 315 316 313 309 312 314 313 313
305 306 313 311 314 305 298 300 302 301 302 300 301 304 305 304 302 302 302 302 301 300 300 301 300 299 298 299 302 305 308 306 306 303 304 304 305 309 316 315 312 309 308 311 312 311 310
305 306 308 309 312 302 298 301 302 301 300 299 299 302 306 303 302 302 301 301 301 301 301 301 299 298 299 303 304 306 306 306 312 309 305 305 304 310 314 315 316 310 307 307 308 309 310
305 309 311 311 308 302 300 301 301 300 299 298 298 300 304 303 300 300 301 301 300 300 300 300 299 299 300 303 305 308 307 307 309 311 308 310 309 307 312 314 312 308 307 308 310 313 313
305 306 310 311 306 300 300 301 301 299 299 298 298 301 303 302 299 299 300 299 299 299 301 299 300 300 301 303 303 304 305 305 305 307 310 310 310 312 311 312 314 308 308 309 310 310 311
305 307 309 308 304 300 301 300 299 299 298 298 298 301 302 301 298 298 298 298 298 298 299 298 299 298 299 301 301 299 302 301 303 304 308 309 310 311 314 313 308 307 308 307 307 307 310

GFSGBSN_925_thetae_093.txt.gz
Theta_e
324 321 320 317 313 312 312 312 311 310 310 309 309 308 309 308 308 308 309 310 310 309 308 306 308 306 307 306 306 306 307 309 309 310 313 315 316 318 321 321 322 324 322 325 326 328 327
324 323 321 320 314 311 312 312 311 311 310 310 309 308 307 308 308 308 308 309 309 309 307 306 307 306 307 306 306 307 307 308 309 311 314 315 317 318 317 320 321 321 322 321 324 326 327
322 324 323 322 318 313 309 311 310 310 310 310 310 309 307 308 308 307 308 309 309 305 304 303 305 308 305 305 306 308 309 309 309 313 316 316 315 318 317 320 321 321 322 321 321 326 327
322 321 324 323 321 315 310 306 308 310 310 309 310 309 307 306 307 307 306 303 305 304 303 305 306 308 304 306 307 308 309 311 314 314 315 314 314 317 318 317 321 324 323 324 323 325 325
323 322 322 323 321 318 312 306 307 309 310 309 309 308 307 306 307 306 303 302 303 305 306 305 307 307 306 306 307 309 310 314 312 312 312 313 315 316 317 317 321 321 326 323 323 323 325
324 323 322 322 321 320 314 309 303 309 310 309 309 308 307 306 307 305 302 303 303 304 307 307 306 305 306 307 308 309 310 313 313 312 311 312 314 315 314 316 321 322 323 323 322 323 324
319 321 323 322 322 320 318 310 303 306 307 307 308 307 306 306 306 304 303 306 307 306 307 307 307 307 307 308 310 310 311 313 313 311 311 311 314 316 316 317 317 318 318 319 321 323 322
316 318 321 323 321 321 320 311 304 303 303 305 308 307 306 306 305 303 306 306 306 307 308 307 308 308 308 309 311 311 311 313 313 313 313 313 316 316 316 315 316 318 317 318 321 324 324
312 314 317 323 320 322 320 313 305 301 301 303 307 306 305 305 304 306 306 306 306 307 310 310 308 308 308 309 310 311 312 312 313 315 316 314 317 317 317 317 318 318 317 317 322 322 322
309 311 313 317 322 322 320 314 307 300 301 302 307 305 305 305 308 306 306 305 305 307 302 309 312 309 310 309 311 310 311 313 311 314 314 315 316 316 317 319 317 320 319 319 320 321 321
306 309 310 315 322 321 320 316 307 300 301 303 306 305 305 307 308 308 306 304 305 307 302 308 312 310 311 311 310 312 311 314 313 314 313 314 316 317 318 317 315 318 318 319 320 318 317
305 307 308 309 314 322 320 317 309 299 300 303 305 305 305 306 308 306 306 305 306 305 301 311 313 314 313 310 311 312 313 312 313 312 313 315 314 315 315 316 316 316 318 317 316 316 315
302 305 306 307 312 321 320 316 307 299 300 303 304 305 306 308 309 306 306 306 306 302 306 309 313 312 312 312 311 312 314 313 313 313 313 310 313 315 315 317 317 317 318 319 314 313 314
301 302 304 307 309 318 318 316 306 299 301 303 304 306 307 308 306 306 307 304 302 311 308 309 313 313 313 312 312 312 311 314 312 313 313 306 305 315 315 316 316 317 316 315 318 317 313
300 302 302 305 308 311 319 317 309 299 302 303 306 306 307 307 306 307 306 306 305 310 310 314 313 314 314 313 312 312 311 310 310 312 317 311 312 315 315 315 315 314 315 314 316 315 309
300 301 302 305 306 310 319 317 305 299 302 306 308 309 308 307 307 308 309 311 311 312 312 312 313 312 313 313 313 312 312 310 310 309 310 315 314 315 315 315 316 317 315 316 316 321 317
300 301 303 305 305 311 319 315 305 300 302 308 310 310 308 307 307 309 300 310 312 311 311 312 313 312 311 310 313 312 312 311 311 311 311 315 316 317 316 316 317 318 318 318 315 313 311
301 303 304 305 305 310 318 311 302 300 304 308 309 311 307 306 310 309 306 311 310 311 310 311 312 312 312 311 310 309 313 311 312 313 314 314 316 318 320 316 314 316 317 318 312 316 311
301 303 304 304 311 313 315 311 300 301 305 308 310 308 307 307 312 309 309 307 310 311 311 312 312 311 310 310 310 308 307 310 309 312 314 313 315 316 318 316 315 317 317 317 317 313 307
302 303 303 308 310 314 314 310 300 301 304 310 307 308 303 307 306 308 309 307 309 308 310 311 310 309 309 309 307 307 305 307 306 309 312 311 310 314 316 316 316 318 316 316 317 318 313
301 303 305 308 311 312 312 308 299 301 304 309 305 307 304 307 306 305 303 306 307 309 309 308 309 309 305 307 305 305 301 301 305 307 309 309 311 314 313 313 315 316 316 317 317 316 314
304 305 304 309 309 313 312 307 299 302 306 307 304 303 300 302 303 304 306 303 305 306 306 304 307 302 301 302 301 300 301 301 302 303 305 305 311 310 311 313 315 314 316 316 317 317 316
303 303 305 309 310 313 311 304 299 302 307 305 303 302 300 301 300 301 302 303 306 302 301 302 300 299 299 301 299 299 298 298 297 300 303 303 306 302 312 315 313 315 313 315 314 315 316
303 305 305 307 310 312 310 303 299 301 306 304 302 301 301 299 299 301 302 302 303 302 301 300 299 299 299 296 296 297 297 297 297 301 301 301 301 301 307 314 314 311 310 312 313 312 313
303 303 305 306 309 311 310 305 299 302 306 302 301 303 301 299 298 300 301 300 299 299 299 300 299 297 296 298 300 303 301 302 304 302 302 300 301 302 309 315 312 309 308 312 312 312 311
302 303 306 307 312 311 310 306 299 302 305 302 300 302 302 298 297 299 298 299 297 297 299 299 298 297 298 300 301 301 302 303 306 309 301 302 302 305 308 313 314 309 307 306 306 308 310
302 303 305 306 307 310 309 303 299 302 303 301 299 299 301 297 296 298 297 297 297 296 297 298 298 298 299 299 300 301 304 304 306 309 308 307 307 306 308 312 310 309 306 308 308 307 312
301 302 305 305 308 308 306 302 300 302 301 300 299 299 301 296 296 297 298 297 296 296 298 297 298 298 299 298 295 296 300 302 303 304 308 308 308 309 309 309 310 306 307 308 308 308 310
301 302 305 308 309 306 304 304 301 302 301 299 298 301 301 296 296 297 297 297 298 297 296 296 297 297 297 298 293 292 297 293 298 299 302 305 308 310 313 311 309 307 306 304 303 305 308

GFSGBSN_925_thetae_096.txt.gz
Theta_e
323 323 324 324 321 317 313 312 311 311 311 311 311 310 309 308 309 308 308 308 309 310 309 309 308 306 306 305 305 306 308 307 309 313 312 313 317 318 320 322 321 325 326 324 325 326 327
324 323 323 323 324 321 316 313 310 310 311 310 310 310 309 308 308 308 308 309 309 310 309 309 309 306 306 305 306 307 308 308 309 312 312 311 316 316 318 321 320 321 323 322 323 326 328
323 325 323 323 322 323 320 314 312 306 310 311 310 310 308 308 308 308 308 307 306 307 305 307 309 307 307 305 306 308 309 309 309 314 314 314 314 317 316 320 320 321 323 321 323 325 327
320 321 322 324 323 323 322 317 312 307 310 311 310 309 308 307 307 308 305 302 303 305 305 305 308 307 304 306 307 309 312 314 314 315 316 314 314 316 317 317 321 322 320 322 323 325 325
315 316 320 321 324 322 323 320 313 309 309 310 310 309 308 307 307 308 303 302 304 304 306 306 306 306 305 307 308 309 310 313 312 311 312 314 315 316 317 319 321 321 323 322 324 323 326
312 314 315 317 320 324 323 321 316 310 310 308 309 308 306 305 307 307 303 302 304 306 307 307 306 303 304 307 308 309 311 312 312 311 310 311 311 314 313 314 322 321 322 321 322 323 325
308 311 312 313 315 319 323 322 318 312 311 307 308 308 305 304 307 306 305 306 306 305 306 306 306 306 306 308 309 310 311 312 311 310 310 311 311 315 316 316 316 317 322 323 320 321 324
304 306 308 309 312 314 318 321 320 313 310 304 307 308 305 305 305 304 306 305 306 307 307 307 307 307 307 308 310 309 311 312 311 313 312 310 312 316 316 316 316 317 318 317 321 321 322
303 303 304 307 311 312 316 320 319 315 309 304 306 307 304 304 304 306 306 306 306 307 307 309 307 307 307 309 310 310 311 312 312 315 313 310 315 316 316 317 317 316 315 317 323 323 322
303 303 303 305 307 309 311 315 320 315 308 303 306 306 305 304 307 306 306 305 305 306 298 307 311 309 309 308 309 309 311 312 310 314 313 314 314 315 316 318 316 319 317 317 322 324 326
302 302 302 303 305 307 310 311 319 317 309 305 305 306 305 307 308 307 306 305 304 305 299 305 312 309 310 310 309 311 311 313 312 313 310 312 315 316 317 317 315 317 317 319 320 318 317
301 301 301 301 303 304 306 310 317 319 309 306 305 305 305 307 307 307 306 305 306 301 297 310 313 314 313 310 310 311 311 311 312 312 312 313 313 314 315 315 316 315 317 316 319 318 321
301 301 301 301 301 304 304 307 312 317 307 306 306 305 306 308 308 306 306 305 303 297 304 308 312 312 311 311 311 311 312 312 310 306 304 308 312 314 315 316 315 316 320 322 322 322 322
301 300 300 301 301 303 303 306 312 314 306 307 305 305 308 308 307 306 307 302 295 306 306 307 311 312 312 311 311 311 310 312 311 311 310 305 305 313 314 314 315 316 318 317 318 318 315
301 301 300 301 301 302 304 306 308 311 305 307 305 307 307 306 306 307 306 302 299 306 309 313 313 313 312 312 311 311 310 309 309 310 314 310 310 312 314 315 313 315 316 314 314 312 310
302 301 300 300 301 301 303 306 307 310 303 305 306 307 308 307 307 308 309 307 309 311 311 312 311 311 312 313 311 311 310 309 309 308 309 312 317 313 314 315 316 314 314 319 316 320 318
301 301 300 300 301 302 305 305 306 309 304 305 309 309 308 307 308 308 306 304 311 310 310 311 311 312 310 310 311 311 311 310 309 310 308 311 314 314 315 316 315 317 316 316 314 313 314
301 300 300 300 301 301 305 305 304 308 302 308 308 313 307 306 310 310 309 309 310 310 310 311 311 311 311 310 310 310 311 310 310 311 312 312 316 317 315 316 314 315 316 316 316 314 309
301 300 300 301 301 303 304 304 308 304 306 309 308 309 307 307 310 311 309 307 309 310 310 310 311 310 309 309 310 307 307 306 307 310 312 313 314 316 316 315 315 317 316 316 313 312 308
300 300 301 301 302 304 305 308 310 303 308 310 306 308 304 307 307 309 308 306 308 308 310 310 310 309 308 308 306 308 303 303 305 308 310 310 309 312 312 314 314 316 317 316 316 316 311
300 301 300 301 303 304 305 310 309 303 307 310 305 305 305 308 307 306 305 305 308 309 308 307 308 305 306 306 304 305 300 300 303 304 307 308 306 310 311 312 313 314 316 316 317 315 313
300 299 300 305 304 305 311 312 308 303 308 307 306 304 301 303 304 305 303 303 304 306 307 306 306 301 300 302 301 301 300 300 301 301 304 303 307 300 305 310 312 313 315 316 316 316 315
300 301 303 304 305 305 309 310 307 302 308 305 303 301 301 301 301 301 302 301 304 302 301 301 300 299 299 299 299 299 298 298 296 298 301 300 299 296 301 307 312 310 310 314 314 314 316
302 302 303 304 304 307 309 311 308 304 307 306 303 301 300 301 299 301 302 302 302 300 300 299 298 298 298 296 296 296 296 296 296 301 300 300 298 299 298 311 315 312 309 312 314 313 313
302 303 303 303 307 307 309 310 307 304 305 303 302 302 300 299 298 300 299 299 298 298 299 299 298 297 295 298 300 302 300 300 304 302 300 298 299 299 305 310 312 310 308 312 312 312 310
302 302 302 303 305 307 311 309 310 303 306 301 302 303 300 299 297 298 297 297 296 297 298 298 297 296 298 299 301 300 301 301 305 305 300 301 302 303 306 311 312 310 305 304 307 309 310
302 302 302 303 303 306 311 308 305 304 305 300 298 301 299 298 296 297 297 297 295 295 296 297 297 298 298 299 300 300 304 302 304 309 304 303 302 301 300 303 308 307 305 305 308 305 309
301 302 302 302 304 306 310 309 304 304 306 302 299 301 300 296 296 296 296 296 295 295 297 296 297 297 298 297 295 295 299 300 302 302 305 306 304 304 307 306 308 306 306 307 304 302 306
301 302 301 301 304 306 309 307 304 305 304 301 300 299 299 296 296 296 295 296 296 296 295 295 295 295 296 296 291 291 297 289 296 298 299 308 306 309 307 305 307 305 305 302 303 304 304

GFSGBSN_925_thetae_099.txt.gz
Theta_e
322 322 324 325 324 324 323 321 317 312 312 312 311 311 311 309 308 309 309 309 309 310 310 310 310 307 305 304 305 306 308 308 309 313 311 313 317 317 320 318 316 316 320 324 326 327 327
318 320 321 322 323 325 323 322 320 315 311 311 311 311 311 309 308 308 308 309 309 309 310 310 311 307 305 305 306 307 309 309 309 311 312 312 313 315 318 318 314 317 323 322 325 325 326
315 315 316 318 320 321 325 323 322 318 312 308 311 311 310 309 308 308 309 309 308 305 305 309 311 308 305 305 306 308 312 311 309 312 313 313 314 316 317 317 317 321 319 320 322 325 325
311 312 313 314 315 317 320 324 322 321 315 308 311 311 310 308 307 308 305 307 304 304 305 306 311 307 304 305 307 309 311 312 313 315 315 314 314 315 316 318 321 322 317 320 323 324 323
307 308 310 312 313 314 315 319 323 322 318 310 311 310 309 308 307 306 302 302 303 304 306 306 307 305 305 308 308 310 310 310 312 311 311 314 314 315 316 319 321 321 323 319 320 323 323
305 305 305 307 308 311 313 314 319 321 319 313 311 309 309 307 307 306 302 302 303 306 306 307 306 302 305 307 308 309 311 312 311 310 309 311 309 315 313 315 320 322 322 322 321 323 322
304 305 305 305 305 307 311 312 314 319 320 315 307 309 308 306 306 305 304 306 306 304 305 305 306 305 306 308 308 309 311 311 310 309 311 310 311 317 315 314 315 318 321 322 321 321 323
304 304 304 304 304 305 308 309 312 315 318 316 308 308 308 306 306 304 306 305 306 305 306 306 306 306 307 308 309 308 311 311 311 311 311 308 311 315 315 316 315 316 319 318 320 322 321
303 303 303 303 303 303 304 308 311 312 317 316 309 309 307 305 305 304 306 306 306 307 306 308 307 306 307 308 309 309 310 311 312 313 311 308 313 314 315 316 316 315 316 316 320 322 321
304 303 303 303 303 302 303 304 305 311 316 315 309 309 307 305 306 306 305 305 305 307 297 305 310 309 309 308 308 308 310 311 310 313 313 313 313 315 316 317 315 317 316 315 323 323 323
303 303 303 303 303 303 302 303 305 308 311 313 309 306 306 305 307 306 306 304 304 304 299 303 311 308 309 309 308 311 310 312 312 313 309 310 314 315 316 316 315 316 316 317 322 319 317
304 304 303 303 302 302 302 302 304 304 310 313 308 304 306 306 307 307 305 304 306 302 298 309 312 313 312 310 309 310 311 310 311 311 311 311 311 313 314 315 315 314 315 317 318 318 323
305 304 304 303 303 302 302 302 302 304 307 313 306 305 306 306 307 306 305 305 306 301 304 308 311 312 311 310 310 310 311 311 308 305 300 306 310 313 314 315 314 316 316 322 322 324 317
304 304 304 304 303 302 301 302 303 304 306 311 305 306 306 308 307 306 306 306 307 303 306 306 310 311 311 310 310 310 310 310 309 309 305 306 305 311 313 313 314 315 318 315 318 319 318
304 304 304 303 303 302 301 301 302 303 308 308 306 306 307 307 306 306 307 308 306 303 307 311 312 312 312 311 310 310 309 307 308 309 308 310 310 309 312 314 314 316 313 314 318 311 309
303 305 303 303 303 302 301 301 302 305 307 306 306 306 307 306 306 308 308 312 305 309 309 310 310 310 310 312 310 309 309 308 309 308 308 310 310 311 313 314 315 314 313 317 315 320 319
304 304 303 301 302 301 301 301 302 305 307 305 307 309 307 306 307 307 308 307 308 309 310 311 309 310 309 310 309 309 310 309 309 309 307 309 312 311 314 315 314 316 314 315 314 316 313
303 303 301 302 302 301 301 301 303 305 305 304 307 312 307 307 308 308 309 307 309 309 309 310 309 310 309 308 309 309 310 308 306 310 310 310 311 312 311 313 314 315 317 316 317 315 307
303 303 301 300 301 301 300 301 303 305 306 306 309 308 307 306 310 311 310 309 309 310 309 310 310 309 308 308 309 306 307 305 304 307 310 311 311 311 308 315 314 318 315 315 313 311 309
303 302 302 301 301 301 301 302 303 305 306 306 306 309 307 306 307 309 309 306 307 308 309 309 309 308 308 308 307 307 304 303 304 306 310 308 308 308 307 312 311 314 316 315 315 315 311
302 301 301 301 301 299 301 303 304 306 306 308 305 306 307 309 308 308 306 306 308 308 307 307 307 306 306 305 305 305 300 299 302 304 303 307 306 307 308 309 311 311 314 316 315 315 312
301 301 301 299 299 301 305 305 306 305 306 308 305 303 303 305 306 307 306 303 306 307 306 307 305 301 301 303 302 300 299 299 300 300 302 301 297 303 298 305 309 311 311 313 315 316 316
301 300 302 303 302 303 304 306 306 308 307 307 303 300 302 303 305 306 304 301 303 302 300 301 302 298 299 298 299 298 297 296 295 297 300 299 299 301 297 302 305 306 309 310 312 313 315
300 300 302 303 303 302 305 308 309 307 307 307 303 300 301 302 301 303 302 303 302 300 299 298 297 297 297 295 295 295 295 296 296 298 298 298 297 302 297 307 309 307 308 308 310 312 312
300 301 302 303 302 303 305 308 309 308 307 306 302 301 299 300 299 300 300 300 298 297 298 298 298 295 295 298 299 302 298 300 302 300 299 296 298 299 303 306 305 309 306 310 312 312 309
300 300 302 302 302 303 305 309 310 308 307 307 302 303 299 299 298 298 298 297 297 297 298 297 296 294 297 299 301 300 301 300 304 303 297 300 301 303 305 305 309 308 306 303 307 310 305
300 300 301 302 302 302 305 309 309 307 307 304 300 301 299 298 296 296 296 296 294 295 296 296 296 298 297 299 300 300 304 301 303 302 302 302 301 299 298 299 304 307 306 303 308 305 303
301 300 300 302 302 302 305 309 310 306 307 300 300 300 299 296 296 296 295 296 294 295 297 295 296 296 297 297 294 295 298 300 301 301 301 302 304 304 303 303 304 305 305 307 304 303 303
301 300 300 302 301 301 304 309 307 307 306 300 298 298 299 296 296 295 295 295 295 295 294 293 294 295 296 295 290 290 297 288 295 297 299 305 304 306 302 303 304 304 304 301 302 302 302

GFSGBSN_925_thetae_102.txt.gz
Theta_e
315 315 315 316 318 319 320 321 324 322 320 315 312 312 311 312 310 309 309 309 310 309 310 310 311 311 307 304 304 307 309 310 309 312 311 314 316 317 318 317 315 315 313 319 324 326 326
311 312 314 314 315 316 317 318 319 322 321 318 312 312 311 311 310 309 309 310 310 310 310 306 311 311 305 306 306 307 310 311 309 309 312 313 314 315 316 313 314 313 316 316 321 325 325
307 308 309 310 311 313 314 314 316 318 321 321 315 311 311 310 309 309 309 310 309 305 305 305 311 311 305 305 307 309 311 313 312 311 313 314 314 316 315 315 314 315 316 313 322 324 324
307 307 306 306 307 307 308 310 312 314 319 321 316 310 311 309 310 309 309 309 305 304 304 305 310 307 303 305 308 309 311 312 312 315 314 314 314 315 317 316 319 318 312 315 317 323 323
306 305 306 306 306 306 306 308 311 312 315 319 318 312 309 307 309 307 308 304 303 304 306 306 307 305 304 307 308 309 310 310 312 311 310 314 313 314 316 320 322 320 320 317 317 320 323
306 305 305 305 305 305 305 305 308 310 312 315 317 313 308 304 307 306 307 303 303 305 306 306 306 302 304 307 307 309 310 311 311 309 309 312 310 315 313 315 321 323 321 320 318 321 321
306 306 305 304 304 304 304 304 305 307 310 313 317 312 307 303 307 306 306 306 305 305 305 305 305 304 305 307 308 308 310 310 309 309 312 310 316 318 316 314 314 318 320 320 320 321 319
305 305 305 304 304 304 304 303 303 304 305 309 312 313 307 307 306 306 306 304 306 305 306 305 305 305 306 307 309 308 310 310 310 310 309 308 315 315 314 315 315 317 320 320 321 322 321
305 305 304 304 304 303 304 303 303 303 305 307 309 314 306 306 305 306 306 305 306 307 306 307 306 306 306 308 308 308 309 310 310 312 310 308 313 314 315 315 315 315 316 316 321 323 321
306 306 305 304 305 304 304 303 303 303 304 304 307 311 305 304 305 306 305 305 306 306 299 304 310 308 308 307 307 308 310 310 309 312 312 312 312 314 315 316 314 317 315 315 322 322 322
307 307 306 306 305 304 304 303 303 303 303 303 308 309 305 305 306 305 306 304 305 304 304 303 310 307 308 308 307 310 310 310 311 312 309 309 314 314 316 316 314 316 316 316 321 318 320
306 307 306 306 306 305 305 304 302 302 302 304 308 309 305 306 306 307 305 303 305 306 306 308 311 312 311 309 308 309 310 309 310 310 308 309 309 313 313 314 314 313 316 316 316 317 321
305 305 305 306 306 305 305 304 302 302 303 303 305 307 306 306 307 307 304 305 307 309 305 309 311 312 311 310 309 310 310 310 307 304 300 305 308 310 313 315 313 315 316 320 322 323 318
304 304 304 305 305 305 305 304 302 302 302 304 307 306 305 305 307 306 304 307 309 307 305 305 310 310 310 309 309 310 309 309 308 307 303 305 305 309 312 313 313 315 314 312 318 318 314
303 304 304 304 304 305 305 304 302 301 302 307 306 306 306 305 306 305 306 309 309 305 306 310 311 310 311 311 309 310 309 306 307 307 307 309 309 308 310 313 313 315 314 313 311 309 306
303 303 303 303 303 304 305 304 301 301 302 306 306 306 305 307 306 306 308 311 307 305 309 309 308 308 308 310 309 309 308 307 308 307 307 308 308 309 312 313 314 314 312 317 318 320 318
302 303 303 303 304 304 302 303 301 301 303 305 305 306 304 306 306 307 308 309 306 308 309 310 307 309 308 310 308 308 309 308 308 309 306 309 312 307 311 313 313 317 319 315 314 314 314
303 303 304 304 301 300 302 302 301 302 304 305 305 308 307 306 309 309 309 308 308 309 308 309 308 308 307 306 308 308 309 307 303 309 309 309 311 309 309 311 314 315 317 316 316 315 307
303 303 303 302 299 300 301 301 301 301 303 305 306 308 306 306 309 309 309 311 309 309 309 309 309 308 307 307 307 307 306 303 303 304 308 309 306 307 302 311 313 316 315 315 314 310 305
303 302 302 302 301 301 300 300 302 302 303 305 307 308 308 307 308 308 311 309 309 308 308 308 308 307 307 308 306 306 304 302 303 305 307 306 304 301 302 302 309 308 311 311 316 316 309
302 301 302 302 301 300 300 301 301 302 303 306 307 307 306 308 308 309 307 306 307 308 307 307 307 307 307 307 304 305 300 299 301 302 302 303 296 303 305 305 308 310 310 310 314 315 313
302 301 301 301 302 302 300 302 302 302 302 307 306 305 305 306 307 308 308 306 307 307 306 307 305 303 303 303 301 301 299 298 299 298 300 299 294 300 297 301 303 306 309 310 312 311 315
302 302 301 301 302 303 301 303 305 305 302 307 305 300 303 305 306 307 307 304 306 302 300 299 302 298 299 298 297 296 294 294 295 295 298 298 299 296 299 300 306 303 307 309 310 313 313
301 302 301 300 302 302 300 301 302 305 305 307 306 301 301 304 305 306 304 302 302 299 300 297 297 296 296 293 294 294 294 295 295 297 296 297 296 300 299 304 303 305 306 308 308 309 311
301 301 301 300 302 303 303 301 305 309 305 306 304 300 299 301 300 300 301 300 298 297 298 298 297 294 293 297 299 302 297 299 302 300 298 294 297 296 302 304 302 307 307 304 311 311 306
300 301 302 300 300 302 302 301 309 308 306 306 303 301 298 299 298 297 299 297 297 296 297 296 295 294 297 298 300 299 301 299 304 302 296 299 299 297 298 304 307 308 307 304 303 311 305
300 300 301 301 300 301 302 301 308 307 307 306 302 300 298 298 296 296 297 297 295 295 296 296 296 298 296 299 300 299 303 300 303 301 301 299 299 299 297 298 300 303 306 303 309 305 304
300 300 301 302 300 300 302 300 307 307 308 307 300 299 298 296 295 295 295 295 294 294 296 294 295 295 296 297 295 295 297 299 299 298 299 300 301 303 301 301 301 304 304 307 304 302 303
300 300 300 301 300 300 301 300 305 308 308 306 298 298 298 296 295 294 293 294 294 294 293 292 293 294 295 294 290 290 296 288 294 297 298 302 300 301 300 301 301 304 303 301 301 302 301

GFSGBSN_925_thetae_105.txt.gz
Theta_e
308 308 308 309 310 311 312 312 311 313 315 318 320 316 314 312 312 311 310 310 310 310 310 311 310 311 309 303 304 307 308 312 309 310 312 314 316 316 316 315 315 317 315 316 315 318 326
308 308 308 308 308 307 308 308 309 311 313 315 319 317 313 309 311 311 310 310 310 311 310 309 309 310 306 305 307 307 309 312 309 309 313 312 314 315 314 315 314 312 314 315 315 317 318
308 307 307 307 307 307 307 306 307 310 313 314 316 319 313 309 310 311 310 310 310 310 307 308 310 310 305 304 307 308 310 312 313 313 313 314 314 316 312 314 313 314 316 315 317 315 320
308 308 306 306 306 306 306 306 306 306 309 311 314 318 316 310 309 308 309 307 308 309 306 308 312 307 304 305 308 310 310 311 311 314 313 314 314 315 316 314 317 316 315 317 316 314 314
307 307 307 306 305 305 305 305 305 305 306 307 310 312 316 310 306 307 308 306 304 304 307 309 307 304 304 306 308 309 309 310 311 311 310 311 313 315 317 320 321 318 319 317 317 314 317
307 307 307 307 306 306 305 305 305 304 304 305 307 310 315 310 306 305 307 306 303 303 306 306 306 302 303 307 307 308 309 310 311 309 310 312 312 317 315 315 321 322 321 318 318 315 318
308 307 306 305 306 306 306 305 305 304 304 305 307 308 310 310 306 307 307 305 304 305 304 304 304 304 304 307 307 308 310 310 308 310 313 310 317 319 317 314 314 318 319 319 317 316 319
308 308 308 307 306 306 305 305 304 304 304 304 305 305 311 308 306 306 306 305 305 304 306 304 305 305 305 307 308 307 310 310 309 310 308 310 316 315 314 314 314 318 320 321 320 319 319
307 307 308 308 308 307 306 305 305 304 304 304 304 305 312 308 305 305 304 306 306 306 306 306 305 305 305 307 308 308 309 309 310 311 310 310 312 313 315 314 315 315 318 319 320 321 321
305 306 306 307 307 307 307 306 305 304 303 303 303 307 308 305 305 305 305 305 306 305 302 306 309 307 308 307 307 307 309 310 309 311 311 311 311 313 314 316 313 317 314 316 323 323 323
304 305 305 305 306 307 307 307 306 305 303 303 302 304 308 305 306 305 306 305 305 303 305 305 309 307 307 308 307 309 309 309 311 312 308 310 313 313 315 315 313 315 315 319 321 319 321
303 303 304 305 305 306 306 306 306 306 304 303 302 303 307 306 305 307 305 304 305 306 307 308 310 310 310 309 308 308 309 308 309 309 307 309 308 312 312 313 314 314 315 316 317 318 323
303 304 304 304 304 304 305 305 305 305 304 303 300 303 308 305 306 307 305 304 308 310 305 309 311 311 310 309 309 309 309 308 307 303 301 304 307 308 312 315 312 314 315 319 323 323 320
303 303 303 303 304 304 304 305 305 304 304 301 305 307 307 305 307 306 304 307 310 309 305 305 310 310 310 308 309 309 308 307 307 305 304 306 302 308 311 313 314 315 314 314 317 319 317
303 303 303 303 304 304 304 304 305 303 303 301 306 307 306 305 306 305 305 310 311 309 305 309 310 310 310 310 308 309 308 306 306 306 307 309 308 307 309 313 313 315 318 312 311 307 312
302 303 303 304 304 304 304 304 303 303 301 301 305 305 305 305 305 306 308 310 309 304 308 309 308 307 309 310 309 309 308 306 308 306 306 307 308 309 311 312 313 315 313 320 319 318 318
302 302 303 304 303 302 302 304 303 302 301 302 305 305 305 306 305 306 310 309 308 306 308 309 306 309 306 309 307 308 307 307 306 308 306 308 311 307 308 311 312 316 317 316 316 316 316
301 303 303 303 301 299 301 302 302 302 301 303 305 307 305 305 307 307 309 308 308 309 308 309 306 307 306 306 307 307 309 306 302 307 308 308 310 309 307 310 312 313 315 314 318 317 307
301 302 303 302 302 300 300 301 302 301 301 303 305 307 305 306 309 309 309 310 309 309 309 309 308 308 306 306 306 307 305 302 302 306 307 308 304 298 301 305 309 310 309 309 311 311 306
301 302 303 302 302 300 300 301 300 301 301 302 306 307 307 307 308 308 309 309 310 307 308 307 307 307 307 307 304 304 304 301 301 305 306 305 301 300 301 298 307 307 308 310 308 317 312
301 301 302 302 301 302 301 299 299 300 300 303 303 306 306 307 309 308 307 307 307 309 307 307 307 307 306 307 304 304 299 298 300 300 300 299 296 300 303 302 304 305 307 309 306 309 316
301 301 302 302 301 302 301 302 301 301 302 302 305 306 305 307 307 308 308 309 307 306 307 309 306 305 303 302 300 301 299 298 298 297 299 297 294 294 293 300 302 304 304 305 308 309 309
300 301 301 302 302 301 302 302 302 304 302 300 302 301 305 306 307 308 307 307 305 304 299 298 302 299 301 298 296 294 293 294 294 294 297 297 296 294 298 300 303 302 307 307 309 309 311
300 300 301 301 302 301 301 302 301 302 303 302 302 301 303 305 306 307 306 306 303 301 300 297 296 297 295 292 293 294 293 294 296 296 295 296 295 300 301 298 300 308 305 308 309 309 307
300 300 301 301 302 302 300 302 300 301 302 303 302 300 300 302 304 302 302 300 298 297 297 297 295 293 291 297 299 301 297 299 301 299 297 293 296 296 301 303 300 307 307 306 308 311 307
300 300 301 300 301 302 301 300 300 302 308 306 304 301 298 298 299 297 299 297 298 297 296 296 294 294 296 298 300 299 300 298 303 300 296 298 297 295 296 301 306 306 306 304 303 310 306
299 300 300 300 301 302 301 300 301 308 308 304 303 301 298 297 296 295 297 297 295 295 295 295 296 298 296 299 300 299 301 299 300 300 301 298 298 297 297 298 299 298 303 303 310 306 304
300 300 300 300 300 301 302 299 300 306 305 305 301 301 299 295 294 294 294 295 294 295 296 294 295 295 296 297 295 294 297 298 298 297 298 298 297 298 300 301 300 303 303 307 303 302 302
299 300 300 300 300 300 301 299 300 305 304 304 299 298 298 295 294 293 293 293 293 294 292 292 292 294 295 294 290 290 296 287 294 297 297 301 298 300 299 300 298 304 303 301 300 302 301

GFSGBSN_925_thetae_108.txt.gz
Theta_e
309 308 309 308 308 308 308 308 308 307 309 313 315 317 320 317 312 309 311 310 311 311 311 310 311 312 309 307 307 307 307 310 310 311 313 315 316 316 317 317 318 319 318 317 317 318 317
309 309 309 308 308 307 307 307 307 307 307 309 311 313 319 317 314 308 311 311 311 311 311 308 311 311 308 309 307 307 308 310 310 311 313 314 315 316 316 317 319 317 317 318 316 315 316
308 308 308 309 308 306 306 306 306 306 306 307 307 311 312 317 314 310 311 310 311 310 311 307 311 311 308 308 306 307 309 310 312 311 313 315 315 316 315 315 315 317 319 318 317 316 316
308 308 308 308 308 307 306 306 306 306 306 306 306 309 311 315 313 308 307 307 308 309 308 307 311 309 307 305 306 309 309 311 312 314 313 314 315 316 317 315 316 317 318 322 318 316 315
309 309 308 308 307 307 307 306 306 305 306 306 305 308 310 312 311 308 306 304 306 305 307 308 311 306 307 306 309 309 309 311 311 312 311 311 314 317 316 319 319 318 320 321 317 317 318
309 310 310 309 308 307 307 306 306 305 305 305 305 306 307 308 311 308 307 305 304 304 306 307 305 306 306 309 308 308 309 310 312 311 312 314 314 319 317 320 322 320 319 317 319 317 318
308 307 307 308 309 309 308 307 306 306 305 305 305 304 304 305 311 307 305 305 306 307 305 307 306 307 306 307 308 310 309 311 311 311 316 312 321 319 317 318 318 319 319 316 319 317 319
307 306 307 307 307 308 308 308 308 306 306 305 305 303 310 310 310 306 305 307 307 307 309 306 306 306 306 307 310 310 310 313 313 314 312 316 320 317 316 317 318 321 321 322 320 318 319
306 306 306 307 306 306 307 307 308 307 307 306 305 303 306 309 306 305 306 306 306 306 310 308 306 307 307 308 310 310 311 311 313 313 314 317 316 315 316 317 319 321 321 322 321 320 319
306 305 304 304 304 305 306 306 307 307 307 306 305 303 304 307 305 306 306 305 306 306 313 310 310 309 309 309 309 308 310 312 313 314 314 314 314 315 316 317 317 319 317 319 322 323 325
304 304 304 305 305 305 305 305 306 306 306 306 305 304 303 306 306 306 306 305 306 305 316 309 310 307 308 310 309 311 310 311 312 314 313 315 315 315 316 316 316 318 318 318 321 321 320
303 304 304 304 304 304 304 305 305 305 306 306 305 304 303 307 306 306 305 304 305 315 315 310 311 310 311 310 309 310 311 310 311 312 311 313 310 314 315 315 315 317 320 321 321 321 323
303 303 303 304 304 304 304 305 305 305 306 306 305 302 305 304 306 307 304 306 315 316 306 312 313 312 311 311 310 310 310 310 310 311 313 309 309 311 313 316 316 318 319 322 321 324 320
302 303 303 303 304 304 304 305 305 304 303 304 301 302 308 306 305 306 305 310 316 312 310 308 312 311 311 310 311 311 311 311 310 310 312 313 311 311 312 316 317 317 318 319 317 318 319
302 302 303 304 304 303 302 303 304 304 303 302 301 306 306 305 306 305 307 315 314 311 307 311 311 312 312 311 311 311 311 310 309 310 311 311 311 309 310 313 315 319 320 316 318 313 319
302 302 303 304 303 302 302 302 302 303 302 301 304 305 305 305 306 305 309 311 311 307 308 310 310 310 310 312 311 311 310 309 310 309 309 311 313 311 313 313 314 315 315 321 322 322 318
302 302 302 304 303 302 302 302 303 302 301 301 305 306 304 305 305 307 311 311 310 308 308 311 309 311 308 312 311 311 309 310 308 310 309 311 312 311 310 312 311 313 315 317 316 320 318
301 302 302 303 303 302 300 301 302 302 299 303 305 308 305 306 307 308 310 309 308 310 309 310 308 309 309 311 311 311 311 309 304 309 311 311 312 311 309 309 311 312 313 315 319 319 316
301 302 302 302 302 301 301 300 302 301 300 303 305 306 305 306 311 310 309 309 310 310 310 310 310 309 308 310 308 309 309 304 306 309 310 309 310 308 305 311 308 309 309 310 311 315 318
301 301 302 302 301 302 301 300 300 301 302 302 305 307 306 307 307 309 309 309 310 309 309 308 308 308 308 308 307 308 307 303 303 307 305 306 308 308 306 307 307 308 307 308 310 313 315
300 301 302 302 302 302 302 300 301 299 300 302 303 306 306 309 309 309 308 309 309 309 308 308 309 309 308 308 308 307 303 302 301 301 303 304 304 304 303 303 303 304 305 305 308 309 313
301 300 301 301 302 302 301 302 301 300 301 301 304 304 306 308 308 308 308 309 308 307 309 310 309 308 306 305 302 304 304 302 301 301 302 301 305 301 302 303 306 304 304 305 307 307 309
300 301 301 301 302 302 301 301 301 302 302 301 302 301 301 308 308 309 308 308 306 306 301 300 305 306 305 301 299 299 299 299 300 301 302 301 303 303 307 304 306 309 310 310 310 310 310
300 300 301 301 301 301 301 301 301 302 301 302 303 302 303 309 308 308 307 307 306 303 302 299 298 302 298 297 299 300 300 300 301 300 300 301 301 303 307 306 312 311 308 310 310 309 308
300 300 300 300 301 301 301 301 300 301 301 303 303 301 302 304 307 306 306 304 301 299 299 299 297 296 297 300 303 304 305 304 302 300 300 300 302 304 307 306 306 309 309 309 309 312 307
299 299 300 300 301 301 300 301 300 300 301 303 302 302 301 301 303 298 304 301 302 300 299 297 296 296 299 301 304 306 305 305 305 302 300 301 301 304 305 306 307 311 307 306 307 312 307
299 299 300 300 301 301 300 301 301 301 304 306 304 302 300 301 298 297 301 300 298 298 300 298 298 299 299 303 304 306 305 303 306 304 303 302 301 304 304 305 303 302 305 305 312 311 306
299 299 300 300 301 301 300 301 301 304 309 306 301 302 300 299 297 295 295 297 297 299 301 298 299 298 300 304 305 305 305 304 303 302 303 303 303 304 303 305 306 302 306 308 307 305 305
299 299 300 300 300 300 299 300 302 305 303 302 298 299 298 299 297 293 293 293 294 294 297 296 297 299 301 302 300 301 303 300 303 304 300 305 303 306 305 305 302 306 306 304 304 305 302

GFSGBSN_925_thetae_111.txt.gz
Theta_e
309 309 309 309 309 308 307 307 307 307 307 307 308 308 312 314 319 316 312 312 311 311 312 312 311 311 311 309 310 309 309 310 312 312 315 316 316 316 317 316 317 317 317 318 319 318 318
309 309 309 309 309 309 308 307 307 307 307 307 307 307 311 312 317 315 310 312 312 311 312 312 311 311 311 310 309 310 310 311 313 313 314 315 316 316 318 317 317 317 318 319 318 318 318
310 310 310 310 309 309 308 305 305 307 307 307 307 306 309 312 315 315 313 311 311 311 311 311 311 311 311 310 308 309 311 311 313 312 314 315 315 316 317 316 315 317 319 320 319 317 318
310 310 310 311 310 310 308 308 305 307 307 307 307 306 306 309 310 314 312 308 309 309 309 311 312 311 310 308 308 309 311 312 313 313 314 314 316 317 318 316 316 318 320 323 320 318 318
309 309 309 308 309 309 310 309 308 307 308 307 307 306 306 306 308 311 312 308 308 310 311 311 311 310 309 307 308 311 311 311 312 313 314 312 314 318 317 318 320 318 321 323 319 319 319
308 308 307 307 308 308 308 309 309 309 308 307 307 306 305 307 305 308 311 308 310 308 309 309 308 308 309 308 309 310 311 312 313 314 313 314 315 319 318 320 327 322 319 318 319 320 318
307 307 307 307 306 307 307 308 308 309 309 308 307 306 305 308 311 308 310 306 308 309 306 308 309 308 308 308 309 311 311 312 313 314 317 315 320 322 318 318 319 319 320 318 316 318 318
307 306 307 306 306 306 306 306 307 307 308 308 307 307 305 306 309 309 306 307 308 308 309 308 307 307 307 308 311 311 311 314 315 316 316 316 320 318 317 318 320 320 320 320 321 319 319
306 305 305 306 306 306 306 306 306 306 307 307 306 307 304 305 307 306 307 306 306 307 310 310 308 308 308 309 311 312 312 313 314 315 316 318 318 316 317 318 318 320 321 320 321 321 320
305 305 304 305 306 305 305 305 305 306 306 306 307 306 305 304 307 307 307 306 306 307 316 312 310 310 309 310 311 310 311 314 314 316 315 315 315 315 317 317 317 319 318 320 321 322 323
305 304 304 305 304 305 305 305 305 306 306 306 306 305 305 303 305 307 306 307 307 307 321 310 311 308 310 311 310 311 311 313 314 313 315 317 315 316 316 315 317 318 318 319 320 321 320
304 303 304 304 304 304 305 304 305 305 305 305 304 305 305 303 305 307 306 306 306 315 319 312 311 310 311 310 310 311 311 311 312 312 312 312 312 313 316 315 316 317 319 318 319 320 324
304 303 303 304 304 304 303 303 304 304 305 304 303 304 303 304 306 307 306 307 314 320 308 313 313 311 311 311 311 311 311 311 312 314 315 312 310 310 314 316 315 317 319 323 322 325 321
304 303 303 303 304 304 303 304 304 304 305 303 303 302 304 306 305 305 306 311 318 314 312 310 313 312 312 311 311 312 312 311 311 311 313 312 314 311 311 315 317 317 317 321 324 321 318
304 302 303 303 304 304 303 304 303 303 303 301 303 302 306 306 306 306 308 316 316 314 308 312 312 312 313 311 312 312 310 310 311 311 312 311 311 309 311 313 314 317 319 317 319 316 317
304 302 303 303 303 303 303 303 303 302 302 302 304 303 306 307 306 306 310 314 313 309 310 312 310 311 311 313 312 311 309 310 312 311 310 311 312 311 310 312 313 314 315 319 319 320 317
304 303 302 303 302 302 302 302 303 303 300 302 306 305 304 306 305 307 313 313 311 309 310 312 310 310 309 311 311 310 309 311 310 312 311 310 311 311 309 311 311 312 314 314 315 319 323
305 302 302 303 303 302 302 301 300 302 301 305 306 308 304 305 308 309 312 311 308 311 310 311 310 310 310 311 311 310 311 310 308 311 310 311 310 311 307 308 310 311 311 312 316 320 318
304 302 302 302 302 301 302 302 301 301 302 304 306 305 305 306 312 311 310 310 310 311 311 311 310 310 309 310 309 309 309 305 307 310 310 309 310 311 309 311 309 309 309 309 312 314 319
304 302 301 302 302 301 302 300 301 300 300 304 305 308 306 307 305 310 310 309 311 310 310 310 309 309 309 309 308 308 308 305 305 307 305 307 311 309 307 307 307 307 307 306 309 315 312
304 302 301 302 302 302 302 300 301 300 299 304 304 306 306 309 309 310 310 310 311 310 310 309 310 309 308 308 308 307 306 305 303 302 304 305 307 305 304 304 304 304 305 305 308 309 312
304 303 301 301 302 302 302 300 301 300 300 302 305 305 301 308 309 310 309 310 310 308 309 310 309 309 308 306 303 304 305 304 303 302 304 304 308 304 305 305 305 304 304 304 306 308 309
305 303 300 301 302 302 301 301 301 301 301 302 303 302 302 307 309 310 310 309 308 308 304 303 307 308 307 303 302 302 302 302 302 304 304 303 305 307 308 307 308 312 310 310 311 311 311
305 303 300 301 301 302 301 301 301 302 303 303 304 303 305 310 308 309 309 308 307 305 304 302 302 304 301 300 301 302 302 302 303 302 302 303 304 306 310 309 315 311 309 311 310 310 309
306 302 300 300 301 301 301 300 301 301 301 304 304 303 304 306 305 308 308 307 304 302 302 301 299 299 300 302 304 305 307 306 304 302 302 302 304 308 311 308 308 309 309 310 310 312 309
306 302 300 300 301 301 300 300 301 300 301 302 304 303 304 306 305 302 307 305 306 304 302 299 298 299 301 303 305 308 307 307 308 305 301 302 302 307 308 309 307 311 310 308 309 312 309
306 303 300 300 300 301 300 300 300 301 300 301 303 303 303 302 302 300 304 304 301 302 303 300 300 300 300 304 306 306 306 305 307 306 305 304 304 307 307 308 305 308 307 307 312 313 309
305 303 300 300 300 301 301 301 300 300 303 306 304 303 304 304 301 298 299 300 300 301 303 301 301 301 301 304 306 307 305 306 305 305 304 305 305 306 305 307 308 306 307 310 309 307 307
305 303 300 300 299 300 300 300 299 301 301 303 301 304 303 303 300 296 295 295 296 297 301 300 301 302 303 304 305 306 306 306 305 305 303 305 304 308 306 307 306 306 308 307 306 307 306

GFSGBSN_925_thetae_114.txt.gz
Theta_e
311 311 311 311 311 310 310 309 309 308 308 308 308 308 308 309 312 315 317 313 311 312 312 312 312 312 312 311 310 310 310 311 312 312 314 316 316 316 317 316 317 317 315 316 316 317 318
311 311 312 312 312 312 311 310 309 309 308 309 308 307 307 307 310 312 316 312 313 313 312 312 312 311 312 312 310 310 311 312 314 314 314 315 316 316 317 318 318 318 318 317 317 318 318
311 310 310 310 309 309 310 310 310 310 309 309 309 308 307 307 307 309 314 314 312 312 311 312 312 311 311 311 309 309 310 312 313 313 314 316 315 316 316 318 316 316 319 319 319 319 319
309 310 309 309 308 308 309 309 309 310 310 310 309 309 307 307 306 308 309 314 311 310 310 311 311 312 311 309 308 308 311 312 313 314 315 315 315 316 317 317 317 317 317 321 319 320 318
309 308 307 309 308 307 307 308 308 309 309 310 310 309 308 307 306 309 308 311 312 309 310 310 311 311 309 307 307 309 311 312 312 313 315 314 314 317 318 319 320 318 320 320 321 320 320
309 309 307 306 307 307 308 307 307 307 308 308 309 308 308 306 307 310 309 309 310 310 309 310 310 308 309 308 310 310 310 311 313 314 316 315 316 319 318 319 326 325 325 320 321 321 320
310 308 307 306 306 307 307 306 307 307 307 307 308 307 307 306 306 310 309 307 309 310 309 309 310 309 308 309 309 311 311 312 313 315 316 317 320 321 320 318 317 319 319 319 317 319 320
307 307 307 306 306 306 306 306 306 307 306 307 307 307 305 306 305 306 307 308 307 308 309 308 307 308 307 308 311 312 311 314 315 317 317 318 318 317 318 317 317 318 320 321 320 319 318
306 306 306 305 305 305 306 306 306 306 306 306 306 305 304 305 303 307 308 307 306 307 310 310 309 308 308 308 311 313 312 314 314 315 316 315 316 316 316 316 317 318 321 320 321 320 319
306 306 305 304 305 305 306 305 304 304 304 306 306 304 304 304 304 307 307 307 307 307 314 313 310 309 308 310 311 310 312 314 314 315 315 315 314 314 315 316 316 319 319 318 318 320 325
306 306 304 304 305 305 305 304 305 305 306 305 305 304 304 304 303 306 307 307 307 307 319 312 311 308 310 311 311 312 311 313 313 314 314 315 315 315 316 316 315 317 317 317 318 319 319
306 305 304 304 305 305 304 304 305 304 304 304 303 303 304 304 305 305 307 307 307 313 318 312 310 311 310 310 310 311 311 311 312 311 311 311 310 312 314 313 314 314 316 317 317 320 319
306 306 304 304 305 305 304 304 304 304 303 303 303 302 303 304 306 306 307 308 313 318 308 313 312 310 312 310 310 311 311 312 311 311 314 312 311 310 312 314 314 315 316 317 317 315 317
306 305 304 304 304 304 303 303 304 304 303 302 303 303 305 305 304 304 306 310 317 313 311 311 312 311 312 310 312 311 312 312 311 310 312 311 310 310 309 312 314 314 317 321 325 325 324
305 304 304 303 304 304 303 303 303 304 302 301 304 304 305 307 305 304 308 313 315 312 309 313 311 313 313 310 312 312 310 310 311 310 311 312 310 309 310 309 313 314 315 314 321 316 316
306 304 304 303 304 303 303 303 303 303 301 303 305 304 305 306 306 306 311 315 312 310 311 312 311 311 313 312 312 311 309 310 312 310 309 311 311 311 309 310 312 313 314 317 317 314 317
307 304 304 302 303 303 303 302 302 303 301 304 307 306 305 305 305 308 313 312 311 310 310 312 310 309 310 311 310 309 309 309 310 311 310 310 311 310 309 310 310 313 312 313 314 316 322
308 304 303 302 303 303 303 301 303 303 300 304 306 307 303 305 308 310 313 310 310 311 311 311 310 310 310 310 310 310 311 308 309 310 310 309 309 308 309 309 309 309 310 310 312 312 315
308 304 303 302 302 302 302 302 301 300 299 304 305 305 304 305 311 313 310 309 310 310 311 310 310 309 309 310 310 309 309 305 306 309 307 307 307 303 309 311 307 308 307 307 308 311 310
309 304 303 302 302 302 301 301 300 299 299 304 306 308 307 306 307 311 311 311 311 310 311 310 309 308 308 308 307 308 308 305 305 305 306 306 306 305 304 303 304 305 306 305 307 309 305
309 306 304 301 302 303 301 301 301 299 299 304 304 306 304 309 310 311 310 311 310 311 310 309 309 309 308 307 307 306 306 305 303 302 304 305 300 304 304 304 305 304 304 305 301 306 304
309 306 304 301 302 302 301 301 301 300 302 303 305 304 303 307 308 311 310 310 310 308 306 309 310 308 305 304 304 305 304 304 301 303 304 303 303 299 298 305 305 304 304 304 305 307 309
310 306 304 301 301 301 301 301 300 302 302 303 302 302 305 307 308 309 310 309 308 307 305 303 305 307 305 302 301 301 300 301 302 304 303 302 301 301 305 307 305 303 309 309 311 309 310
309 307 305 301 300 300 301 300 300 302 303 304 304 304 306 309 308 309 309 308 308 304 304 303 301 304 301 300 301 301 301 302 302 301 302 302 301 304 303 303 305 310 309 310 310 310 309
309 307 305 301 300 300 300 300 300 300 301 302 304 304 305 307 305 308 308 307 305 302 302 301 299 299 299 301 303 304 304 305 304 302 301 301 302 304 304 304 307 308 307 310 310 310 308
309 307 305 302 299 299 300 300 299 300 299 301 303 303 303 306 304 303 305 307 306 304 301 300 298 299 300 302 303 307 305 305 307 304 300 301 301 300 304 306 307 311 309 308 308 309 308
309 307 305 302 299 300 300 300 300 299 301 301 302 303 304 304 302 301 303 303 302 302 302 299 299 299 300 303 306 306 305 304 305 305 305 300 300 302 303 304 305 307 307 307 311 309 307
309 307 305 303 299 300 300 300 300 299 300 302 303 302 303 304 302 299 300 300 300 300 302 300 300 300 300 303 305 305 303 304 303 304 303 304 301 301 303 304 303 305 306 309 307 307 307
309 307 306 303 299 299 300 300 300 300 301 302 303 304 303 304 300 297 297 297 297 297 299 299 301 301 302 303 303 304 304 302 303 301 303 302 302 305 303 305 304 305 306 305 305 305 305

GFSGBSN_925_thetae_117.txt.gz
Theta_e
312 312 311 311 311 310 310 310 311 311 311 311 310 309 309 308 308 308 311 315 314 312 313 312 312 312 310 312 311 311 310 312 312 312 313 315 317 317 316 315 316 316 316 314 314 315 314
311 310 311 309 310 309 309 310 311 310 310 311 311 310 310 308 308 307 309 312 314 313 312 312 312 310 312 312 309 310 311 311 313 313 314 315 316 316 317 316 317 317 318 317 315 315 316
310 311 310 309 309 309 308 308 308 309 309 310 310 311 310 309 308 307 309 311 314 312 310 311 311 310 312 310 309 309 310 311 313 313 313 315 315 315 315 315 315 316 318 317 318 317 318
309 312 310 308 307 308 308 309 309 308 308 309 309 309 310 310 308 307 310 310 310 312 310 310 310 311 311 309 309 309 309 310 312 314 314 315 315 315 316 314 317 317 316 318 317 319 318
309 309 308 309 307 307 307 307 308 307 308 308 308 308 309 308 308 306 310 310 308 311 310 310 310 311 311 308 307 307 307 311 313 314 313 314 313 315 317 319 318 318 317 318 318 316 320
308 308 308 308 306 306 307 307 307 307 307 307 307 308 307 306 306 305 309 308 310 309 310 311 310 309 307 308 309 310 311 311 312 314 315 314 313 315 318 317 319 323 321 321 322 320 320
307 308 308 307 306 306 306 307 307 306 305 306 306 307 306 305 305 304 307 308 308 308 309 308 309 308 309 307 309 310 310 311 313 313 314 314 317 317 317 317 318 319 318 320 320 319 321
308 308 308 306 305 306 306 306 305 305 306 305 305 305 304 304 305 304 306 306 306 306 307 309 308 308 307 307 310 311 311 312 314 315 314 317 316 314 316 318 318 317 318 321 323 319 319
308 308 307 305 305 306 306 305 305 306 306 306 305 305 304 303 305 305 307 307 307 307 309 310 309 308 308 308 310 313 311 313 312 313 313 314 313 314 315 315 316 315 319 320 320 317 318
308 308 307 304 305 306 305 305 305 305 305 303 304 304 303 303 304 305 307 307 307 307 312 311 309 309 308 309 311 310 311 312 313 313 313 313 313 314 314 315 315 317 316 316 317 317 319
308 308 306 304 305 305 305 304 305 304 303 302 303 303 303 303 303 305 306 307 307 307 314 311 310 308 309 311 310 311 311 312 313 313 310 309 312 312 312 315 313 315 314 314 316 316 316
310 307 305 304 305 305 304 303 304 304 303 302 304 303 303 304 304 305 305 307 307 310 313 311 309 311 310 310 309 310 310 310 310 311 309 309 309 310 312 311 312 313 314 314 315 317 314
310 306 305 304 304 304 304 303 304 304 304 301 303 303 303 303 306 304 307 306 312 309 306 312 311 311 311 310 310 310 311 310 307 304 304 307 309 309 310 310 311 312 313 308 313 309 314
309 306 305 304 304 304 304 304 303 304 302 304 304 305 306 304 304 304 306 310 312 310 309 311 311 310 311 310 310 311 310 309 308 308 303 304 305 308 309 310 312 312 315 319 322 323 319
309 306 304 303 303 304 304 304 303 303 299 304 304 305 305 304 305 305 307 312 313 309 309 312 311 311 311 309 311 310 308 308 309 308 309 307 307 308 308 309 312 311 312 313 319 319 319
309 306 304 303 303 303 304 303 303 303 300 304 305 305 304 305 306 307 310 312 310 310 310 311 310 308 311 311 311 309 309 307 310 309 307 309 307 308 309 307 308 312 311 311 310 315 322
309 307 304 303 303 303 303 303 303 299 302 305 305 306 305 305 305 307 312 311 311 310 309 310 309 308 308 309 307 307 307 307 308 310 307 305 307 306 306 309 309 309 309 310 305 313 321
309 308 305 301 302 303 302 303 299 299 302 304 303 307 305 305 305 306 306 310 310 310 309 309 308 308 308 306 307 308 307 305 304 308 307 305 306 301 310 307 306 307 307 306 305 309 316
309 309 305 302 302 301 301 300 300 298 299 302 305 305 305 305 310 305 308 310 309 310 309 309 308 307 306 306 307 307 306 304 303 305 304 305 301 293 301 300 301 305 304 306 305 307 304
310 309 306 302 301 301 300 300 300 298 300 303 301 304 302 301 304 309 309 309 310 309 309 308 307 306 306 306 304 305 306 304 303 303 306 305 300 297 298 299 302 302 303 304 302 297 308
310 309 306 302 300 300 300 300 301 300 300 303 300 304 304 301 305 308 308 309 308 307 305 306 307 305 304 303 303 304 305 303 301 302 302 301 295 301 302 303 304 303 303 304 297 303 301
310 309 306 303 300 299 300 300 301 302 302 302 300 298 299 304 305 307 307 307 308 307 304 305 306 303 301 302 302 303 302 301 301 301 302 300 297 294 296 304 304 304 303 303 304 306 308
310 309 307 304 300 299 300 299 301 302 303 302 302 302 300 304 304 306 307 308 306 304 303 301 301 303 301 301 299 299 298 299 300 302 300 299 295 296 301 305 299 299 307 308 310 309 308
310 309 308 305 300 299 300 299 300 302 302 303 304 302 302 304 304 307 308 307 304 302 303 301 298 302 300 298 299 300 300 300 299 299 300 299 296 298 298 297 297 303 309 309 309 308 308
309 309 308 306 302 299 300 299 299 300 301 302 303 303 303 302 302 306 307 306 302 301 300 300 298 297 297 300 301 302 300 301 302 300 299 298 299 299 300 298 302 308 307 309 308 307 306
309 309 309 306 303 298 299 299 299 300 300 300 301 303 302 303 302 300 302 305 304 301 300 299 298 297 299 300 301 302 301 301 303 300 298 300 299 297 299 303 305 306 307 306 306 306 306
309 309 309 306 304 299 299 299 299 299 300 301 301 302 303 302 299 299 300 301 299 299 299 298 298 298 298 299 302 301 302 302 301 303 304 294 294 298 298 299 302 306 306 306 307 301 305
309 309 309 306 304 300 298 300 299 299 299 300 300 301 303 302 301 298 298 299 298 297 298 298 298 298 297 300 299 299 300 301 300 300 301 301 298 298 299 300 299 304 305 305 303 305 305
309 309 309 307 304 302 298 299 300 299 300 302 303 304 303 302 301 299 298 297 297 297 297 296 299 298 297 300 296 296 301 293 298 297 301 300 300 302 300 300 299 302 304 303 302 303 304